[[{"header":{"parameterUnit":"m.s-1","parameterCategory":1,"la1":30.6,"la2":28.766,"lo1":-90.7593,"lo2":-88.6598,"dy":0.0162,"dx":0.0183,"nx":116,"ny":114,"refTime":"2024-04-06T12:00:00:Z","depth":0,"parameterNumber":2,"parameterNumberName":"U-component_of_WINDS"},"data":[0.0,0.0,0.0,0.0,0.0,0.0,0.0,0.0,0.0,0.0,0.0,0.0,0.0,0.0,0.0,0.0,0.0,0.0,0.0,0.0,0.0,0.0,0.0,0.0,0.0,0.0,0.0,0.0,0.0,0.0,0.0,0.0,0.0,0.0,0.0,0.0,0.0,0.0,0.0,0.0,0.0,0.0,0.0,0.0,0.0,0.0,0.0,0.0,0.0,0.0,0.0,0.0,0.0,0.0,0.0,0.0,0.0,0.0,0.0,0.0,0.0,0.0,0.0,0.0,0.0,0.0,0.0,0.0,0.0,0.0,0.0,0.0,0.0,0.0,0.0,0.0,0.0,0.0,0.0,0.0,0.0,0.0,0.0,0.0,0.0,0.0,0.0,0.0,0.0,0.0,0.0,0.0,0.0,0.0,0.0,0.0,0.0,0.0,0.0,0.0,0.0,0.0,0.0,0.0,0.0,0.0,0.0,0.0,0.0,0.0,0.0,0.0,0.0,0.0,0.0,0.0,0.0,0.0,0.0,0.0,0.0,0.0,0.0,0.0,0.0,0.0,0.0,0.0,0.0,0.0,0.0,0.0,0.0,0.0,0.0,0.0,0.0,0.0,0.0,0.0,0.0,0.0,0.0,0.0,0.0,0.0,0.0,0.0,0.0,0.0,0.0,0.0,0.0,0.0,0.0,0.0,0.0,0.0,0.0,0.0,0.0,0.0,0.0,0.0,0.0,0.0,0.0,0.0,0.0,0.0,0.0,0.0,0.0,0.0,0.0,0.0,0.0,0.0,0.0,0.0,0.0,0.0,0.0,0.0,0.0,0.0,0.0,0.0,0.0,0.0,0.0,0.0,0.0,0.0,0.0,0.0,0.0,0.0,0.0,0.0,0.0,0.0,0.0,0.0,0.0,0.0,0.0,0.0,0.0,0.0,0.0,0.0,0.0,0.0,0.0,0.0,0.0,0.0,0.0,0.0,0.0,0.0,0.0,0.0,0.0,0.0,0.0,0.0,0.0,0.0,0.0,0.0,0.0,0.0,0.0,0.0,0.0,0.0,0.0,0.0,0.0,0.0,0.0,0.0,0.0,0.0,0.0,0.0,0.0,0.0,0.0,0.0,0.0,0.0,0.0,0.0,0.0,0.0,0.0,0.0,0.0,0.0,0.0,0.0,0.0,0.0,0.0,0.0,0.0,0.0,0.0,0.0,0.0,0.0,0.0,0.0,0.0,0.0,0.0,0.0,0.0,0.0,0.0,0.0,0.0,0.0,0.0,0.0,0.0,0.0,0.0,0.0,0.0,0.0,0.0,0.0,0.0,0.0,0.0,0.0,0.0,0.0,0.0,0.0,0.0,0.0,0.0,0.0,0.0,0.0,0.0,0.0,0.0,0.0,0.0,0.0,0.0,0.0,0.0,0.0,0.0,0.0,0.0,0.0,0.0,0.0,0.0,0.0,0.0,0.0,0.0,0.0,0.0,0.0,0.0,0.0,0.0,0.0,0.0,0.0,0.0,0.0,0.0,0.0,0.0,0.0,0.0,0.0,0.0,0.0,0.0,0.0,0.0,0.0,0.0,0.0,0.0,0.0,0.0,0.0,0.0,0.0,0.0,0.0,0.0,0.0,0.0,0.0,0.0,0.0,0.0,0.0,0.0,0.0,0.0,0.0,0.0,0.0,0.0,0.0,0.0,0.0,0.0,0.0,0.0,0.0,0.0,0.0,0.0,0.0,0.0,0.0,0.0,0.0,0.0,0.0,0.0,0.0,0.0,0.0,0.0,0.0,0.0,0.0,0.0,0.0,0.0,0.0,0.0,0.0,0.0,0.0,0.0,0.0,0.0,0.0,0.0,0.0,0.0,0.0,0.0,0.0,0.0,0.0,0.0,0.0,0.0,0.0,0.0,0.0,0.0,0.0,0.0,0.0,0.0,0.0,0.0,0.0,0.0,0.0,0.0,0.0,0.0,0.0,0.0,0.0,0.0,0.0,0.0,0.0,0.0,0.0,0.0,0.0,0.0,0.0,0.0,0.0,0.0,0.0,0.0,0.0,0.0,0.0,0.0,0.0,0.0,0.0,0.0,0.0,0.0,0.0,0.0,0.0,0.0,0.0,0.0,0.0,0.0,0.0,0.0,0.0,0.0,0.0,0.0,0.0,0.0,0.0,0.0,0.0,0.0,0.0,0.0,0.0,0.0,0.0,0.0,0.0,0.0,0.0,0.0,0.0,0.0,0.0,0.0,0.0,0.0,0.0,0.0,0.0,0.0,0.0,0.0,0.0,0.0,0.0,0.0,0.0,0.0,0.0,0.0,0.0,0.0,0.0,0.0,0.0,0.0,0.0,0.0,0.0,0.0,0.0,0.0,0.0,0.0,0.0,0.0,0.0,0.0,0.0,0.0,0.0,0.0,0.0,0.0,0.0,0.0,0.0,0.0,0.0,0.0,0.0,0.0,0.0,0.0,0.0,0.0,0.0,0.0,0.0,0.0,0.0,0.0,0.0,0.0,0.0,0.0,0.0,0.0,0.0,0.0,0.0,0.0,0.0,0.0,0.0,0.0,0.0,0.0,0.0,0.0,0.0,0.0,0.0,0.0,0.0,0.0,0.0,0.0,0.0,0.0,0.0,0.0,0.0,0.0,0.0,0.0,0.0,0.0,0.0,0.0,0.0,0.0,0.0,0.0,0.0,0.0,0.0,0.0,0.0,0.0,0.0,0.0,0.0,0.0,0.0,0.0,0.0,0.0,0.0,0.0,0.0,0.0,0.0,0.0,0.0,0.0,0.0,0.0,0.0,0.0,0.0,0.0,0.0,0.0,0.0,0.0,0.0,0.0,0.0,0.0,0.0,0.0,0.0,0.0,0.0,0.0,0.0,0.0,0.0,0.0,0.0,0.0,0.0,0.0,0.0,0.0,0.0,0.0,0.0,0.0,0.0,0.0,0.0,0.0,0.0,0.0,0.0,0.0,0.0,0.0,0.0,0.0,0.0,0.0,0.0,0.0,0.0,0.0,0.0,0.0,0.0,0.0,0.0,0.0,0.0,0.0,0.0,0.0,0.0,0.0,0.0,0.0,0.0,0.0,0.0,0.0,0.0,0.0,0.0,0.0,0.0,0.0,0.0,0.0,0.0,0.0,0.0,0.0,0.0,0.0,0.0,0.0,0.0,0.0,0.0,0.0,0.0,0.0,0.0,0.0,0.0,0.0,0.0,0.0,0.0,0.0,0.0,0.0,0.0,0.0,0.0,0.0,0.0,0.0,0.0,0.0,0.0,0.0,0.0,0.0,0.0,0.0,0.0,0.0,0.0,0.0,0.0,0.0,0.0,0.0,0.0,0.0,0.0,0.0,0.0,0.0,0.0,0.0,0.0,0.0,0.0,0.0,0.0,0.0,0.0,0.0,0.0,0.0,0.0,0.0,0.0,0.0,0.0,0.0,0.0,0.0,0.0,0.0,0.0,0.0,0.0,0.0,0.0,0.0,0.0,0.0,0.0,0.0,0.0,0.0,0.0,0.0,0.0,0.0,0.0,0.0,0.0,0.0,0.0,0.0,0.0,0.0,0.0,0.0,0.0,0.0,0.0,0.0,0.0,0.0,0.0,0.0,0.0,0.0,0.0,0.0,0.0,0.0,0.0,0.0,0.0,0.0,0.0,0.0,0.0,0.0,0.0,0.0,0.0,0.0,0.0,0.0,0.0,0.0,0.0,0.0,0.0,0.0,0.0,0.0,0.0,0.0,0.0,0.0,0.0,0.0,0.0,0.0,0.0,0.0,0.0,0.0,0.0,0.0,0.0,0.0,0.0,0.0,0.0,0.0,0.0,0.0,0.0,0.0,0.0,0.0,0.0,0.0,0.0,0.0,0.0,0.0,0.0,0.0,0.0,0.0,0.0,0.0,0.0,0.0,0.0,0.0,0.0,0.0,0.0,0.0,0.0,0.0,0.0,0.0,0.0,0.0,0.0,0.0,0.0,0.0,0.0,0.0,0.0,0.0,0.0,0.0,0.0,0.0,0.0,0.0,0.0,0.0,0.0,0.0,0.0,0.0,0.0,0.0,0.0,0.0,0.0,0.0,0.0,0.0,0.0,0.0,0.0,0.0,0.0,0.0,0.0,0.0,0.0,0.0,0.0,0.0,0.0,0.0,0.0,0.0,0.0,0.0,0.0,0.0,0.0,0.0,0.0,0.0,0.0,0.0,0.0,0.0,0.0,0.0,0.0,0.0,0.0,0.0,0.0,0.0,0.0,0.0,0.0,0.0,0.0,0.0,0.0,0.0,0.0,0.0,0.0,0.0,0.0,0.0,0.0,0.0,0.0,0.0,0.0,0.0,0.0,0.0,0.0,0.0,0.0,0.0,0.0,0.0,0.0,0.0,0.0,0.0,0.0,0.0,0.0,0.0,0.0,0.0,0.0,0.0,0.0,0.0,0.0,0.0,0.0,0.0,0.0,0.0,0.0,0.0,0.0,0.0,0.0,0.0,0.0,0.0,0.0,0.0,0.0,0.0,0.0,0.0,0.0,0.0,0.0,0.0,0.0,0.0,0.0,0.0,0.0,0.0,0.0,0.0,0.0,0.0,0.0,0.0,0.0,0.0,0.0,0.0,0.0,0.0,0.0,0.0,0.0,0.0,0.0,0.0,0.0,0.0,0.0,0.0,0.0,0.0,0.0,0.0,0.0,0.0,0.0,0.0,0.0,0.0,0.0,0.0,0.0,0.0,0.0,0.0,0.0,0.0,0.0,0.0,0.0,0.0,0.0,0.0,0.0,0.0,0.0,0.0,0.0,0.0,0.0,0.0,0.0,0.0,0.0,0.0,0.0,0.0,0.0,0.0,0.0,0.0,0.0,0.0,0.0,0.0,0.0,0.0,0.0,0.0,0.0,0.0,0.0,0.0,0.0,0.0,0.0,0.0,0.0,0.0,0.0,0.0,0.0,0.0,0.0,0.0,0.0,0.0,0.0,0.0,0.0,0.0,0.0,0.0,0.0,0.0,0.0,0.0,0.0,0.0,0.0,0.0,0.0,0.0,0.0,0.0,0.0,0.0,0.0,0.0,0.0,0.0,0.0,0.0,0.0,0.0,0.0,0.0,0.0,0.0,0.0,0.0,0.0,0.0,0.0,0.0,0.0,0.0,0.0,0.0,0.0,0.0,0.0,0.0,0.0,0.0,0.0,0.0,0.0,0.0,0.0,0.0,0.0,0.0,0.0,0.0,0.0,0.0,0.0,0.0,0.0,0.0,0.0,0.0,0.0,0.0,0.0,0.0,0.0,0.0,0.0,0.0,0.0,0.0,0.0,0.0,0.0,0.0,0.0,0.0,0.0,0.0,0.0,0.0,0.0,0.0,0.0,0.0,0.0,0.0,0.0,0.0,0.0,0.0,0.0,0.0,0.0,0.0,0.0,0.0,0.0,0.0,0.0,0.0,0.0,0.0,0.0,0.0,0.0,0.0,0.0,0.0,0.0,0.0,0.0,0.0,0.0,0.0,0.0,0.0,0.0,0.0,0.0,0.0,0.0,0.0,0.0,0.0,0.0,0.0,0.0,0.0,0.0,0.0,0.0,0.0,0.0,0.0,0.0,0.0,0.0,0.0,0.0,0.0,0.0,0.0,0.0,0.0,0.0,0.0,0.0,0.0,0.0,0.0,0.0,0.0,0.0,0.0,0.0,0.0,0.0,0.0,0.0,0.0,0.0,0.0,0.0,0.0,0.0,0.0,0.0,0.0,0.0,0.0,0.0,0.0,0.0,0.0,0.0,0.0,0.0,0.0,0.0,0.0,0.0,0.0,0.0,0.0,0.0,0.0,0.0,0.0,0.0,0.0,0.0,0.0,0.0,0.0,0.0,0.0,0.0,0.0,0.0,0.0,0.0,0.0,0.0,0.0,0.0,0.0,0.0,0.0,0.0,0.0,0.0,0.0,0.0,0.0,0.0,0.0,0.0,0.0,0.0,0.0,0.0,0.0,0.0,0.0,0.0,0.0,0.0,0.0,0.0,0.0,0.0,0.0,0.0,0.0,0.0,0.0,0.0,0.0,0.0,0.0,0.0,0.0,0.0,0.0,0.0,0.0,0.0,0.0,0.0,0.0,0.0,0.0,0.0,0.0,0.0,3.0049,0.0,0.0,0.0,0.0,0.0,0.0,0.0,0.0,0.0,0.0,0.0,0.0,0.0,0.0,0.0,0.0,0.0,0.0,0.0,0.0,0.0,0.0,0.0,0.0,3.3725,3.3341,3.3246,3.2277,3.1707,3.1856,0.0,0.0,0.0,0.0,0.0,3.2879,3.3132,3.3292,3.3292,3.3292,3.3292,3.3292,3.3292,3.3292,3.3269,0.0,0.0,0.0,0.0,0.0,0.0,0.0,0.0,0.0,0.0,0.0,0.0,0.0,0.0,0.0,0.0,0.0,0.0,0.0,0.0,0.0,0.0,0.0,0.0,0.0,0.0,0.0,0.0,0.0,0.0,0.0,0.0,0.0,0.0,0.0,0.0,0.0,0.0,0.0,0.0,0.0,0.0,0.0,0.0,0.0,0.0,0.0,0.0,0.0,0.0,0.0,0.0,0.0,0.0,0.0,0.0,0.0,0.0,0.0,0.0,0.0,0.0,0.0,0.0,0.0,0.0,0.0,0.0,0.0,0.0,0.0,2.9722,0.0,0.0,0.0,0.0,0.0,0.0,0.0,0.0,0.0,0.0,0.0,0.0,0.0,0.0,0.0,0.0,0.0,0.0,0.0,0.0,0.0,3.4147,3.4063,3.3632,3.3283,3.3113,3.2515,3.2135,3.2014,3.2356,0.0,0.0,0.0,0.0,3.3292,3.3292,3.3292,3.3292,3.3361,3.3407,3.3407,3.3499,3.3545,3.3545,3.3361,0.0,0.0,0.0,0.0,0.0,0.0,0.0,0.0,0.0,0.0,0.0,0.0,0.0,0.0,0.0,0.0,0.0,0.0,0.0,0.0,0.0,0.0,0.0,0.0,0.0,0.0,0.0,0.0,0.0,0.0,0.0,0.0,0.0,0.0,0.0,0.0,0.0,0.0,0.0,0.0,0.0,0.0,0.0,0.0,0.0,0.0,0.0,0.0,0.0,0.0,0.0,0.0,0.0,0.0,0.0,0.0,0.0,0.0,0.0,0.0,0.0,0.0,0.0,0.0,3.4592,3.3988,3.4696,3.4342,3.3253,3.2581,3.1579,3.049,0.0,0.0,0.0,0.0,0.0,0.0,0.0,0.0,0.0,0.0,0.0,0.0,0.0,0.0,0.0,0.0,0.0,0.0,0.0,0.0,3.33,3.2649,3.292,3.3266,3.3138,3.2943,3.2982,3.341,3.2831,0.0,0.0,0.0,3.3292,3.3292,3.3292,3.3292,3.3292,3.3706,3.3912,3.3912,3.4372,3.4601,3.4555,3.3683,3.3522,3.3889,0.0,0.0,0.0,0.0,0.0,0.0,0.0,0.0,0.0,0.0,0.0,0.0,0.0,0.0,0.0,0.0,0.0,0.0,0.0,0.0,0.0,0.0,0.0,0.0,0.0,0.0,0.0,0.0,0.0,0.0,0.0,0.0,0.0,0.0,0.0,0.0,0.0,0.0,0.0,0.0,0.0,3.3325,3.3654,0.0,0.0,0.0,0.0,0.0,0.0,0.0,0.0,0.0,0.0,0.0,0.0,0.0,0.0,3.6072,3.6724,3.6746,3.6156,3.6746,3.6989,3.6868,3.7473,3.6724,3.5005,3.4322,0.0,3.1249,3.0213,0.0,0.0,0.0,0.0,0.0,0.0,0.0,0.0,0.0,0.0,0.0,0.0,0.0,0.0,0.0,0.0,0.0,0.0,0.0,0.0,0.0,3.3871,3.4009,3.4635,3.3898,3.3529,3.4029,3.3417,0.0,0.0,3.3292,3.3292,3.3292,3.3292,3.3407,3.3683,3.4188,3.444,3.4463,3.4693,3.4946,3.5175,3.4739,3.4509,3.444,3.4234,0.0,0.0,0.0,0.0,0.0,0.0,0.0,0.0,0.0,0.0,0.0,0.0,0.0,0.0,0.0,0.0,0.0,0.0,0.0,0.0,0.0,0.0,0.0,0.0,0.0,0.0,0.0,0.0,0.0,0.0,0.0,0.0,0.0,0.0,0.0,0.0,0.0,0.0,0.0,3.3947,3.4604,3.4962,3.4987,3.4762,0.0,0.0,0.0,0.0,0.0,0.0,0.0,0.0,0.0,3.7374,3.6624,3.638,3.6889,3.7253,3.7253,3.7032,3.7536,3.7544,3.732,3.8196,3.7687,3.6183,3.5889,3.4596,3.2413,3.0389,2.9567,2.9641,0.0,0.0,0.0,0.0,0.0,2.9932,0.0,0.0,0.0,0.0,0.0,0.0,0.0,0.0,0.0,0.0,0.0,0.0,3.4719,3.4714,3.4958,3.5796,3.5071,3.4558,3.4654,3.404,3.3469,3.3292,3.3292,3.3338,3.3476,3.3591,3.3843,3.4211,3.4716,3.4992,3.4992,3.5106,3.5359,3.5703,3.5703,3.552,3.5175,3.5175,3.5175,3.5175,0.0,0.0,0.0,0.0,0.0,0.0,0.0,0.0,0.0,0.0,0.0,0.0,0.0,0.0,0.0,0.0,0.0,0.0,0.0,0.0,0.0,0.0,0.0,0.0,0.0,0.0,0.0,0.0,0.0,0.0,0.0,0.0,0.0,0.0,0.0,0.0,0.0,3.5632,3.5967,3.6085,3.6003,3.5596,0.0,0.0,0.0,0.0,0.0,0.0,3.7374,3.6911,3.6954,3.7571,3.7083,3.7025,3.7501,3.7501,3.7378,3.7256,3.7622,3.7545,3.7065,3.7762,3.7551,3.6804,3.6099,3.493,3.3445,3.1139,3.016,3.0035,3.0035,3.0189,3.0429,3.0429,3.0429,3.0429,0.0,0.0,0.0,0.0,0.0,0.0,0.0,0.0,0.0,0.0,0.0,3.3972,3.3405,3.4891,3.5912,3.5963,3.6354,3.6307,3.5571,3.4775,3.4017,3.3269,3.3292,3.3499,3.3958,3.4463,3.4739,3.4762,3.5244,3.5474,3.5497,3.5979,3.6208,3.6231,3.6231,3.6208,3.6185,3.6185,3.6185,3.6185,3.6185,0.0,0.0,0.0,0.0,0.0,0.0,0.0,0.0,0.0,0.0,0.0,0.0,0.0,0.0,0.0,0.0,0.0,0.0,0.0,0.0,0.0,0.0,0.0,0.0,0.0,0.0,0.0,0.0,0.0,0.0,0.0,0.0,0.0,0.0,0.0,0.0,0.0,0.0,3.6631,3.7502,0.0,0.0,0.0,0.0,3.733,3.7374,3.7374,3.7374,3.7374,3.7593,3.8051,3.8073,3.7919,3.772,3.772,3.7488,3.685,3.6891,3.6891,3.6763,3.6377,3.6377,3.6676,3.4236,3.3331,3.3501,3.2781,3.1577,3.0395,3.0395,3.0412,3.0429,3.0429,3.0429,3.0429,0.0,0.0,0.0,0.0,0.0,0.0,0.0,3.423,3.4276,3.4324,3.4702,3.5115,3.5571,3.6187,3.6781,3.7169,3.6514,3.5858,3.5571,3.4409,3.3568,3.3292,3.3568,3.3981,3.4509,3.5014,3.5267,3.5267,3.5749,3.6002,3.6002,3.6185,3.6277,3.6277,3.6622,3.6759,3.6736,3.6415,3.6277,3.6277,3.6277,3.6162,0.0,0.0,0.0,0.0,0.0,0.0,0.0,0.0,0.0,0.0,0.0,0.0,0.0,0.0,0.0,0.0,0.0,0.0,0.0,0.0,0.0,0.0,0.0,0.0,0.0,0.0,0.0,0.0,0.0,0.0,0.0,0.0,0.0,0.0,0.0,0.0,0.0,3.7688,3.8007,0.0,3.7495,3.7374,3.7505,3.7833,3.7855,3.7986,3.827,3.7919,3.7756,3.7928,3.7445,3.7276,3.7168,3.7168,3.7061,3.6804,3.7115,3.7239,3.726,3.7418,3.7146,3.6596,3.5622,3.4697,3.3743,3.3466,3.2329,3.0806,3.0806,3.0943,3.1165,3.1165,3.1165,3.1165,0.0,0.0,0.0,0.0,0.0,0.0,3.3979,3.4147,3.4386,3.458,3.5141,3.5861,3.6619,3.7063,3.7456,3.7874,3.6734,3.5858,3.5571,3.4409,3.3638,3.3522,3.4165,3.467,3.5037,3.552,3.5772,3.5772,3.6117,3.6369,3.653,3.653,3.6622,3.6805,3.7127,3.7288,3.7265,3.692,3.6782,3.6782,3.6782,3.6782,3.6782,0.0,0.0,0.0,0.0,0.0,0.0,0.0,0.0,0.0,0.0,0.0,0.0,0.0,0.0,0.0,0.0,0.0,0.0,0.0,0.0,0.0,0.0,0.0,0.0,0.0,0.0,0.0,0.0,0.0,0.0,0.0,0.0,0.0,0.0,0.0,3.7881,3.7954,3.8492,3.8724,3.7979,3.8133,3.8498,3.8931,3.8583,3.8466,3.8772,3.8164,3.7742,3.7655,3.729,3.7115,3.726,3.7425,3.7488,3.7488,3.7964,3.8191,3.8191,3.7672,3.7248,3.6818,3.5697,3.4752,3.3875,3.3589,3.2736,3.1576,3.1576,3.173,3.1936,3.1936,3.1936,3.1936,0.0,0.0,0.0,0.0,0.0,3.3979,3.3725,3.3894,3.4089,3.4115,3.5245,3.6123,3.6149,3.7194,3.79,3.79,3.7108,3.6332,3.5571,3.4799,3.4275,3.4027,3.4992,3.552,3.5543,3.6025,3.6277,3.6277,3.6277,3.6553,3.7035,3.7058,3.7311,3.7793,3.7793,3.7816,3.7816,3.7839,3.7839,3.7839,3.7793,3.7793,3.7793,0.0,0.0,0.0,0.0,0.0,0.0,0.0,0.0,0.0,0.0,0.0,0.0,0.0,0.0,0.0,0.0,0.0,0.0,0.0,0.0,0.0,0.0,0.0,0.0,0.0,0.0,0.0,0.0,0.0,0.0,0.0,0.0,0.0,3.7517,3.7998,3.8141,3.7539,3.9047,3.9825,3.9219,3.9545,4.0084,4.0724,3.9463,3.8712,3.8838,3.8229,3.7826,3.7529,3.755,3.7777,3.8233,3.8647,3.8874,3.8874,3.933,3.9537,3.9399,3.7125,3.6701,3.7527,3.4252,3.3401,3.427,3.3273,3.2853,3.2707,3.2689,3.2689,3.2689,3.2689,3.2689,3.2689,0.0,0.0,0.0,0.0,0.0,3.3894,3.33,3.381,3.4458,3.474,3.5564,3.6436,3.7299,3.7206,3.7015,3.7015,3.5833,3.4969,3.4775,3.4369,3.437,3.506,3.5359,3.568,3.6048,3.6208,3.6277,3.6277,3.6645,3.6897,3.7035,3.7402,3.7655,3.7793,3.8206,3.8367,3.839,3.8734,3.8895,3.8826,3.8091,3.7793,3.7793,0.0,0.0,0.0,0.0,0.0,0.0,0.0,0.0,0.0,0.0,0.0,0.0,0.0,0.0,0.0,0.0,0.0,0.0,0.0,0.0,0.0,0.0,0.0,0.0,0.0,0.0,0.0,0.0,0.0,0.0,0.0,0.0,3.9276,3.8675,3.9236,3.9613,3.9855,4.0281,4.0495,4.0372,3.9601,3.9449,4.0558,3.9318,3.8723,3.9066,3.9277,3.9003,3.846,3.8792,3.904,3.9164,3.9288,3.9351,3.9351,3.9475,3.9537,3.9399,3.7967,3.7105,3.6559,3.5545,3.4993,3.4811,3.4537,3.4569,3.4634,3.3189,3.2689,3.2689,3.2689,3.2689,3.2724,0.0,0.0,0.0,0.0,0.0,3.3386,3.25,3.3018,3.3665,3.4198,3.506,3.6108,3.7429,3.7047,3.6709,3.6709,3.5259,3.4385,3.4385,3.4318,3.4601,3.5198,3.5611,3.5979,3.6254,3.6277,3.6369,3.6599,3.6897,3.7265,3.7701,3.7976,3.8229,3.8436,3.8757,3.8895,3.8895,3.917,3.9308,3.9262,3.8665,3.8413,3.8413,3.8413,3.8413,3.8413,3.8413,3.795,3.7484,3.8182,0.0,0.0,0.0,0.0,0.0,0.0,0.0,0.0,0.0,0.0,0.0,0.0,0.0,0.0,0.0,0.0,0.0,0.0,0.0,0.0,0.0,0.0,0.0,0.0,3.8499,3.9916,4.0095,4.0258,4.0479,4.0778,4.1007,4.1145,4.1145,4.0056,3.9986,4.1497,3.9996,3.9427,4.0163,4.0195,3.9803,3.9144,3.9392,3.9537,3.9537,3.9744,3.9827,3.9827,4.0013,4.0096,4.0096,3.893,3.7936,0.0,3.6789,3.6051,3.5244,3.5244,3.5092,0.0,0.0,0.0,0.0,0.0,3.3169,3.3203,0.0,0.0,0.0,3.2612,3.2785,3.2587,3.1625,3.1952,3.2411,3.3039,3.4234,3.5622,3.6843,3.6749,3.6615,3.6615,3.5162,3.4311,3.4382,3.4644,3.4831,3.4877,3.5772,3.6277,3.6277,3.6277,3.653,3.7035,3.7104,3.7632,3.8596,3.8642,3.8895,3.9308,3.9308,3.9308,3.9308,3.9308,3.9308,3.9308,3.9308,3.9308,3.9308,3.9308,3.9308,3.9308,3.9308,3.9308,3.9308,3.9308,0.0,0.0,0.0,0.0,0.0,0.0,0.0,0.0,0.0,0.0,0.0,0.0,0.0,0.0,0.0,0.0,0.0,0.0,0.0,0.0,0.0,0.0,0.0,0.0,3.9073,4.0298,4.1422,4.1227,4.093,4.1007,4.1443,4.1742,4.1742,4.0902,4.1109,4.2883,4.1198,4.0571,4.1655,0.0,0.0,0.0,0.0,3.9682,3.9682,4.0096,4.0303,4.0303,4.0696,4.0882,4.0882,3.955,3.8971,3.8826,3.7658,3.6627,3.5605,3.5605,3.4875,3.3837,3.3837,3.3837,3.3837,3.3837,3.3837,0.0,0.0,0.0,0.0,3.2896,3.2525,3.1889,3.1181,3.1424,3.1946,3.2478,3.4055,3.5622,3.6843,3.6286,3.5858,3.5858,3.4433,3.3631,3.4023,3.4544,3.4969,3.5359,3.5956,3.6277,3.6277,3.6277,3.653,3.7035,3.7448,3.7953,3.8596,3.8987,3.9216,3.9308,3.9308,3.9308,3.9308,3.9308,3.9308,3.9308,3.9308,3.9308,3.9308,3.9308,3.9308,3.9308,3.9308,3.9308,3.9308,3.9308,3.9167,3.893,3.893,3.8693,0.0,0.0,0.0,0.0,0.0,0.0,0.0,0.0,0.0,0.0,0.0,0.0,0.0,0.0,0.0,0.0,0.0,0.0,0.0,3.7777,3.9042,4.0515,4.1781,4.1781,4.1836,4.196,4.25,4.2798,4.2798,4.1926,4.186,4.2748,4.1299,4.0801,4.1677,4.1366,0.0,4.089,4.0709,4.0613,4.0613,4.0717,4.0758,4.0758,0.0,0.0,4.0882,3.8681,3.7658,3.7658,3.6497,3.5754,3.5605,3.5605,3.4875,3.3837,3.3837,3.3837,3.3837,3.3837,3.3837,3.3888,0.0,0.0,0.0,3.1601,3.1448,3.0824,2.9897,3.0441,3.1168,3.1936,3.3217,3.4628,3.6302,3.5605,3.4872,3.4726,3.3543,3.3201,3.3958,3.4509,3.5014,3.5497,3.6002,3.6277,3.6277,3.653,3.6897,3.7402,3.793,3.8459,3.8964,3.9193,3.9308,3.9308,3.9308,3.9308,3.9308,3.9308,3.9308,3.9308,3.9308,3.9308,3.9308,3.9308,3.9308,3.9308,3.9308,3.9308,3.9308,3.9308,3.9308,3.9308,3.9308,3.9308,3.919,0.0,0.0,0.0,0.0,0.0,0.0,0.0,0.0,0.0,0.0,0.0,0.0,0.0,0.0,3.6766,3.6443,0.0,3.8713,3.9178,3.9683,4.065,4.2192,4.1994,4.2037,4.2447,4.3043,4.331,4.2917,4.2216,4.2056,4.2973,4.1776,4.1198,4.1848,4.1668,4.1516,4.1095,4.1042,4.0882,4.0882,4.0882,4.0882,4.0882,4.0882,4.0986,4.1214,4.0036,3.9572,3.979,3.918,3.8586,3.7989,3.6787,3.544,3.4402,3.4402,3.4282,3.4111,3.4111,3.4248,3.4436,0.0,0.0,0.0,3.0237,3.017,2.9669,2.8817,2.9371,3.0239,3.1248,3.2251,3.3566,3.5303,3.4868,3.4219,3.3646,3.2924,3.2925,3.3935,3.4509,3.5014,3.5497,3.6002,3.6277,3.6277,3.6782,3.7288,3.7793,3.8321,3.8826,3.9308,3.9308,3.9308,3.9308,3.9308,3.9308,3.9308,3.9308,3.9308,3.9308,3.9308,3.9308,3.9308,3.9308,3.9308,3.9308,3.9308,3.9308,3.9308,3.9308,3.9308,3.9308,3.9308,3.9377,3.9446,3.9446,3.9515,0.0,0.0,0.0,0.0,0.0,0.0,0.0,0.0,3.6995,3.7161,3.7274,3.8224,3.9066,3.9078,3.9512,4.0145,4.0933,4.0597,4.0883,4.2572,4.237,4.2279,4.2906,4.3485,4.3549,4.2906,4.2458,4.2544,4.3601,4.2275,4.1614,4.2116,4.2018,4.1594,4.1167,4.1108,4.1007,4.1007,4.111,4.1151,4.1151,4.1151,4.1338,4.171,4.1544,4.1604,4.1953,4.1657,4.1042,3.9975,3.7986,3.6623,3.5729,3.5729,3.5572,3.5344,3.4676,3.471,3.4984,0.0,0.0,0.0,0.0,0.0,2.8817,2.8724,2.8817,2.9117,2.9874,3.1669,3.3236,3.3998,3.4269,3.4091,3.34,3.2863,3.2925,3.3935,3.4509,3.5014,3.5497,3.6002,3.6277,3.6277,3.6782,3.7288,3.7793,3.8321,3.8826,3.9308,3.9308,3.9308,3.9308,3.9308,3.9308,3.9308,3.9308,3.9308,3.9308,3.9308,3.9308,3.9308,3.9308,3.9308,3.9308,3.9308,3.9308,3.9308,3.9308,3.9308,3.9308,3.9308,3.9607,3.9974,3.9974,4.0295,4.0541,4.0464,4.0464,4.0095,3.8854,3.9708,4.0944,0.0,4.1307,4.1392,4.0924,4.1669,4.2136,4.1001,4.164,4.2238,4.1768,4.1634,4.2078,4.3377,4.3444,4.3601,4.4026,4.3668,4.3534,4.3399,4.3666,4.3956,4.4138,4.2774,4.2236,4.2958,4.1714,4.131,4.1877,4.1707,4.1483,4.1483,4.1897,4.2104,4.2104,4.2104,4.2124,4.2186,4.111,4.0684,4.0574,3.9523,3.9069,3.8918,3.8614,3.8462,3.831,3.831,3.8498,3.8415,3.5955,3.4933,3.5018,0.0,0.0,0.0,0.0,0.0,2.8186,2.7904,2.8351,2.891,2.9349,3.0535,3.1669,3.2699,3.2865,3.2878,3.2787,3.2351,3.2512,3.3522,3.4349,3.5014,3.5497,3.6002,3.6277,3.6277,3.6782,3.7288,3.7793,3.8321,3.8826,3.9308,3.9308,3.9308,3.9308,3.9308,3.9308,3.9308,3.9308,3.9308,3.9308,3.9308,3.9308,3.9308,3.9308,3.9308,3.9331,3.9629,3.9744,0.0,4.0089,4.0181,4.0181,4.0181,4.0341,4.0502,4.0502,4.0663,4.0892,4.1191,4.1466,4.1571,4.1045,4.1456,4.2086,4.2385,4.2614,4.2715,4.2753,4.3088,4.3248,4.2193,4.2504,4.2616,0.0,4.2092,4.254,4.3733,4.3525,4.3592,4.4068,4.4049,4.3914,4.3914,4.4116,4.4228,4.4228,4.3258,4.284,4.3097,4.2394,4.2137,4.2422,4.2167,4.1979,4.1979,4.2166,4.2249,4.2249,4.2249,4.2393,4.2642,4.2174,4.2017,4.2261,4.1807,4.1178,4.0393,4.0393,3.9624,3.8246,3.8246,3.7886,3.7363,3.6674,3.6517,3.6729,0.0,0.0,0.0,0.0,0.0,2.7715,2.7357,2.7998,2.8538,2.8817,2.9537,3.0471,3.1677,3.1422,3.1513,3.2248,3.1723,3.1956,3.3201,3.4096,3.4854,3.5497,3.6002,3.6277,3.6277,3.6782,3.7288,3.7793,3.8321,3.8826,3.9308,3.9308,3.9308,3.9308,3.9308,3.9308,3.9308,3.9308,3.9308,3.9308,3.9308,3.9308,3.9308,3.9308,3.9377,3.9561,3.9928,4.0066,4.0135,4.064,4.0823,4.0823,4.0823,4.0915,4.103,4.103,4.1122,4.1329,4.1696,4.2063,4.2362,4.25,4.2545,4.2683,4.3165,4.328,4.3395,4.3739,4.3923,4.3906,4.3397,4.3376,4.3444,4.3214,4.3259,4.3529,4.4458,4.409,4.3952,4.4526,4.4526,4.4571,4.4706,4.4593,4.4571,4.4706,4.4013,4.3639,4.3512,4.315,4.2767,4.2623,4.2501,4.2435,4.2435,4.2559,4.2642,4.2642,4.2642,4.2807,4.3118,4.3118,4.3284,4.3615,4.3615,4.3136,4.2176,4.2176,4.1094,3.9531,3.9216,3.8743,3.8091,3.7643,3.7575,3.733,0.0,0.0,0.0,0.0,0.0,2.7357,2.7262,2.7715,2.7998,2.7998,2.8877,2.9838,3.0877,3.0154,3.0171,3.1636,3.0807,3.1089,3.3178,3.3752,3.4463,3.5474,3.6002,3.6277,3.6277,3.6782,3.7288,3.7793,3.8321,3.8826,3.9308,3.9308,3.9308,3.9308,3.9308,3.9308,3.9308,3.9308,3.9308,3.9308,3.9308,3.9308,3.9308,3.9308,3.9607,4.0043,4.0043,4.0066,4.0135,4.064,4.0823,4.0823,4.0823,4.1168,4.1558,4.1558,4.1903,4.2293,4.2316,4.2316,4.2454,4.2936,4.3074,4.3188,4.3671,4.3785,4.3785,4.3808,4.4222,4.4589,4.4589,4.4979,4.5324,4.5324,4.5324,4.5347,4.5347,4.5347,4.5347,4.537,4.5347,4.5553,0.0,4.5645,4.5553,4.6058,4.5387,4.4887,4.4517,4.3816,4.3088,4.2375,4.2663,4.2911,4.2911,4.3346,4.3573,4.3573,4.3573,4.3573,4.3594,4.3594,4.3594,4.3615,4.3615,4.3615,4.3615,4.3615,4.3462,4.3289,4.2022,4.235,4.2984,3.9355,3.717,3.6097,0.0,0.0,0.0,0.0,0.0,0.0,2.7262,2.7452,2.7547,2.7547,2.8423,0.0,0.0,0.0,0.0,0.0,3.063,3.0942,3.1728,3.3138,3.4303,3.5014,3.5818,3.6277,3.6277,3.6438,3.6943,3.7793,3.7976,3.8481,3.9308,3.9308,3.9308,3.9308,3.9308,3.9308,3.9308,3.9308,3.9308,3.9308,3.9308,3.9308,3.9331,3.9675,3.9905,4.0135,0.0,4.1053,4.1145,4.165,4.1834,4.1834,4.1834,4.1948,4.2155,4.2477,4.2454,4.2477,4.3142,4.3074,4.2959,4.3441,4.3556,4.3693,4.4222,4.4336,4.4428,4.4773,4.4979,4.5094,4.5094,4.5255,4.537,4.537,4.537,4.537,4.537,4.537,4.5484,4.5829,4.5875,0.0,0.0,0.0,0.0,4.6586,4.6329,4.6257,4.6156,4.5589,4.5332,4.5041,4.4486,4.4121,4.4121,4.3835,4.3615,4.3615,4.3615,4.3615,4.3615,4.3615,4.3615,4.3615,4.3615,4.3615,4.3615,4.3615,4.3136,4.235,4.1868,4.1404,4.0958,3.9707,3.8919,3.8444,0.0,0.0,0.0,0.0,0.0,0.0,0.0,0.0,0.0,0.0,0.0,0.0,0.0,0.0,0.0,0.0,0.0,3.0237,3.0408,3.2225,3.3571,3.4279,3.5367,3.6094,3.6254,3.6277,3.6759,3.7793,3.7793,3.8298,3.9308,3.9308,3.9308,3.9308,3.9308,3.9308,3.9308,3.9308,3.9308,3.9308,3.9308,3.94,3.9607,3.9928,4.0272,0.0,4.1352,4.1696,4.1903,4.2224,4.2339,4.2339,4.2339,4.2454,4.266,4.2982,4.2982,4.2959,4.3418,4.3441,4.3464,4.3969,4.4084,4.4222,4.475,4.4887,4.4956,4.5301,4.537,4.537,4.537,4.537,4.537,4.537,4.5507,4.5622,4.5622,4.5783,4.6035,4.6357,4.6403,4.6586,0.0,0.0,0.0,4.7115,4.7138,4.7087,4.6962,4.6848,4.6423,4.5838,4.5105,4.4654,4.4352,4.3919,4.3615,4.3615,4.3615,4.3615,4.3615,4.3615,4.3615,4.3615,4.3615,4.3615,4.3615,4.3615,4.3136,4.233,4.1868,4.1559,4.1113,3.9707,3.9845,4.0158,0.0,0.0,0.0,0.0,0.0,0.0,0.0,0.0,0.0,0.0,0.0,0.0,0.0,0.0,0.0,0.0,0.0,0.0,2.9489,3.0949,3.2207,3.3344,3.4735,3.5726,3.6254,3.6277,3.6759,3.7747,3.777,3.8298,3.9262,3.9285,3.9308,3.9308,3.9308,3.9308,3.9308,3.9308,3.9308,3.9308,3.9308,3.9584,4.002,4.0066,4.0686,4.1535,4.1604,4.1926,4.2339,4.2339,4.2339,4.2339,4.2339,4.266,4.3051,4.3119,4.3441,4.3693,4.3303,4.351,4.3969,4.452,4.4635,4.4773,4.5255,4.537,4.537,4.537,4.537,4.537,0.0,0.0,4.537,4.537,4.5783,4.6127,4.6127,4.6564,4.6885,0.0,0.0,0.0,0.0,0.0,0.0,4.7689,0.0,4.7584,4.731,4.7208,4.6596,4.4955,4.4955,4.4504,4.3767,4.3615,4.3615,4.3615,4.3615,4.3615,4.3615,4.3615,4.3615,4.3615,4.3615,4.3615,4.3615,4.3615,4.3615,4.3462,4.233,4.2503,4.3136,3.9531,3.9845,4.1384,0.0,0.0,0.0,0.0,0.0,0.0,0.0,0.0,0.0,0.0,0.0,0.0,0.0,0.0,0.0,0.0,0.0,0.0,2.9489,3.0519,3.1946,3.3731,3.452,3.5382,3.6254,3.6277,3.6599,3.7219,3.7609,3.8114,3.878,3.9147,3.9308,3.9308,3.9308,3.9308,3.9308,3.9308,3.9308,3.9308,3.9308,3.9377,3.9584,4.0341,4.0778,4.1099,4.188,4.2224,4.2339,4.2339,4.2339,4.2339,4.2339,4.2431,4.2683,4.3418,4.3464,4.3487,4.4497,4.4589,4.452,4.5025,4.5163,4.5209,4.5324,4.537,4.537,4.537,4.537,4.537,4.537,0.0,0.0,4.537,4.5783,0.0,4.6127,4.6564,0.0,4.739,0.0,4.7643,4.8148,4.8194,0.0,0.0,4.8194,4.8118,4.8086,4.8086,4.7941,4.7502,4.6299,4.5555,4.5405,4.4201,4.3615,4.3615,4.3615,4.3615,4.3615,4.3615,4.3615,4.3615,4.3615,4.3615,4.3615,4.3615,4.3615,4.3615,4.3289,4.3289,4.3462,4.2503,4.2503,4.281,0.0,0.0,0.0,0.0,0.0,0.0,0.0,0.0,0.0,0.0,0.0,0.0,0.0,0.0,0.0,0.0,0.0,0.0,0.0,2.9729,3.1016,3.2566,3.3845,3.4923,3.591,3.6162,3.653,3.7035,3.7311,3.7839,3.8596,3.8872,3.9101,3.9308,3.9308,3.9308,3.9308,3.9308,3.9308,0.0,0.0,3.9446,3.9698,4.0272,4.0755,4.1237,4.1788,4.2155,4.2339,4.2339,4.2339,4.2385,4.2591,4.2821,4.3096,4.3648,4.3946,4.4222,4.4864,4.4979,4.5002,4.5278,4.537,4.537,4.537,4.537,4.537,4.537,4.537,4.537,4.537,4.537,4.5438,0.0,0.0,0.0,4.677,4.7229,4.7643,0.0,4.7964,0.0,4.8354,4.84,4.84,0.0,4.84,4.84,4.84,4.84,4.8255,4.7941,4.7038,4.6151,4.5555,4.4201,4.3615,4.3615,4.3615,4.3615,4.3615,4.3615,4.3615,4.3615,0.0,4.3615,4.3615,4.3615,4.3615,4.3615,4.3615,4.3615,4.3462,4.2984,4.3136,4.3289,0.0,0.0,0.0,0.0,0.0,0.0,0.0,0.0,0.0,0.0,2.7262,2.7262,0.0,0.0,0.0,0.0,0.0,0.0,0.0,0.0,2.9794,3.0954,3.2791,3.42,3.5405,3.591,3.6415,3.6943,3.7012,3.7494,3.839,3.8527,3.8803,3.9216,3.9285,3.9308,3.9308,3.9308,3.9308,3.9308,3.9308,3.9561,3.9974,0.0,4.0594,4.1397,4.1512,4.1903,4.2339,4.2339,4.2339,4.2408,4.2844,4.3326,4.3716,4.3785,4.4497,4.5186,4.4819,4.5025,4.537,4.537,4.537,4.537,4.537,4.537,4.537,4.537,4.537,4.537,4.537,4.5415,4.5599,4.6058,0.0,4.7138,4.7574,4.8079,4.84,4.84,4.84,4.84,4.84,4.84,4.84,4.84,4.84,4.84,4.84,4.84,4.8086,4.7186,4.7186,4.6448,4.4805,4.405,4.3767,4.3615,4.3615,4.3615,4.3615,4.3615,4.3615,4.3615,0.0,0.0,4.3615,4.3615,4.3615,4.3615,4.3615,4.3615,4.3462,4.233,4.2697,4.3392,0.0,0.0,0.0,0.0,0.0,0.0,0.0,0.0,0.0,0.0,2.7262,2.7262,0.0,0.0,0.0,0.0,0.0,0.0,0.0,0.0,0.0,3.0957,3.1735,3.3027,3.49,3.5405,3.591,3.6392,3.6828,3.7127,3.7333,3.8183,3.8619,3.8734,3.9124,3.9308,3.9308,3.9308,3.9308,3.9308,3.9308,3.9354,3.9469,3.9905,0.0,0.0,4.126,4.1903,4.2339,4.2339,4.2339,4.2362,4.2431,4.2821,4.328,4.3693,4.4245,4.4819,4.514,4.5301,4.537,4.537,4.537,4.537,4.537,4.537,4.537,4.537,4.537,4.537,4.537,4.5714,4.6012,4.6104,4.6908,4.7528,4.762,4.8079,4.84,0.0,4.84,4.84,4.84,4.84,0.0,0.0,0.0,0.0,4.84,4.84,4.8086,4.7186,4.7186,4.6448,4.4805,4.4654,4.4201,4.3615,4.3615,4.3615,4.3615,4.3615,4.3615,4.3615,0.0,0.0,4.3615,4.3615,4.3615,4.3615,4.3615,4.3615,4.3615,4.3289,4.3689,4.4019,0.0,0.0,0.0,0.0,0.0,0.0,0.0,2.7262,2.7262,2.7262,2.7262,2.7262,2.7262,2.7262,2.7345,0.0,0.0,0.0,0.0,0.0,0.0,3.0179,3.0763,3.2004,3.3981,3.4425,3.5062,3.5887,0.0,3.6782,3.7035,3.754,3.7907,3.8206,3.8711,3.8941,3.8941,3.9193,3.9308,3.9308,3.9308,3.9308,3.9331,3.9584,0.0,0.0,4.1306,4.1903,4.2339,4.2339,4.2339,4.2339,4.2339,4.2867,4.351,4.3739,4.4382,4.5048,4.5301,4.537,4.537,4.537,4.537,4.537,4.537,4.537,4.521,4.4366,4.48,4.5302,4.468,4.5367,4.6288,4.6816,4.7321,4.7734,4.7987,4.824,4.84,4.84,4.84,4.84,4.84,4.84,0.0,0.0,0.0,0.0,4.84,4.84,4.8232,4.7794,4.7502,4.6891,4.6002,4.5256,4.4654,4.4201,4.3767,4.3615,4.3615,4.3615,4.3615,4.3615,4.3615,0.0,4.3615,4.3615,4.3615,4.3615,4.3615,4.376,4.3967,4.3967,4.4256,4.4494,0.0,0.0,0.0,0.0,0.0,0.0,2.7262,2.7262,2.7262,2.7262,2.7262,2.7262,2.7262,2.7262,2.7407,0.0,0.0,0.0,0.0,0.0,0.0,0.0,0.0,0.0,3.2986,0.0,0.0,0.0,3.6025,0.0,0.0,0.0,0.0,0.0,3.8183,3.8481,3.8596,3.8987,3.9216,0.0,0.0,3.9308,0.0,0.0,0.0,0.0,0.0,4.1742,4.2201,4.2293,4.2339,4.2339,4.2339,4.3005,4.3808,4.3808,4.4543,4.537,4.537,4.537,4.537,4.537,4.537,4.537,4.537,4.537,4.4937,4.3375,4.409,4.4661,4.3991,4.4894,4.6143,4.7339,4.7734,4.7941,4.8331,4.84,4.84,4.84,4.84,0.0,4.84,4.84,0.0,0.0,0.0,0.0,4.84,4.84,4.84,4.84,4.7794,4.7332,4.7186,4.6002,4.5256,4.5106,4.4201,4.3919,4.3919,4.3615,4.3615,4.3615,4.3615,0.0,0.0,4.3615,4.3615,4.3615,4.3718,4.3987,4.4319,4.4422,4.4753,4.5147,0.0,0.0,0.0,0.0,0.0,0.0,2.7262,2.7262,2.7262,2.7262,2.7262,2.7262,2.7262,2.7262,2.7282,0.0,0.0,0.0,0.0,0.0,0.0,0.0,0.0,0.0,0.0,0.0,0.0,0.0,0.0,0.0,0.0,0.0,0.0,0.0,0.0,0.0,3.8596,3.8642,0.0,0.0,0.0,0.0,0.0,0.0,0.0,0.0,0.0,4.1214,4.1719,4.2178,4.2339,4.2339,4.2339,4.3005,4.3808,4.3808,4.4543,4.537,4.537,4.537,4.537,4.537,4.537,4.537,4.537,4.537,4.4937,4.3375,4.3236,4.339,4.3709,4.4288,4.5345,4.7242,4.8033,4.8331,4.8377,4.84,4.84,4.84,0.0,0.0,4.84,4.84,0.0,0.0,0.0,0.0,0.0,4.84,4.84,4.84,4.84,4.7941,4.7208,4.7038,4.6596,4.5853,4.5106,4.4654,4.4654,4.3919,4.3615,4.3615,0.0,0.0,0.0,4.3615,4.3615,4.3656,4.407,4.4256,4.436,4.4774,4.5229,4.5623,0.0,0.0,0.0,0.0,0.0,0.0,2.7262,2.7262,2.7262,2.7262,2.7262,2.7262,2.7262,2.7262,2.7262,2.7262,2.7262,0.0,0.0,0.0,0.0,0.0,0.0,0.0,0.0,0.0,3.3288,3.4601,3.5428,0.0,0.0,0.0,0.0,0.0,0.0,0.0,0.0,3.8321,0.0,0.0,0.0,0.0,0.0,0.0,0.0,0.0,0.0,0.0,4.1604,4.1811,4.2086,4.2339,4.2339,4.3005,4.3808,4.3808,4.4543,4.537,4.537,4.537,4.537,4.537,4.537,4.521,4.4228,4.4778,4.4503,4.1084,4.1813,4.3035,4.2933,4.3788,4.5357,4.7653,4.8263,4.84,4.84,4.84,4.84,4.84,4.84,0.0,0.0,0.0,0.0,0.0,0.0,0.0,0.0,4.84,4.84,4.84,4.84,4.8232,4.7941,4.7502,4.7038,4.6743,4.5853,4.5256,4.4805,4.4504,4.405,4.3615,0.0,0.0,0.0,4.3615,4.378,4.4049,4.4236,4.465,4.5167,4.5333,4.5685,4.6078,0.0,0.0,0.0,0.0,0.0,2.7262,2.7262,2.7262,2.7262,2.7262,2.7262,2.7262,2.7262,2.7262,2.7262,2.7262,2.7262,0.0,0.0,0.0,0.0,0.0,0.0,0.0,0.0,0.0,3.2406,3.3798,3.4946,3.5703,0.0,0.0,0.0,0.0,0.0,0.0,0.0,0.0,0.0,0.0,0.0,0.0,0.0,0.0,0.0,0.0,0.0,0.0,0.0,0.0,0.0,4.2212,4.1806,4.2243,4.3076,4.3631,4.4543,4.537,4.537,4.537,4.537,4.537,4.537,4.4937,4.3375,4.4228,4.4068,3.951,4.0657,4.2231,4.1706,4.246,4.422,4.7153,4.7626,4.7772,4.8377,4.84,4.84,4.84,0.0,0.0,0.0,0.0,0.0,0.0,0.0,0.0,0.0,4.84,4.84,4.84,4.84,4.84,4.84,4.7794,4.7502,4.7502,4.6743,4.6002,4.5106,4.4955,4.4352,4.3615,0.0,0.0,0.0,4.376,4.4008,4.4319,4.4608,4.5105,4.5705,4.583,4.6078,4.6347,0.0,0.0,0.0,0.0,0.0,2.7262,2.7262,2.7262,2.7262,2.7262,2.7262,2.7262,2.7262,2.7262,2.7262,2.7262,2.7262,0.0,0.0,0.0,0.0,0.0,0.0,0.0,0.0,0.0,3.2248,3.3292,3.4785,3.552,3.5543,3.6048,3.6277,3.6277,0.0,0.0,0.0,0.0,3.8091,0.0,0.0,0.0,0.0,0.0,0.0,0.0,0.0,0.0,0.0,0.0,0.0,0.0,0.0,4.0541,4.1419,4.3253,4.4543,4.537,4.537,4.537,4.537,4.537,4.537,4.4937,4.3375,4.4228,4.4068,3.951,3.9798,4.0658,4.0097,3.9955,4.1283,4.5317,4.5915,4.6551,4.8232,4.84,4.84,0.0,0.0,0.0,0.0,0.0,0.0,0.0,0.0,0.0,0.0,4.84,4.84,4.84,4.84,4.84,4.84,4.84,4.84,4.84,4.7648,4.6743,4.6002,4.5106,4.4352,0.0,0.0,0.0,0.0,4.4112,4.4298,4.4401,4.5312,4.5685,4.5747,4.6182,4.6347,4.6347,0.0,0.0,0.0,0.0,0.0,0.0,2.7262,2.7262,2.7262,2.7262,2.7262,2.7262,2.7262,2.7262,2.7262,2.7262,2.7262,0.0,0.0,0.0,0.0,0.0,0.0,0.0,0.0,3.0665,3.1796,3.2741,3.3912,3.4831,3.552,3.6048,3.6277,3.6277,3.6277,3.6369,0.0,3.7058,3.7793,0.0,0.0,0.0,0.0,0.0,0.0,0.0,0.0,0.0,0.0,0.0,0.0,0.0,0.0,0.0,0.0,4.0786,4.1229,4.2085,4.3426,4.3075,4.2516,4.3514,4.3097,4.1792,4.0371,4.1084,4.1226,3.7639,3.8224,3.9354,3.9798,4.0853,4.2456,4.5466,4.6847,4.7772,4.8377,4.84,0.0,4.84,4.84,0.0,0.0,0.0,0.0,0.0,0.0,0.0,0.0,0.0,4.84,4.84,4.84,4.84,4.84,4.84,4.84,4.84,4.8086,4.7355,4.6002,4.5704,0.0,0.0,0.0,0.0,0.0,4.4236,4.467,4.5271,4.5561,4.5871,4.6161,4.6285,4.6347,4.6347,0.0,0.0,0.0,0.0,0.0,0.0,2.7262,2.7262,2.7262,2.7262,2.7262,2.7262,2.7262,2.7262,2.7262,2.7262,2.7262,0.0,0.0,0.0,0.0,0.0,0.0,0.0,2.9209,3.0187,3.1221,3.2213,3.3407,3.4418,3.5267,3.5956,3.6277,3.6277,3.6277,3.6277,0.0,3.6828,3.7632,3.8619,0.0,0.0,3.9308,0.0,0.0,0.0,0.0,0.0,0.0,0.0,0.0,0.0,0.0,0.0,0.0,0.0,3.7966,3.8869,4.1482,4.1509,4.1084,4.1954,4.153,4.0371,3.8787,3.9654,3.9941,3.6775,3.7511,3.8623,3.8897,4.0255,4.2159,4.455,4.6381,4.7626,4.8232,4.84,0.0,4.84,0.0,0.0,0.0,0.0,0.0,0.0,0.0,0.0,0.0,0.0,4.84,4.84,4.84,4.84,4.84,4.84,4.84,4.84,4.84,4.7648,4.6448,4.6151,0.0,0.0,0.0,0.0,0.0,4.467,4.5167,4.5705,4.5871,4.6099,4.6347,4.6347,4.6347,4.6347,0.0,0.0,0.0,0.0,0.0,0.0,0.0,2.7262,2.7262,2.7262,2.7262,2.7262,2.7262,2.7262,2.7262,2.7262,2.7262,0.0,0.0,0.0,0.0,0.0,0.0,0.0,2.8724,2.9769,3.0755,3.1754,3.3224,3.4234,3.4831,3.5818,3.6277,3.6277,3.6277,3.6277,3.63,3.6851,3.7655,3.8527,3.8596,3.8895,0.0,0.0,0.0,0.0,0.0,0.0,0.0,0.0,0.0,0.0,0.0,0.0,0.0,0.0,0.0,0.0,0.0,4.0514,4.0514,4.0657,4.0514,4.0085,3.8641,3.9365,0.0,3.6775,3.7364,3.8201,3.757,3.8918,4.0833,4.3194,4.502,4.6699,4.8232,4.84,0.0,0.0,0.0,0.0,0.0,0.0,0.0,0.0,0.0,0.0,0.0,0.0,4.84,4.84,4.84,4.84,4.84,4.84,4.84,4.84,4.84,4.7941,4.7186,4.6448,0.0,0.0,0.0,0.0,0.0,4.547,4.5705,4.5768,4.6182,4.6347,4.6347,4.6347,4.6347,4.6347,0.0,0.0,0.0,0.0,0.0,0.0,0.0,0.0,0.0,0.0,2.7262,2.7262,2.7262,2.7262,2.7262,0.0,0.0,0.0,0.0,0.0,0.0,0.0,0.0,0.0,2.9301,2.9873,3.0743,3.1731,3.2879,3.3912,3.4831,3.5818,3.6277,3.6277,3.6277,3.6277,3.6323,3.7219,3.7747,3.8045,3.8826,3.9193,0.0,0.0,0.0,0.0,3.893,3.8122,0.0,0.0,0.0,0.0,0.0,0.0,0.0,0.0,3.5027,3.5336,3.6844,0.0,3.7492,3.8787,3.8224,3.7217,0.0,3.707,3.707,3.6349,3.6497,3.6887,3.7283,3.9805,4.2159,4.3346,4.5937,4.7918,4.8377,0.0,0.0,0.0,0.0,0.0,0.0,0.0,0.0,0.0,0.0,0.0,0.0,0.0,4.84,4.84,4.84,4.84,4.84,4.84,4.84,4.84,4.84,4.7941,4.7186,4.7038,0.0,0.0,0.0,0.0,4.5793,4.6363,4.6489,4.6202,4.6306,4.6347,4.6347,4.6347,4.6347,4.6347,0.0,0.0,0.0,0.0,0.0,0.0,0.0,0.0,0.0,0.0,2.7262,2.7262,2.7262,2.7262,2.7262,0.0,0.0,0.0,0.0,0.0,0.0,0.0,0.0,2.8817,2.9095,2.9852,3.0629,3.1349,3.2689,3.3798,3.4831,3.5818,3.6277,3.6277,3.6277,3.6277,3.6323,3.7104,3.7563,3.7862,3.8665,0.0,0.0,0.0,0.0,0.0,3.8291,3.724,0.0,3.7382,3.6629,3.5382,0.0,0.0,0.0,0.0,3.5027,3.521,3.5999,3.6201,3.6349,3.7217,3.6775,3.6201,3.6201,3.6201,3.6201,3.6201,3.6201,3.6756,3.8311,4.0534,4.2752,4.44,4.6699,4.84,0.0,0.0,0.0,0.0,0.0,0.0,0.0,0.0,0.0,0.0,0.0,0.0,0.0,0.0,4.84,4.84,4.84,4.84,4.84,4.84,4.84,4.84,4.84,4.8232,4.7794,4.7355,0.0,0.0,0.0,0.0,4.7195,4.7669,4.7379,4.6972,4.6972,4.667,4.6347,4.6347,4.6347,4.6347,0.0,0.0,0.0,0.0,0.0,0.0,0.0,0.0,0.0,0.0,0.0,0.0,0.0,0.0,0.0,0.0,0.0,0.0,0.0,0.0,0.0,0.0,2.8445,2.8724,2.8817,2.9828,3.0605,3.1157,3.2659,3.3866,3.4831,3.5818,3.6277,3.6277,3.6277,3.6323,3.6415,3.692,3.7448,3.7953,3.8481,0.0,0.0,0.0,0.0,0.0,0.0,0.0,0.0,3.5968,3.4609,3.2984,3.495,0.0,0.0,0.0,0.0,0.0,3.5999,3.6201,3.6201,3.6201,3.6201,3.6201,3.6201,3.6201,3.6201,3.6201,3.6201,3.6887,3.9498,4.1279,4.3047,4.5466,4.731,0.0,0.0,0.0,0.0,0.0,0.0,0.0,0.0,0.0,0.0,0.0,0.0,0.0,0.0,0.0,0.0,4.84,4.84,4.84,4.84,4.84,4.84,4.84,4.84,4.84,4.84,4.7716,0.0,0.0,0.0,0.0,4.8364,4.8934,4.8634,4.7773,4.7592,4.7132,4.6509,4.6347,4.6347,4.6347,0.0,0.0,0.0,0.0,0.0,0.0,0.0,0.0,0.0,0.0,0.0,0.0,0.0,0.0,0.0,0.0,0.0,0.0,0.0,0.0,0.0,2.8631,2.8631,2.891,2.9393,3.0375,3.118,3.1659,3.3178,3.4211,3.4831,3.5818,3.6277,3.6277,3.6277,3.6507,3.6943,3.7448,3.7976,3.8504,3.8987,0.0,0.0,0.0,0.0,0.0,0.0,0.0,0.0,3.3817,3.3593,3.268,3.3428,0.0,0.0,0.0,0.0,0.0,3.5999,3.6201,3.6201,3.6201,3.6201,3.6201,3.6201,3.6201,3.6201,3.6201,3.6201,3.6887,3.9498,4.1279,4.3047,0.0,0.0,0.0,0.0,0.0,0.0,0.0,0.0,0.0,0.0,0.0,0.0,0.0,0.0,0.0,0.0,0.0,0.0,4.84,4.84,4.84,4.84,4.84,4.84,4.84,4.84,4.84,4.84,4.8667,4.8896,0.0,0.0,5.0204,4.9339,5.0232,4.9892,4.8569,4.7933,4.7453,4.7293,4.6509,4.6347,4.6347,0.0,0.0,0.0,0.0,0.0,0.0,0.0,0.0,0.0,0.0,0.0,0.0,0.0,0.0,0.0,0.0,0.0,0.0,0.0,2.8445,2.8817,2.9117,2.9095,2.9301,2.9485,3.0466,3.1155,3.1371,3.317,3.428,3.4831,3.5818,3.6277,3.6277,3.6277,3.6553,3.7058,3.7563,3.8091,3.8619,0.0,0.0,0.0,0.0,0.0,0.0,0.0,0.0,0.0,0.0,3.2767,3.2661,3.3101,0.0,0.0,0.0,0.0,0.0,3.5999,3.6201,3.6349,3.7217,3.7492,3.7492,3.7492,3.7492,3.7492,3.7492,3.7492,3.8476,4.1833,0.0,4.4387,4.6837,0.0,0.0,0.0,0.0,0.0,0.0,0.0,0.0,0.0,0.0,0.0,0.0,0.0,0.0,0.0,0.0,0.0,0.0,4.84,4.84,4.84,4.84,4.84,4.84,4.84,4.8538,4.8791,4.9296,4.9847,5.0421,0.0,5.1551,5.0879,5.1333,5.0749,4.9516,4.9179,4.8389,4.7432,4.667,4.6347,4.6347,0.0,0.0,0.0,0.0,0.0,0.0,0.0,0.0,0.0,0.0,0.0,0.0,0.0,0.0,0.0,0.0,0.0,0.0,0.0,2.891,2.9187,2.9485,2.9577,2.9669,2.9669,3.0673,3.1244,3.1337,3.3229,3.4509,3.5152,3.591,3.6277,3.6277,3.6392,3.6736,3.7242,3.777,3.8275,3.878,0.0,0.0,0.0,0.0,0.0,0.0,0.0,0.0,0.0,0.0,0.0,0.0,0.0,0.0,0.0,3.4788,3.5027,3.521,3.5999,3.6201,3.6645,3.8078,3.8224,3.8224,3.8932,3.8787,3.8661,3.8932,3.9076,4.0205,4.3889,4.5124,0.0,0.0,0.0,0.0,0.0,0.0,0.0,0.0,0.0,0.0,0.0,0.0,0.0,0.0,0.0,0.0,0.0,0.0,0.0,0.0,4.84,4.84,4.84,4.84,4.84,4.84,4.8515,4.8814,4.9319,4.9962,5.0765,5.1638,5.2258,5.2395,5.2189,5.2304,5.1647,5.0455,5.0121,4.9022,4.7453,4.6811,4.6509,4.6347,0.0,0.0,0.0,0.0,0.0,0.0,0.0,0.0,0.0,0.0,0.0,0.0,0.0,0.0,0.0,0.0,0.0,0.0,0.0,2.9555,2.9943,2.9485,2.9943,3.0125,3.0125,3.118,3.1938,3.242,3.3981,3.5221,3.6162,3.6231,3.6277,3.63,3.6782,3.7265,3.777,3.8298,3.8803,3.9262,3.9285,0.0,0.0,0.0,0.0,0.0,0.0,0.0,0.0,0.0,0.0,0.0,0.0,0.0,3.3982,3.4788,3.5027,3.521,3.5999,3.6201,3.6645,3.8078,3.7345,3.707,3.9941,3.951,3.8932,4.0371,4.0657,0.0,0.0,4.6591,0.0,0.0,0.0,0.0,0.0,0.0,0.0,0.0,0.0,0.0,0.0,0.0,0.0,0.0,0.0,0.0,0.0,0.0,0.0,0.0,0.0,4.84,4.84,4.84,4.84,4.84,4.8837,4.9342,4.9893,5.088,5.1615,5.2189,5.3153,5.3061,5.2212,5.2648,5.2281,5.1254,5.0455,4.9022,4.7592,4.7613,4.6972,4.6347,0.0,0.0,0.0,0.0,0.0,0.0,0.0,0.0,0.0,0.0,0.0,2.7715,2.7715,0.0,0.0,0.0,0.0,0.0,2.9209,2.9852,3.0125,2.9943,3.0125,3.0376,3.0698,3.1387,3.1984,3.2489,3.4349,3.5588,3.6277,3.6277,3.6438,3.6759,3.6943,3.7494,3.8298,3.8504,3.8872,3.9308,3.9308,3.8812,0.0,0.0,0.0,0.0,0.0,0.0,0.0,0.0,3.2899,3.2661,3.3101,3.3505,3.3982,3.4788,3.5027,3.521,3.5999,3.6922,3.7786,3.837,3.8787,3.9365,4.0514,4.0371,4.0371,4.1954,4.2236,0.0,0.0,0.0,0.0,0.0,0.0,0.0,0.0,0.0,0.0,0.0,0.0,0.0,0.0,0.0,0.0,0.0,0.0,0.0,0.0,0.0,0.0,0.0,0.0,4.84,4.84,4.84,4.8538,4.8837,4.9365,4.987,5.0398,5.173,5.2625,5.3153,5.3842,5.3566,5.2648,5.2832,5.2327,5.1254,5.0455,4.9337,4.841,4.7773,4.6972,4.6347,0.0,0.0,0.0,0.0,0.0,0.0,0.0,0.0,2.8092,0.0,0.0,0.0,0.0,2.8746,0.0,0.0,0.0,0.0,2.976,3.0034,3.0216,3.0216,3.0216,3.0468,3.0996,3.1662,3.2305,3.2971,3.4831,3.5933,3.6277,3.6438,3.6691,3.7058,3.7379,3.793,3.8596,3.8757,3.901,3.9308,3.9308,3.8789,0.0,0.0,0.0,0.0,0.0,0.0,0.0,0.0,3.3387,3.3215,3.3366,3.3596,3.3982,3.4788,3.5296,3.5893,3.6698,3.8078,3.9221,3.9221,4.0085,4.0942,4.1389,4.153,4.1954,4.3514,4.4058,4.49,4.6607,0.0,0.0,0.0,0.0,0.0,0.0,0.0,0.0,0.0,0.0,0.0,0.0,0.0,0.0,0.0,0.0,0.0,0.0,0.0,0.0,0.0,0.0,0.0,4.84,4.84,4.863,4.9112,4.9985,5.065,5.1156,5.2533,5.3429,5.3934,5.4278,5.3842,5.2901,5.2901,5.2327,5.1277,5.0766,4.9987,4.9201,4.8251,4.7453,4.6649,0.0,0.0,0.0,0.0,0.0,0.0,0.0,0.0,2.8164,2.8631,2.8258,0.0,0.0,0.0,0.0,0.0,0.0,0.0,3.0216,3.0216,3.0216,3.0216,3.0216,3.0468,3.1019,3.2007,3.3017,3.4004,3.552,3.6277,3.6277,3.6782,3.7035,3.7081,3.8114,3.8596,3.8619,3.9101,3.9308,3.9308,3.9308,3.9308,3.9308,0.0,0.0,0.0,0.0,0.0,0.0,0.0,3.3501,3.458,3.3954,3.3817,3.3982,3.4788,3.6114,3.7543,3.8262,3.9654,4.08,4.08,4.08,4.1226,4.2818,4.3097,4.3514,4.5074,4.6173,4.6885,4.6885,0.0,0.0,0.0,0.0,0.0,0.0,0.0,0.0,0.0,0.0,0.0,0.0,0.0,0.0,0.0,0.0,0.0,0.0,0.0,0.0,0.0,0.0,0.0,4.84,4.84,4.863,4.9135,5.0696,5.1684,5.2212,5.3245,5.3957,5.4416,5.4416,5.3842,5.2901,5.2878,5.2304,5.1431,5.1431,5.0944,4.9964,4.9201,4.841,4.7453,0.0,0.0,0.0,0.0,0.0,0.0,0.0,0.0,2.9117,2.9209,2.9117,0.0,0.0,0.0,0.0,0.0,0.0,0.0,2.976,3.0034,3.0216,3.0216,3.0216,3.079,3.203,3.3729,3.4762,3.506,3.5887,3.6277,3.6277,3.6782,3.7219,3.7586,3.8275,3.878,3.9101,3.9239,3.9308,3.9308,3.9308,3.9308,3.9308,0.0,0.0,0.0,0.0,0.0,0.0,0.0,0.0,0.0,3.551,3.5295,3.5448,3.6291,3.6945,3.7685,3.9555,4.1226,4.2095,4.1084,4.2376,4.393,4.3236,4.3097,4.3514,0.0,4.6173,4.6885,4.6885,0.0,0.0,0.0,0.0,0.0,0.0,0.0,0.0,0.0,0.0,0.0,0.0,0.0,0.0,0.0,0.0,0.0,0.0,0.0,0.0,0.0,0.0,0.0,4.84,4.84,4.8814,4.9686,5.0857,5.1684,5.2235,5.3589,5.4278,5.4416,5.4416,5.3842,5.2855,5.2143,5.1684,5.1431,5.1431,5.0944,5.0121,4.9808,4.8864,4.7613,0.0,0.0,0.0,0.0,0.0,0.0,3.0374,2.9852,2.9485,2.9485,2.9485,2.9577,0.0,0.0,0.0,2.976,3.0034,0.0,2.976,3.0034,3.0216,3.0216,3.0422,3.1341,3.304,3.4693,3.5611,3.5818,3.6117,3.6369,3.6576,3.7104,3.7609,3.8137,3.8642,3.9033,3.9308,3.9308,3.9308,3.9308,3.9308,3.9308,3.9308,0.0,0.0,0.0,0.0,0.0,0.0,0.0,0.0,0.0,3.7145,3.6869,3.7149,3.7966,3.8726,3.9708,4.132,4.2796,4.3791,4.2796,4.4068,4.521,4.4228,0.0,0.0,0.0,4.6173,4.6885,4.6885,0.0,0.0,0.0,0.0,0.0,0.0,0.0,0.0,0.0,0.0,0.0,0.0,0.0,0.0,0.0,0.0,0.0,0.0,0.0,0.0,0.0,0.0,0.0,4.84,4.84,4.8905,4.9916,5.0719,5.1592,5.251,5.3819,5.4416,5.4393,5.398,5.3452,5.2809,5.1821,5.1431,5.1431,5.1431,5.1099,5.0611,5.0277,4.9494,4.8547,0.0,0.0,3.2476,3.2302,0.0,0.0,3.0554,2.992,2.9577,2.9577,2.9577,2.976,0.0,0.0,0.0,3.0216,3.0216,3.0216,3.0216,3.0216,3.0216,3.0216,3.0859,3.2121,3.4027,3.506,3.5818,3.6277,3.6323,3.6576,3.7058,3.7609,3.8114,3.8596,3.9078,3.9308,3.9308,3.9308,3.9308,3.9308,3.9308,3.9308,3.9308,3.9354,0.0,0.0,0.0,0.0,0.0,0.0,0.0,0.0,3.8603,3.8645,3.9125,3.9426,4.1006,4.2601,4.3105,4.4366,4.537,4.537,4.537,0.0,4.537,4.537,4.537,4.5415,0.0,4.6885,0.0,0.0,0.0,0.0,0.0,0.0,0.0,0.0,0.0,0.0,0.0,0.0,0.0,0.0,0.0,0.0,0.0,0.0,0.0,0.0,0.0,0.0,0.0,0.0,4.84,4.84,4.8905,0.0,5.0398,5.1431,5.2924,5.3911,5.437,5.4347,5.3337,5.2901,5.2809,5.1821,5.1431,5.1431,5.1431,5.1431,5.1254,5.0455,5.0121,4.9808,0.0,0.0,3.3615,3.2476,0.0,0.0,3.0464,3.0125,3.0034,3.0034,3.0034,3.0125,3.0216,3.0216,0.0,3.0216,3.0216,3.0216,3.0216,3.0216,3.0216,3.0216,3.1869,3.3384,3.4601,3.5588,3.6162,3.6277,3.6668,3.692,3.7058,3.7976,3.8481,3.8596,3.9078,3.9308,3.9308,3.9308,3.9308,3.9308,3.9308,3.9308,3.9354,3.9744,3.9882,0.0,0.0,0.0,0.0,0.0,0.0,0.0,4.017,4.0126,4.0601,4.1077,4.1847,4.2875,4.4505,4.521,4.537,4.537,4.537,4.537,4.537,4.537,4.5461,4.5875,4.6449,0.0,0.0,0.0,0.0,0.0,0.0,0.0,0.0,0.0,0.0,0.0,0.0,0.0,0.0,0.0,0.0,0.0,0.0,0.0,0.0,0.0,0.0,0.0,0.0,4.84,4.84,4.84,4.8905,0.0,5.0398,5.1431,5.2924,5.3566,5.4049,5.4347,5.3337,5.2901,5.2809,5.1821,5.1431,5.1431,5.1431,5.1431,5.1431,5.1254,5.0611,4.9964,0.0,0.0,0.0,0.0,0.0,0.0,0.0,0.0,3.0514,3.0239,3.0216,3.0216,3.0216,3.0216,0.0,0.0,3.0216,3.0216,3.0216,3.0216,3.0537,3.1272,3.304,3.4372,3.5129,3.5887,3.6392,3.6645,3.715,3.7402,3.7402,3.8206,3.8711,3.8941,3.9193,3.9308,3.9308,3.9308,3.9308,3.9331,3.9561,3.9652,3.9721,4.0226,4.0433,4.0479,4.1007,0.0,0.0,0.0,0.0,0.0,0.0,0.0,4.2749,4.3018,4.3444,4.4165,4.5142,4.537,4.537,4.537,0.0,4.537,4.537,4.537,4.5576,4.6334,0.0,0.0,0.0,0.0,0.0,0.0,0.0,0.0,0.0,0.0,0.0,0.0,0.0,0.0,0.0,0.0,0.0,0.0,0.0,0.0,0.0,0.0,0.0,0.0,4.84,4.84,4.84,4.84,4.8905,4.9916,5.0168,5.1201,5.2924,5.3681,5.4186,5.4347,5.3337,5.2901,5.2809,5.1821,5.1431,5.1431,5.1431,5.1431,5.1431,5.1431,5.1099,5.0611,0.0,0.0,0.0,0.0,0.0,0.0,0.0,0.0,0.0,3.0466,3.0306,3.0216,3.0216,3.0216,3.0216,0.0,0.0,0.0,3.0216,3.0376,3.1203,3.281,3.4119,3.506,3.5634,3.614,3.6622,3.7035,3.7632,3.793,3.793,3.8459,3.8918,3.9308,3.9308,3.9308,3.9308,3.9308,3.9354,3.9469,3.9882,4.0112,4.0249,4.0755,4.0961,4.1007,4.1535,4.1696,4.1788,4.2293,0.0,0.0,0.0,0.0,4.4612,4.4612,4.4956,4.537,4.537,4.537,4.537,4.537,4.537,0.0,4.537,4.5415,4.576,0.0,0.0,0.0,0.0,0.0,0.0,0.0,0.0,0.0,0.0,0.0,0.0,0.0,0.0,0.0,0.0,0.0,0.0,0.0,0.0,0.0,0.0,0.0,4.84,4.84,4.84,4.84,4.84,4.84,4.8905,4.9916,5.0168,5.1201,5.2924,5.3865,5.4324,5.437,5.3429,5.2992,5.2832,5.1936,5.15,5.1431,5.1431,5.1431,5.1431,5.1431,5.1431,5.1277,0.0,0.0,0.0,0.0,0.0,0.0,0.0,0.0,0.0,0.0,3.0578,3.0216,3.0216,3.0216,3.0216,3.0216,3.0216,3.0216,3.0216,0.0,0.0,3.4395,3.4693,3.5244,3.614,3.6668,3.6966,3.7035,3.7999,3.8481,3.8481,3.8987,3.9239,3.9308,3.9308,3.9308,3.9308,3.9308,3.9561,3.9951,4.002,4.0318,4.0778,4.1283,4.1466,4.1535,4.204,4.2224,4.2316,4.2821,4.3028,0.0,0.0,0.0,4.4612,4.4612,4.4956,4.537,4.537,4.537,4.537,0.0,4.537,4.537,0.0,0.0,4.6173,0.0,0.0,0.0,0.0,0.0,0.0,0.0,0.0,0.0,0.0,0.0,0.0,0.0,0.0,0.0,0.0,0.0,0.0,0.0,0.0,0.0,0.0,4.84,4.84,4.84,4.84,4.84,4.84,4.84,4.8905,4.9916,5.1247,5.2235,5.2924,5.352,5.4026,5.4393,5.3819,5.3314,5.2855,5.2304,5.1821,5.1431,5.1431,5.1431,5.1431,5.1431,5.1431,5.1277,0.0,0.0,0.0,0.0,0.0,0.0,0.0,0.0,0.0,0.0,0.0,3.0668,3.0216,3.0216,3.0216,3.0216,3.0744,3.1318,3.1892,3.2879,3.3866,3.4762,3.5336,3.5956,3.6691,3.692,3.7311,3.7907,3.8367,3.8711,3.8987,3.9193,3.9308,3.9308,3.9308,3.9308,3.9331,3.9607,3.9859,4.0112,4.0686,4.103,4.1306,4.1811,4.1994,4.2063,4.2568,4.2752,4.2821,4.3326,4.3693,4.3969,4.4176,0.0,0.0,0.0,4.5186,4.537,4.537,4.537,4.537,0.0,4.537,4.5438,4.5714,0.0,0.0,0.0,0.0,0.0,0.0,0.0,0.0,0.0,0.0,0.0,0.0,0.0,0.0,0.0,0.0,0.0,0.0,0.0,0.0,0.0,0.0,0.0,4.84,4.84,4.84,4.84,4.84,4.84,4.84,4.84,4.8905,4.9939,5.1454,5.2281,5.251,5.3337,5.3957,5.4393,5.3911,5.3383,5.2855,5.2372,5.1867,5.1431,5.1431,5.1431,5.1431,5.1431,5.1431,5.1431,0.0,0.0,0.0,0.0,0.0,0.0,0.0,0.0,0.0,0.0,0.0,3.1163,3.0649,0.0,0.0,0.0,3.1616,3.2581,3.3614,3.4372,3.49,3.5152,3.6002,3.6645,3.7035,3.7288,3.7816,3.8596,3.8711,3.8964,3.9308,3.9308,3.9308,3.9308,3.9308,3.9377,3.9515,3.9905,4.0203,4.0502,4.126,4.165,4.1811,4.2201,4.2408,4.2568,4.2959,4.3165,4.3349,4.3854,4.4267,4.4635,4.475,4.5048,0.0,0.0,0.0,4.537,4.537,4.537,4.537,4.537,4.5461,4.5645,0.0,0.0,0.0,0.0,0.0,0.0,0.0,0.0,0.0,0.0,0.0,0.0,0.0,0.0,0.0,0.0,0.0,0.0,0.0,0.0,0.0,0.0,0.0,0.0,4.84,4.84,4.84,4.84,4.84,4.84,4.84,4.8515,4.902,4.9916,5.1179,5.1913,5.2212,5.2969,5.3635,5.4209,5.398,5.3589,5.3061,5.2556,5.2074,5.1615,5.1477,5.1431,5.1431,5.1431,5.1431,5.1431,0.0,0.0,0.0,0.0,0.0,0.0,0.0,0.0,0.0,0.0,0.0,3.1484,3.1869,3.1739,3.1869,3.2328,3.2879,3.3637,3.4647,3.4762,3.5221,3.6162,3.6714,0.0,3.7035,3.7999,3.8527,3.8596,3.9055,3.9285,3.9308,3.9308,3.9308,3.9308,3.9308,3.9561,4.002,4.0043,4.0617,4.1512,4.1558,4.1857,4.2293,4.2339,4.2637,4.3051,4.3074,4.3395,4.3854,4.4382,4.4589,4.4681,4.5163,4.5347,4.537,0.0,0.0,0.0,4.537,4.537,4.537,4.537,4.5714,4.6081,0.0,0.0,0.0,0.0,0.0,0.0,0.0,0.0,0.0,0.0,0.0,0.0,0.0,0.0,0.0,0.0,0.0,0.0,0.0,0.0,0.0,0.0,0.0,0.0,4.84,4.84,4.84,4.84,4.84,4.84,4.84,4.8837,4.9365,4.9916,5.0444,5.1224,5.2189,5.2235,5.2786,5.375,5.4186,5.4094,5.3612,5.3084,5.2579,5.2097,5.1615,5.1431,5.1431,5.1431,5.1431,5.1431,0.0,0.0,0.0,0.0,0.0,0.0,0.0,0.0,0.0,0.0,0.0,0.0,0.0,3.3362,3.3375,3.307,3.3775,3.4693,3.568,3.6048,3.6392,3.6736,3.7242,3.7678,3.8022,3.839,3.8734,3.9055,3.9216,3.9308,3.9308,3.9308,3.9469,3.979,3.979,3.9882,4.0089,4.0755,4.1237,4.1604,4.1926,4.2178,4.2385,4.2706,4.2936,4.3165,4.3831,0.0,4.4405,4.491,4.5094,4.5117,4.5301,4.537,4.537,4.537,4.537,4.537,4.537,4.537,4.5438,4.576,4.5989,4.6288,4.6954,0.0,0.0,0.0,0.0,0.0,0.0,0.0,0.0,0.0,0.0,0.0,0.0,0.0,0.0,0.0,0.0,0.0,0.0,0.0,0.0,0.0,0.0,0.0,4.84,4.84,4.84,4.84,4.84,4.84,4.84,4.886,4.9388,4.9916,5.0398,5.0995,5.1707,5.2028,5.2372,5.2763,5.3589,5.3865,5.3681,5.3475,5.2924,5.2166,5.1982,5.1707,5.1431,5.1431,5.1431,5.1431,0.0,0.0,0.0,3.4972,0.0,3.5103,3.5495,3.573,3.5817,3.5737,0.0,0.0,0.0,0.0,3.5274,3.4746,3.5271,3.5818,3.6484,3.7012,3.7288,3.7288,3.777,3.8229,3.8573,3.8596,3.8826,3.9308,3.9147,3.9147,3.9308,3.9469,3.9744,4.0066,4.041,4.0571,4.0617,4.1283,4.1673,4.1857,4.2201,4.2431,4.2614,4.2959,4.3303,4.3693,0.0,0.0,4.491,4.5255,4.537,4.537,4.537,4.537,4.537,4.537,4.5484,4.5622,4.5622,4.5737,4.5944,4.6288,4.6495,4.6816,4.7482,0.0,0.0,0.0,0.0,0.0,0.0,0.0,0.0,0.0,0.0,0.0,0.0,0.0,0.0,0.0,0.0,0.0,0.0,0.0,0.0,0.0,0.0,0.0,4.84,4.84,4.84,4.84,4.84,4.84,4.84,4.8699,4.9227,4.9916,5.0237,5.0742,5.1431,5.1775,5.2028,5.2212,5.2901,5.3383,5.3704,5.3704,5.3199,5.2395,5.2235,5.1867,5.1431,5.1431,5.1431,5.1431,3.5992,3.6096,3.6123,3.6123,3.6123,3.6149,3.6175,3.6671,3.7063,3.7063,0.0,0.0,0.0,0.0,0.0,3.7583,3.7286,3.7058,3.7058,3.7517,3.7816,3.7816,3.8321,3.8596,3.8596,3.8596,3.8826,3.9308,3.8826,3.8849,3.9331,3.9836,4.0066,4.0135,4.1122,4.1581,4.1604,4.1604,4.1903,4.2362,4.2362,4.266,4.3119,4.3119,4.3739,4.4612,4.4612,4.4933,0.0,4.537,4.537,4.537,4.537,4.537,4.537,4.537,4.5737,4.615,0.0,0.0,0.0,4.6885,0.0,0.0,4.7666,0.0,0.0,0.0,0.0,0.0,0.0,0.0,0.0,0.0,0.0,0.0,0.0,0.0,0.0,0.0,0.0,0.0,0.0,0.0,0.0,0.0,0.0,4.84,4.84,4.84,4.84,4.84,4.84,4.84,4.84,4.84,4.8905,4.9916,4.9916,5.0444,5.1431,5.1431,5.1684,5.2166,5.2166,5.274,5.3658,5.3681,5.3383,5.2878,5.2395,5.189,5.1454,5.1431,5.1431,5.1431,3.607,3.6096,3.6253,3.6671,3.675,3.7037,3.7874,3.8135,3.8397,0.0,0.0,0.0,3.8812,3.8888,3.9234,3.9658,3.9552,3.9516,3.9516,3.9379,3.9349,3.9349,3.9175,3.9101,3.9101,3.9101,3.917,3.9308,3.917,3.9354,3.9859,3.9997,4.0456,4.1168,4.1443,4.1788,4.2132,4.2132,4.2408,4.289,4.289,4.3165,4.3648,4.4038,4.4359,4.4658,0.0,4.5232,4.537,0.0,4.537,4.537,4.537,4.5622,4.5921,4.5921,4.6265,4.6655,4.6655,0.0,0.0,0.0,0.0,0.0,4.8102,4.8286,0.0,0.0,0.0,0.0,0.0,0.0,0.0,0.0,0.0,0.0,0.0,0.0,0.0,0.0,0.0,0.0,0.0,0.0,0.0,0.0,4.84,4.84,4.84,4.84,4.84,4.84,4.84,4.84,4.84,4.84,4.8905,4.9916,4.9916,5.0444,5.1431,5.1431,5.15,5.1661,5.2028,5.2327,5.2648,5.3383,5.3612,5.3429,5.2901,5.2395,5.1913,5.1569,5.1431,5.1431,3.7482,3.756,3.7665,3.8031,3.8083,3.8318,3.8972,3.9285,3.9651,0.0,0.0,0.0,4.0848,4.0635,4.0739,4.1039,4.0938,4.0868,4.0868,4.0491,4.0235,4.0235,3.9593,3.9308,3.9308,3.9101,3.9101,3.9308,3.9308,3.9561,4.0066,4.0479,4.1007,4.1581,4.1788,4.2178,4.266,4.266,4.2821,4.3119,4.3822,0.0,0.0,4.562,4.5747,4.5605,0.0,0.0,4.537,4.537,4.537,0.0,0.0,4.5875,4.615,4.638,4.6793,4.7183,4.7183,4.7344,4.7574,4.7872,0.0,0.0,4.8331,4.84,4.84,0.0,0.0,0.0,0.0,0.0,0.0,0.0,0.0,0.0,0.0,0.0,0.0,0.0,0.0,0.0,0.0,0.0,0.0,0.0,4.84,4.84,4.84,4.84,4.84,4.84,4.84,4.84,4.84,4.84,4.8791,4.9571,4.9801,5.0329,5.1087,5.1316,5.1431,5.1431,5.173,5.1982,5.2235,5.2809,5.3176,5.3314,5.2786,5.2418,5.212,5.1615,5.1431,5.1431,0.0,3.9599,3.9625,3.9677,3.9756,3.9808,3.9886,4.0357,4.0906,0.0,4.1951,4.2474,4.3049,4.2471,4.2072,4.2123,4.1823,4.1682,4.1682,4.1225,4.1033,4.1033,4.0106,3.9521,3.9426,3.9058,3.9081,3.9377,3.9446,3.9721,4.0249,4.1145,4.1627,4.1765,4.2224,4.2706,4.3165,4.3234,4.3387,4.3669,4.5019,4.5776,0.0,0.0,4.7409,4.6941,4.6941,4.6271,4.537,4.537,4.5393,0.0,0.0,0.0,4.638,4.6839,4.7321,4.7734,4.7734,4.8056,4.84,4.84,4.84,0.0,4.84,4.84,4.84,0.0,0.0,0.0,0.0,0.0,0.0,0.0,0.0,0.0,0.0,0.0,0.0,0.0,0.0,0.0,0.0,4.84,4.84,4.84,4.84,4.84,4.84,4.84,4.84,4.84,4.84,4.84,4.84,4.84,4.863,4.9112,4.9663,5.0168,5.065,5.1179,5.1431,5.1431,5.1431,5.1684,5.2097,5.2097,5.2418,5.2855,5.2418,5.2235,5.212,5.1684,5.1477,5.1431,3.9573,3.9599,3.9756,4.0174,4.0671,4.1141,4.1585,4.216,4.2552,4.2683,4.2788,4.3075,4.365,4.3596,4.3672,4.4141,4.4054,4.3997,4.3997,4.333,4.2824,4.2824,4.2037,4.1124,4.0455,4.0739,4.048,3.9905,4.0318,4.0778,4.1283,4.1489,4.2017,4.2798,4.289,4.3211,4.3693,4.413,0.0,4.6295,4.6073,0.0,4.6908,4.7938,4.7749,4.6941,4.6941,4.6271,4.537,4.537,4.5622,4.5989,0.0,0.0,0.0,4.7459,4.7849,4.824,4.824,4.8308,0.0,0.0,0.0,0.0,4.84,4.84,4.84,0.0,0.0,0.0,0.0,0.0,0.0,0.0,0.0,0.0,0.0,0.0,0.0,0.0,0.0,0.0,0.0,4.84,4.84,4.84,4.84,4.84,4.84,4.84,4.84,4.84,4.84,4.84,4.84,4.84,4.863,4.9112,4.9663,5.0168,5.065,5.1179,5.1431,5.1431,5.1431,5.1477,5.1569,5.1569,5.2097,5.2878,5.2786,5.251,5.2166,5.2074,5.1775,5.1431,4.0409,4.0697,4.0958,4.1246,4.1768,4.2265,4.2552,4.284,4.3127,4.3415,4.3702,4.399,4.4278,4.4304,4.4408,4.4696,4.4722,4.4722,4.4722,4.3848,4.3381,4.3381,4.2282,4.174,4.1765,4.1803,4.1828,4.1971,4.2375,4.2512,4.228,4.2818,4.3584,4.4309,4.4208,4.4736,4.5468,4.538,4.5771,4.6381,4.704,0.0,4.9464,4.99,4.9643,4.8868,4.8632,4.7846,4.6965,4.6576,4.6697,0.0,0.0,4.7229,4.7689,0.0,4.8194,4.84,0.0,0.0,0.0,4.84,0.0,0.0,0.0,4.84,4.84,0.0,0.0,0.0,0.0,0.0,0.0,0.0,0.0,0.0,0.0,0.0,0.0,0.0,0.0,0.0,0.0,4.84,4.84,4.84,4.84,4.84,4.84,4.84,4.84,4.84,4.84,4.84,4.84,4.84,4.8515,4.8768,4.9548,5.0031,5.0306,5.1064,5.1431,5.1431,5.1431,5.1431,5.1431,5.1431,5.173,5.2166,5.2166,5.2166,5.2143,5.189,5.1638,5.1431,4.1559,4.2004,4.2317,4.2317,4.2814,4.318,4.318,4.3284,4.352,4.399,4.4542,4.483,4.483,4.4938,4.5046,4.5046,4.5046,4.4991,4.5096,4.4332,4.3917,4.4045,4.2979,4.2647,4.3367,4.3065,4.3333,4.3924,4.447,4.4281,4.3303,4.4529,4.5261,4.5712,4.5917,4.6424,4.7012,4.6669,0.0,4.6516,0.0,4.9746,5.1367,5.157,5.132,5.079,5.018,4.9456,4.8616,4.8353,0.0,4.8041,4.7911,4.7832,0.0,0.0,0.0,0.0,0.0,0.0,0.0,0.0,0.0,4.84,0.0,0.0,0.0,0.0,0.0,0.0,0.0,0.0,0.0,0.0,0.0,0.0,0.0,0.0,0.0,0.0,0.0,0.0,0.0,4.84,4.84,4.84,4.84,4.84,4.84,4.84,4.84,4.84,4.84,4.84,4.84,4.84,4.84,4.84,4.9319,4.9801,4.9939,5.0857,5.1339,5.1431,5.1431,5.1431,5.1431,5.1431,5.1431,5.1431,5.1523,5.1753,5.2005,5.1684,5.15,5.1431,4.2814,4.2892,4.2918,4.2918,4.3389,4.3781,4.3781,4.4199,4.4565,4.4617,4.5127,4.5502,4.5502,4.5901,4.6218,4.6218,4.6218,4.6222,4.6328,4.6111,4.613,4.6152,4.5979,4.5551,4.4839,4.5304,4.511,4.4372,4.5404,4.54,4.442,4.6008,4.6543,4.6227,4.7646,4.7838,4.6979,4.7437,4.846,0.0,4.949,4.9127,0.0,5.0942,5.0968,5.0129,4.97,4.9347,4.9288,0.0,4.9527,4.9129,0.0,4.8777,4.8308,0.0,0.0,0.0,0.0,0.0,0.0,0.0,4.84,0.0,0.0,0.0,0.0,0.0,0.0,0.0,0.0,0.0,0.0,0.0,0.0,0.0,0.0,0.0,0.0,0.0,0.0,0.0,0.0,0.0,4.84,4.84,4.84,4.84,4.84,4.84,4.84,4.84,4.84,4.84,4.84,4.84,4.84,4.84,4.8928,4.9457,4.9939,5.0467,5.0972,5.1431,5.1431,5.1431,5.1431,5.1431,5.1431,5.1477,5.1913,5.1844,5.1569,5.1959,5.1798,5.1431,4.3154,4.3284,4.352,4.352,4.399,4.4356,4.4356,4.4565,4.4722,4.4722,4.5261,4.5715,4.6061,4.6651,0.0,4.7459,0.0,4.7379,0.0,0.0,4.6853,4.6473,4.6332,4.6257,4.6372,4.6662,4.7002,4.7121,4.7911,4.7778,4.6785,4.7858,4.8359,4.8686,4.9621,5.0002,4.9824,0.0,5.0308,0.0,0.0,0.0,0.0,5.1819,5.2181,5.2119,5.2328,5.2386,5.2362,0.0,5.2043,0.0,0.0,0.0,0.0,0.0,0.0,0.0,0.0,0.0,0.0,0.0,0.0,0.0,4.84,0.0,4.84,0.0,0.0,0.0,0.0,0.0,0.0,0.0,0.0,0.0,0.0,0.0,0.0,0.0,0.0,0.0,0.0,0.0,0.0,0.0,0.0,4.84,4.84,4.84,4.84,4.84,4.84,4.84,4.84,4.84,4.84,4.84,4.8882,4.9388,4.9916,5.0398,5.0926,5.1431,5.1431,5.1431,5.1431,5.1431,5.1431,5.1454,5.1661,5.1615,5.1454,5.1661,5.1615,5.1431,4.365,4.3833,4.4095,4.4095,4.446,4.4722,4.4722,4.4961,4.5175,4.5175,4.5982,4.6786,4.719,4.7809,0.0,0.0,4.8788,4.8627,0.0,0.0,4.7882,4.7483,4.7351,4.7548,4.8037,4.8392,4.879,4.9296,4.9871,4.9619,4.8632,4.9441,4.9948,5.0322,5.1112,5.1518,5.1741,0.0,5.1714,5.119,5.2147,5.2828,5.3209,5.3128,5.3449,5.411,5.477,5.4997,5.4948,5.5226,5.4209,0.0,5.1803,0.0,0.0,0.0,0.0,0.0,4.84,0.0,0.0,0.0,0.0,0.0,0.0,0.0,0.0,0.0,0.0,0.0,0.0,0.0,4.8423,4.8561,0.0,0.0,0.0,0.0,0.0,0.0,0.0,0.0,0.0,0.0,0.0,0.0,4.84,4.84,4.84,4.84,4.84,4.84,4.84,4.84,4.84,4.84,4.84,4.84,4.8745,4.9273,4.9916,5.026,5.0788,5.1431,5.1431,5.1431,5.1431,5.1431,5.1431,5.1431,5.1431,5.1431,5.1431,5.1431,5.1431,5.1431,4.4886,4.4696,4.4696,4.4696,4.4722,4.4722,4.4722,4.5629,4.6434,4.6434,0.0,0.0,0.0,0.0,0.0,0.0,0.0,4.9895,4.9939,0.0,4.9913,4.9928,5.0411,5.0505,0.0,5.051,5.0472,4.9871,5.0472,5.024,4.9241,5.0783,5.1068,5.0155,5.1819,5.1944,5.1016,5.1741,5.2359,5.3025,5.3589,5.4828,5.6114,0.0,5.4813,5.541,5.598,0.0,0.0,5.6902,5.5867,0.0,0.0,0.0,0.0,0.0,0.0,0.0,0.0,0.0,0.0,4.84,0.0,0.0,0.0,0.0,4.84,0.0,0.0,0.0,0.0,4.84,4.8538,4.8997,4.8699,0.0,0.0,0.0,0.0,0.0,0.0,0.0,0.0,0.0,0.0,4.84,4.84,4.84,4.84,4.84,4.84,4.84,4.84,4.84,4.84,4.84,4.84,4.84,4.84,4.8928,4.9916,4.9916,5.0467,5.1431,5.1431,5.1431,5.1431,5.1431,5.1431,5.1431,5.1431,5.1431,5.1431,5.1431,5.1431,5.1431,4.6437,4.6518,4.6277,4.5448,4.5578,4.6193,4.6919,4.7487,0.0,0.0,0.0,0.0,0.0,0.0,5.0719,0.0,0.0,5.1204,5.1155,5.1182,0.0,0.0,0.0,5.1502,0.0,5.1836,5.1776,5.1081,5.1663,5.1557,5.0809,5.1367,5.1471,5.1094,5.2094,5.2588,0.0,0.0,0.0,0.0,0.0,5.6771,5.7545,0.0,0.0,5.6734,5.7453,5.7535,0.0,5.8242,5.7505,5.6052,5.4942,5.3843,5.2504,5.0198,4.9509,0.0,0.0,0.0,4.84,4.84,0.0,0.0,0.0,0.0,0.0,0.0,0.0,0.0,0.0,4.84,4.8446,4.8607,4.8492,4.8446,0.0,4.8492,0.0,0.0,0.0,0.0,0.0,0.0,0.0,4.84,4.84,4.84,0.0,4.84,4.84,4.84,4.84,4.84,4.84,4.84,4.84,4.84,4.84,4.8928,4.9916,4.9916,5.0467,5.1431,5.1431,5.1431,5.1431,5.1431,5.1431,5.1431,5.1431,5.1431,5.1431,5.1431,5.1431,5.1431,4.7487,4.7784,4.7648,4.6733,4.6867,4.7351,4.8192,0.0,0.0,0.0,4.9608,0.0,5.0571,0.0,5.1674,0.0,5.2321,5.2519,5.2461,5.2489,0.0,5.2498,5.2718,0.0,0.0,5.3025,5.2848,5.2029,5.2402,5.2324,5.191,5.191,5.2014,5.2223,5.2978,5.36,5.4243,5.5359,5.6131,0.0,0.0,5.8081,0.0,0.0,5.8004,5.8091,0.0,5.8619,5.8578,5.908,5.8451,5.7275,5.5867,5.5207,5.4273,5.1837,5.0717,5.0316,4.9605,4.8933,0.0,0.0,4.84,0.0,4.84,0.0,0.0,0.0,0.0,0.0,0.0,0.0,4.84,4.84,4.84,4.84,0.0,4.84,4.84,4.84,0.0,0.0,0.0,0.0,4.84,4.84,4.84,4.84,0.0,0.0,4.84,4.84,4.84,4.84,4.84,4.84,4.84,4.84,4.84,4.8928,4.9916,4.9916,5.0467,5.1431,5.1431,5.1431,5.1431,5.1431,5.1431,5.1431,5.1431,5.1431,5.1431,5.1431,5.1431,5.1254,4.7918,4.8491,4.9086,4.8573,4.8437,0.0,0.0,0.0,5.0131,0.0,5.1123,5.1843,5.1871,5.2405,5.2742,5.2742,5.3304,0.0,5.3726,5.3726,0.0,0.0,5.4316,5.4394,5.3757,5.4221,5.3926,5.2765,5.2765,5.2713,5.2537,5.2664,5.2979,5.3529,5.4145,5.488,5.548,5.6129,5.6798,5.7519,5.8109,5.8699,5.9205,5.9205,0.0,5.9205,5.9205,5.9205,5.9205,5.9205,5.8829,5.7916,5.6156,5.5604,5.534,5.3462,5.2203,5.1345,5.123,4.9866,4.8523,4.8523,0.0,0.0,0.0,0.0,4.84,0.0,0.0,0.0,0.0,0.0,4.84,4.84,4.84,4.84,4.84,4.84,4.84,4.84,0.0,0.0,0.0,4.84,4.84,4.84,4.84,4.84,0.0,0.0,4.84,4.84,4.84,4.84,4.84,4.84,4.84,4.84,4.84,4.8928,4.9916,4.9916,5.0467,5.1431,5.1431,5.1431,5.1431,5.1431,5.1431,5.1431,5.1431,5.1431,5.1431,5.1431,5.1277,5.0944,5.0095,5.0568,5.1232,0.0,5.0791,5.0345,0.0,0.0,0.0,0.0,5.2266,5.2658,5.3135,5.3332,5.3416,5.3416,5.3585,0.0,0.0,0.0,0.0,5.5018,5.5187,5.5154,5.501,5.5178,0.0,5.4731,5.4731,5.4418,5.3906,5.4386,5.4467,5.4145,5.488,5.548,5.6129,5.6817,5.766,5.8755,5.8924,5.9064,0.0,0.0,5.9205,5.9205,5.9205,5.9205,5.9205,5.9205,5.908,5.8829,5.7788,5.7505,5.7119,5.534,5.4649,5.4113,5.2754,5.1394,5.0293,4.9771,4.9078,4.84,0.0,0.0,0.0,0.0,0.0,0.0,0.0,0.0,0.0,4.84,4.84,4.84,4.84,4.84,4.84,4.84,0.0,0.0,4.84,4.84,4.84,4.84,4.84,0.0,0.0,0.0,0.0,4.84,4.84,4.84,4.84,4.84,4.84,4.84,4.84,4.8928,4.9916,4.9916,5.0467,5.1431,5.1431,5.1431,5.1431,5.1431,5.1431,5.1431,5.1431,5.1431,5.1431,5.1431,4.9808,4.7688,5.1915,5.229,0.0,5.3079,0.0,0.0,5.2656,0.0,0.0,5.3079,5.3135,0.0,5.3641,5.3922,5.4063,5.4063,5.4316,0.0,5.4962,0.0,0.0,5.5496,5.5496,5.5496,5.5496,5.5496,0.0,5.5464,5.5464,5.5416,5.5256,5.5636,5.5772,5.5633,5.6015,5.6522,5.7176,5.7883,5.8494,5.9205,5.9205,0.0,0.0,5.9205,5.9205,5.9205,5.9205,5.9205,5.9205,5.9205,5.9205,5.908,5.8451,5.8451,5.8451,5.7092,5.626,5.5709,5.4649,5.2866,5.123,5.0717,4.9628,4.8691,4.84,4.84,4.84,0.0,0.0,0.0,0.0,0.0,0.0,4.84,4.84,4.84,0.0,0.0,0.0,0.0,4.84,0.0,4.84,4.84,4.84,4.84,0.0,0.0,0.0,0.0,0.0,4.84,4.84,4.84,4.84,4.84,4.84,4.84,4.84,4.8928,4.9916,4.9916,5.0467,5.1431,5.1431,5.1431,5.1431,5.1431,5.1431,5.1431,5.1431,5.1431,5.1431,5.1431,4.9629,4.7368,5.3652,5.3806,0.0,0.0,0.0,0.0,0.0,5.398,0.0,5.3782,0.0,5.381,5.3894,5.4372,5.4709,5.4709,0.0,5.5496,5.5496,5.5496,5.5496,5.5496,5.558,5.5636,5.5636,5.5693,0.0,0.0,5.5806,5.6142,5.6487,5.6614,5.6913,5.7275,5.7404,5.7788,5.8325,5.8955,5.9205,5.9205,5.9205,5.9205,5.9205,5.9205,5.9205,5.9205,5.9205,5.9205,5.9205,5.9205,5.9205,5.908,5.8451,5.8704,5.908,5.8451,5.7606,5.6882,5.6753,5.4623,5.2203,5.1509,5.0316,4.9245,4.8667,4.8546,4.8546,4.8546,4.84,0.0,0.0,0.0,0.0,4.84,0.0,0.0,0.0,0.0,0.0,0.0,0.0,0.0,0.0,4.84,0.0,0.0,0.0,0.0,0.0,0.0,0.0,4.84,4.84,0.0,4.84,0.0,4.84,4.84,4.84,4.8882,4.9801,4.987,5.0421,5.1316,5.1385,5.1431,5.1431,5.1431,5.1431,5.1431,5.1431,5.1431,5.1431,5.1431,5.0121,4.8165,5.5937,0.0,0.0,0.0,0.0,5.6647,5.6306,5.539,5.4709,5.4458,5.4428,5.4625,5.5131,5.5271,5.5327,5.5327,5.544,0.0,0.0,0.0,0.0,5.5496,5.6002,5.6254,5.6254,5.6788,5.735,0.0,5.7846,5.784,5.7906,5.8411,5.8467,5.8071,5.8578,5.8955,5.908,5.908,0.0,5.9205,5.9205,5.9205,5.9205,5.9205,5.9205,5.9205,5.9205,5.9205,5.9205,5.9205,5.9205,5.9205,5.908,5.908,5.9205,5.908,5.8927,5.8676,5.8043,5.678,5.5155,5.33,5.209,5.0857,4.9652,4.9101,4.8835,4.8835,4.8691,4.84,4.84,0.0,0.0,0.0,0.0,0.0,0.0,0.0,0.0,0.0,0.0,0.0,0.0,0.0,0.0,0.0,0.0,0.0,0.0,0.0,0.0,0.0,0.0,0.0,0.0,0.0,4.84,4.84,4.84,4.8699,4.9273,4.9709,5.0214,5.0788,5.1247,5.1431,5.1431,5.1431,5.1431,5.1431,5.1431,5.1431,5.1431,5.1431,4.9315,4.6545,0.0,0.0,0.0,0.0,0.0,0.0,0.0,5.7416,0.0,5.6586,5.5623,5.5391,5.6136,5.5729,5.5496,5.5496,5.5805,5.5973,5.5973,5.6283,5.6479,5.6479,5.676,0.0,5.6929,5.721,5.7688,5.8306,5.8306,5.8491,5.8704,5.908,5.908,5.8704,5.908,5.8955,0.0,0.0,0.0,5.9205,5.9205,5.9205,5.9205,5.9205,5.9205,5.9205,5.9205,5.9205,5.9205,5.9205,5.9205,5.9205,5.9205,5.9205,5.9205,5.9205,5.9205,5.908,5.8829,5.7761,5.652,5.5314,5.3436,5.1698,5.0857,4.9914,4.9245,4.898,4.8835,4.8691,4.84,4.84,0.0,0.0,0.0,0.0,0.0,0.0,0.0,0.0,0.0,0.0,0.0,0.0,0.0,0.0,0.0,0.0,0.0,0.0,0.0,0.0,0.0,0.0,0.0,0.0,0.0,4.84,4.84,4.8653,4.9112,4.9388,4.9916,5.065,5.0903,5.1179,5.1431,5.1431,5.1431,5.1431,5.1431,5.1431,5.1431,5.1431,4.9157,4.6223,0.0,5.8743,0.0,0.0,5.9177,0.0,0.0,5.9249,5.9327,5.8335,5.708,5.6479,5.691,5.6477,5.6124,5.5889,5.6339,5.662,5.662,5.7097,5.7378,5.7378,5.7519,5.7575,5.7575,5.7716,5.8025,0.0,5.8502,5.8671,5.9008,5.9149,5.9205,5.9205,0.0,0.0,0.0,0.0,5.9205,5.9205,5.9205,5.9205,5.9205,5.9205,5.9205,5.9205,5.9205,5.9205,5.9205,5.9205,5.9205,5.9205,5.9205,5.9205,5.9205,5.9205,5.9205,5.9205,5.9205,5.8424,5.735,5.678,5.4889,5.3053,5.209,5.0857,4.9771,4.9245,4.898,4.8835,4.84,4.84,0.0,0.0,0.0,0.0,0.0,0.0,0.0,0.0,0.0,0.0,0.0,0.0,0.0,0.0,0.0,0.0,0.0,0.0,0.0,0.0,0.0,4.84,4.84,0.0,4.84,0.0,4.84,4.8584,4.8951,4.9066,4.9548,5.0306,5.0536,5.0926,5.1431,5.1431,5.1431,5.1431,5.1431,5.1431,5.1431,5.1431,4.9472,4.6706,0.0,0.0,0.0,0.0,0.0,0.0,0.0,6.0373,5.9837,5.8394,5.8585,5.86,5.783,5.8117,5.8108,5.733,5.7266,5.7294,5.7294,5.735,5.7378,5.7378,5.7912,5.8221,5.8221,5.8755,5.9064,0.0,0.0,5.8868,5.839,5.8952,5.9205,0.0,0.0,0.0,0.0,5.9205,5.9205,5.9205,5.9205,5.9205,5.9205,5.9205,5.9205,5.9205,5.9205,5.9205,5.9205,5.9205,5.9205,5.9205,5.9205,5.9205,5.9205,5.9205,5.9205,5.9205,5.9205,5.908,5.8676,5.735,5.6807,5.5998,5.3326,5.209,5.1138,4.9771,4.8957,4.84,4.84,4.84,4.84,0.0,0.0,0.0,0.0,0.0,0.0,0.0,0.0,0.0,0.0,0.0,0.0,0.0,0.0,0.0,0.0,0.0,0.0,4.84,0.0,4.84,4.84,4.84,0.0,4.84,4.84,4.8423,4.8469,4.8905,4.9158,4.9296,5.0237,5.0926,5.1431,5.1431,5.1431,5.1431,5.1431,5.1431,5.1431,5.1431,5.0121,4.8345,0.0,0.0,0.0,0.0,0.0,0.0,0.0,6.1859,6.1659,6.1062,6.0335,5.9585,5.9273,5.8929,5.8427,5.7499,5.7716,5.794,5.794,5.8278,5.8474,5.8474,5.8727,5.884,5.884,5.9093,5.9205,0.0,0.0,5.9093,5.8868,5.9093,0.0,0.0,0.0,5.9205,5.9205,5.9205,5.9205,5.9205,5.9205,5.9205,5.9205,5.9205,5.9205,5.9205,5.9205,5.9205,5.9205,5.9205,5.9205,5.9205,5.9205,5.9205,5.9205,5.9205,5.9205,5.9205,5.9205,5.9205,5.908,5.855,5.7761,5.6547,5.4515,5.3189,5.1837,4.9914,4.8957,4.84,4.84,4.84,4.84,0.0,0.0,0.0,0.0,0.0,0.0,0.0,0.0,0.0,0.0,0.0,4.84,0.0,0.0,0.0,0.0,0.0,0.0,4.84,0.0,4.84,4.84,4.84,4.84,4.84,4.84,4.84,4.84,4.8584,4.8837,4.9158,5.0191,5.0742,5.0972,5.1293,5.1431,5.1431,5.1431,5.1431,5.1431,5.1431,5.0299,4.8504,6.2117,0.0,6.2825,0.0,6.2825,6.2887,6.3071,6.3102,6.3195,6.341,6.2395,6.141,6.0832,6.0439,5.9653,5.8519,5.8795,5.8805,5.8559,5.898,5.9205,5.9205,5.9205,0.0,5.9205,5.9205,5.9205,5.9205,5.9205,0.0,5.8952,5.8952,0.0,0.0,5.9205,5.9205,5.9205,5.9205,5.9205,5.9205,5.9205,5.9205,5.9205,5.9205,5.9205,5.9205,5.9205,5.9205,5.9205,5.9205,5.9205,5.9205,5.9205,5.9205,5.9205,5.9205,5.9205,5.9205,5.9205,5.9205,5.9205,5.9205,5.8424,5.7221,5.5314,5.3978,5.2504,4.9914,4.8957,4.8546,4.84,4.84,4.84,0.0,0.0,0.0,0.0,0.0,0.0,0.0,4.84,4.84,4.84,0.0,0.0,0.0,0.0,0.0,0.0,0.0,0.0,0.0,0.0,0.0,0.0,4.84,4.84,4.84,4.84,4.84,4.84,4.84,4.8653,4.9158,5.0031,5.049,5.0673,5.1201,5.1431,5.1431,5.1431,5.1431,5.1431,5.1431,5.0299,4.8504,6.2794,6.2825,6.2825,6.2825,6.2825,6.3041,6.3718,6.381,6.4057,6.4764,6.4888,6.4248,6.2483,6.2996,6.2582,6.0716,6.0624,6.0137,5.9205,5.9205,5.9205,0.0,0.0,5.9205,5.9205,5.9205,5.9205,5.9205,0.0,0.0,5.8306,5.8306,5.8643,5.9205,5.9205,5.9205,5.9205,5.9205,5.9205,5.9205,5.9205,5.9205,5.9205,5.9205,5.9205,5.9205,5.9205,5.9205,5.9205,5.9205,5.9205,5.9205,5.9205,5.9205,5.9205,5.9205,5.9205,5.9205,5.9205,5.9205,5.9205,5.9205,5.9205,5.8396,5.5578,5.4649,5.3326,4.9818,4.898,4.8835,4.8546,4.84,4.84,4.84,0.0,0.0,0.0,0.0,0.0,0.0,4.84,4.84,4.84,0.0,0.0,0.0,0.0,0.0,0.0,0.0,0.0,4.84,4.84,0.0,4.84,4.84,4.84,4.84,4.84,4.84,4.84,4.84,4.8653,4.9135,4.9686,5.0191,5.0673,5.1201,5.1431,5.1431,5.1431,5.1431,5.1431,5.1431,5.0299,4.8504,6.3502,6.3903,6.4241,6.4241,6.4241,6.4303,6.4518,6.4549,6.4641,6.4857,6.4888,6.4685,6.4106,6.3668,6.2959,0.0,6.0986,6.0502,0.0,5.9578,5.9205,5.9205,5.9205,5.9205,5.9205,5.9205,5.9205,5.9205,0.0,0.0,0.0,5.8924,5.9036,5.9205,5.9205,5.9205,5.9205,5.9205,5.9205,5.9205,5.9205,5.9205,5.9205,5.9205,5.9205,5.9261,5.9683,5.9823,5.9907,6.0357,6.0497,6.0497,6.0497,5.9907,5.9205,5.9205,5.9205,5.9205,5.9205,5.9205,5.9205,5.9205,5.9205,5.8676,5.6807,5.4515,5.2504,5.1419,5.008,4.898,4.8835,4.8546,4.84,4.84,0.0,0.0,0.0,0.0,0.0,0.0,0.0,4.84,0.0,4.84,0.0,0.0,0.0,0.0,0.0,0.0,0.0,0.0,4.84,0.0,4.84,4.84,4.84,4.84,4.84,4.84,4.84,4.84,4.8469,4.8653,4.9158,4.9663,5.0168,5.0673,5.1087,5.1431,5.1431,5.1431,5.1431,5.1431,5.1099,5.0121,6.4241,6.458,6.4888,6.4888,6.4888,6.4888,6.4888,6.4888,6.4888,6.4888,6.4888,6.4888,6.4888,6.43,0.0,6.2582,6.2028,6.1316,6.0624,6.0043,5.9578,5.9205,5.9205,5.9205,5.9205,0.0,0.0,5.9205,5.9205,5.9205,5.9205,5.9205,5.9205,5.9205,5.9205,5.9205,5.9205,5.9205,5.9205,5.9205,5.9205,5.9345,5.957,5.957,5.9711,5.9964,6.0357,6.0497,6.0554,6.0947,6.1088,6.1088,6.1088,6.0554,5.9935,5.9935,5.9935,5.9935,5.9935,5.9935,5.9935,5.9935,5.9739,5.8954,5.6731,5.4247,5.2228,5.1583,5.0222,4.9124,4.898,4.8691,4.84,4.84,0.0,4.84,0.0,0.0,0.0,0.0,0.0,0.0,0.0,4.84,0.0,0.0,0.0,0.0,0.0,0.0,0.0,4.84,4.84,0.0,4.84,4.84,4.84,4.84,4.84,4.84,4.84,4.84,4.84,4.8423,4.8905,4.9411,4.9939,5.0421,5.0949,5.1431,5.1431,5.1431,5.1431,5.1431,5.0944,4.9964,6.4888,6.4888,0.0,0.0,6.4888,0.0,6.4888,6.4888,6.4888,6.4888,6.4888,6.4888,6.4888,6.4888,6.4524,6.3562,0.0,0.0,0.0,6.0624,6.0165,5.9329,5.9205,0.0,5.9205,5.9205,5.9205,5.9205,5.9205,5.9205,5.9205,5.9205,5.9205,5.9205,5.9205,5.9233,5.9289,5.9289,5.9317,5.9345,5.9345,5.9683,6.0188,6.0188,6.0582,6.1116,6.1144,6.1172,6.1172,6.12,6.1228,6.1228,6.1228,6.1228,6.12,6.1116,6.1088,6.1088,6.1088,6.1088,6.1088,6.1088,6.051,5.9228,5.6053,5.4055,5.2441,5.0789,4.9938,4.9365,4.9124,4.8691,4.84,4.84,4.84,4.84,4.84,0.0,0.0,0.0,0.0,0.0,0.0,4.84,4.84,0.0,0.0,0.0,0.0,0.0,4.8446,4.8446,4.8446,4.8469,4.8492,4.8469,4.8423,4.84,4.84,4.84,4.84,4.84,4.84,4.8423,4.886,4.9388,4.9939,5.0398,5.0903,5.1431,5.1431,5.1431,5.1431,5.1431,5.0455,4.8662,0.0,0.0,6.4888,6.4888,6.4888,6.4888,6.4888,6.4888,6.4888,6.4888,6.4888,6.4888,6.4888,6.4888,6.4777,6.4524,6.3789,6.3189,6.2728,6.1436,6.0502,6.0287,5.9578,5.9205,5.9205,5.9205,5.9205,5.9205,5.9205,5.9205,5.9205,5.9205,5.9205,5.9205,5.9205,5.9486,5.9907,5.9907,6.0188,6.0638,6.0638,6.075,6.0863,6.0863,6.0975,6.1172,6.1621,6.179,6.1874,6.2352,6.2492,6.2492,6.2492,6.2492,6.2296,6.1369,6.1088,6.1088,6.1088,6.1088,6.1088,6.1088,6.0144,5.903,5.8971,5.5998,5.347,5.3674,5.1698,4.9818,4.9532,4.9101,4.8691,4.84,4.84,4.84,4.84,4.84,0.0,0.0,4.84,4.84,4.84,4.84,4.84,0.0,0.0,0.0,0.0,0.0,4.8928,4.8928,4.8928,4.9135,4.9548,4.9135,4.8745,4.84,4.84,4.84,4.84,4.84,4.84,4.84,4.8515,4.9066,4.9916,5.0031,5.0605,5.1431,5.1431,5.1431,5.1431,5.1431,5.1099,5.0299,6.4888,6.4888,6.4888,6.4888,6.4888,6.4888,6.4888,6.4888,6.4888,6.4888,6.4888,6.4888,6.4888,6.4888,6.4888,6.4888,6.4412,6.3902,6.3418,6.2496,6.1436,6.0624,6.0165,5.9702,5.9205,5.9205,5.9205,5.9205,5.9514,5.9626,5.9654,5.9935,6.0076,6.0076,6.0076,6.0245,6.0582,6.0582,6.0778,6.1088,6.1088,6.1284,6.1509,6.1509,6.1678,6.1987,6.2296,6.2436,6.2492,6.283,6.2942,6.2942,6.2942,6.2942,6.2802,6.2127,6.1931,6.1931,6.1931,6.1931,6.1874,6.1593,6.083,6.0083,5.9607,5.7143,5.4945,5.4492,5.2346,5.0389,4.9842,4.9389,4.898,4.8691,4.8546,4.84,4.84,4.84,0.0,4.84,4.84,4.84,4.84,4.84,4.84,4.84,0.0,0.0,4.8722,4.9204,4.9365,4.9112,4.9342,4.9617,4.9916,4.9617,4.9342,4.9089,4.8837,4.8722,4.8722,4.8492,4.84,4.84,4.863,4.9181,4.9916,5.0145,5.0719,5.1431,5.1431,5.1431,5.1431,5.1431,5.1431,5.0944,6.4888,6.4888,6.4888,6.4888,6.4888,6.4888,6.4888,6.4888,6.4888,6.4888,6.4888,6.4888,6.4888,6.4888,6.4888,6.4888,6.4888,6.4524,6.3676,6.3532,6.2612,6.0865,6.0624,6.0165,5.9205,5.9317,5.9402,5.9514,6.002,6.0273,6.0301,6.0835,6.1088,6.1088,6.1088,6.1144,6.1228,6.1228,6.1284,6.1369,6.1369,6.1678,6.2155,6.2155,6.2464,6.2942,6.2942,6.2942,6.2942,6.2942,6.2942,6.2942,6.2942,6.2942,6.2942,6.2942,6.2942,6.2942,6.2942,6.2942,6.2802,6.2268,6.1996,6.1406,5.9687,5.8025,5.6366,5.453,5.2632,5.1274,5.0413,4.972,4.9241,4.9096,4.8737,4.8546,4.84,0.0,4.84,4.84,4.84,4.84,4.84,4.8446,4.8492,4.8492,4.8951,0.0,0.0,4.9732,4.9801,4.9365,4.9778,5.0008,5.0008,5.0008,4.9985,4.9893,4.9457,4.9227,4.9227,4.8814,4.863,4.8653,4.9043,4.9525,5.0053,5.0467,5.0949,5.1431,5.1431,5.1431,5.1431,5.1431,5.1431,5.1099,6.4888,6.4888,6.4888,6.4888,6.4888,6.4888,6.4888,6.4888,6.4888,6.4888,6.4888,6.4888,6.4888,6.4888,6.4888,6.4888,6.4888,6.4777,6.4666,6.3902,6.2959,6.1762,6.0986,6.0165,5.9205,5.9711,6.0245,6.0807,6.0891,6.0947,6.0947,6.1059,6.1088,6.1088,6.1088,6.1397,6.1874,6.1874,6.2155,6.2633,6.2633,6.2717,6.2773,6.2773,6.2858,6.2942,6.2942,6.2942,6.2942,6.2942,6.2942,6.2942,6.2942,6.2942,6.2942,6.2942,6.2942,6.2942,6.2942,6.2942,6.2914,6.2802,6.1785,6.0919,6.1434,5.9346,5.7216,5.6366,5.4988,5.3459,5.1704,5.1055,5.0336,4.9753,4.9259,4.8835,4.84,0.0,4.84,4.84,4.84,4.84,4.84,4.8768,4.8997,4.8997,4.9479,4.9778,4.9778,5.0237,5.0467,5.0398,5.0467,5.0513,5.0513,5.0513,5.0306,4.9916,4.9824,4.9778,4.9778,4.9709,4.9663,4.9686,4.9755,5.0076,5.0513,5.0605,5.0949,5.1431,5.1431,5.1431,5.1431,5.1431,5.1431,5.0944,6.4888,6.4888,6.4888,6.4888,6.4888,6.4888,6.4888,6.4888,6.4998,6.5297,6.5108,6.4998,6.5297,6.5297,6.5297,6.5297,6.5623,6.5779,6.5823,6.4819,6.3971,6.3381,6.2913,6.2136,6.104,6.0724,6.0807,6.1088,6.1425,6.1593,6.1593,6.1931,6.2071,6.2071,6.2071,6.224,6.2492,6.2492,6.2661,6.2942,6.2942,6.2942,6.2942,6.2942,6.2942,6.2942,6.2942,6.2942,6.2942,6.2942,6.2942,6.2942,6.2942,6.2942,6.2942,6.2942,6.2942,6.2942,6.2942,6.2942,6.2942,6.2942,6.2354,6.2002,6.2417,6.0809,5.9067,5.8506,5.6581,5.4527,5.3369,5.2164,5.1147,5.0854,5.0226,0.0,0.0,4.9352,4.9204,4.9204,4.9204,4.9204,4.9204,4.9411,4.9548,4.9548,5.0008,5.0306,5.0306,5.0788,5.1064,5.1064,5.1064,5.1064,5.1064,5.1064,5.0949,5.0719,5.0444,5.0306,5.0283,5.0031,4.9916,4.9916,5.0191,5.0421,5.065,5.0949,5.1201,5.1431,5.1431,5.1431,5.1431,5.1431,5.1431,5.1099,6.4888,6.4888,6.4888,6.4888,6.4888,6.4888,6.4888,6.4888,6.5108,6.5592,6.5297,6.5297,6.5808,6.5915,6.5978,6.6135,6.6595,6.691,6.7136,6.6182,6.5341,6.48,6.4567,6.3921,6.2851,6.2025,6.1627,6.1537,6.1987,6.224,6.224,6.2717,6.2942,6.2942,6.2942,6.2942,6.2942,6.2942,6.2942,6.2942,6.2942,6.2942,6.2942,6.2942,6.2942,6.2942,6.2942,6.2942,6.2942,6.2942,6.2942,6.2942,6.2942,6.2942,6.2942,6.2942,6.2942,6.2942,6.2942,6.2942,6.2942,6.2942,6.2942,6.2942,6.2942,6.1923,6.092,6.0213,5.8157,5.6315,5.5598,5.3879,5.2549,5.2403,0.0,0.0,0.0,5.0192,5.0042,4.9916,4.9916,4.9916,4.9916,5.0008,5.0076,5.0076,5.0536,5.0811,5.0811,5.1201,5.1431,5.1431,5.1431,5.1431,5.1431,5.1431,5.1431,5.1431,5.1018,5.0811,5.0788,5.0421,5.026,5.0283,5.065,5.0811,5.0834,5.1247,5.1431,5.1431,5.1431,5.1431,5.1431,5.1431,5.1431,5.1277,6.4888,6.4888,6.4888,6.4888,6.4888,6.4888,6.4888,6.4888,6.5108,6.5592,6.57,6.5808,6.648,6.648,6.6732,6.7363,6.7534,6.7818,6.8513,6.7966,6.693,6.5494,6.4636,6.3965,6.3486,6.3388,6.3193,6.2802,6.283,6.2858,6.2858,6.2914,6.2942,6.2942,6.2942,6.2942,6.2942,6.2942,6.2942,6.2942,6.2942,6.2942,6.2942,6.2942,6.2942,6.2942,6.2942,6.2942,6.2942,6.2942,6.2942,6.2942,6.2942,6.2942,6.2942,6.2942,6.2942,6.2942,6.2942,6.2942,6.2942,6.2942,6.2942,6.2942,6.2942,6.2781,6.2354,6.0866,6.0428,5.9851,5.8376,5.6402,5.4927,5.4468,0.0,0.0,5.0616,5.0467,5.0341,4.9893,4.9916,4.9916,4.9916,5.0306,5.0582,5.0582,5.1064,5.1362,5.1362,5.1408,5.1431,5.1431,5.1431,5.1431,5.1431,5.1431,5.1431,5.1431,5.1385,5.1362,5.1362,5.1339,5.1316,5.1316,5.1362,5.1362,5.1362,5.1408,5.1431,5.1431,5.1431,5.1431,5.1431,5.1431,5.1431,5.1099,6.5406,6.5108,6.4998,6.5297,6.5406,6.5515,6.5839,6.5947,6.6161,6.6659,6.6448,6.6638,6.7715,6.7778,6.8033,6.8702,6.9116,6.951,6.9753,6.9568,6.8687,6.7041,6.6462,6.5793,6.5036,6.4405,6.3679,6.2942,6.2942,6.2942,6.2942,6.2942,6.2942,6.2942,6.2942,6.2942,6.2942,6.2942,6.2942,6.2942,6.2942,6.2942,6.2942,6.2942,6.2942,6.2942,6.2942,6.2942,6.2942,6.2942,6.2942,6.2942,6.2942,6.2942,6.2942,6.2942,6.2942,6.2942,6.2942,6.2942,6.2942,6.2942,6.2942,6.2942,6.2942,6.2942,6.2781,6.2192,6.1193,6.0483,5.9931,5.7643,5.5792,5.5647,0.0,5.2475,5.2174,5.1722,5.142,5.1291,5.0987,5.0857,5.0857,5.1018,5.1133,5.1133,5.1316,5.1431,5.1431,5.1431,5.1431,5.1431,5.1431,5.1431,5.1431,5.1431,5.1431,5.1431,5.1431,5.1431,5.1431,5.1431,5.1431,5.1431,5.1431,5.1431,5.1431,5.1431,5.1431,5.1431,5.1431,5.1431,5.1431,5.1431,5.1431,5.1277,6.6023,6.5731,6.5515,6.5947,6.6023,6.6161,6.6512,6.6617,6.6891,6.7604,6.7428,6.7715,6.8941,6.9142,6.9399,7.0074,7.0486,7.0809,7.1135,7.0952,7.0078,6.8559,6.8023,6.7396,6.6417,6.5416,6.4396,6.3413,6.3046,6.2942,6.2942,6.2942,6.2942,6.2942,6.2942,6.2942,6.2942,6.2942,6.2942,6.2942,6.2942,6.2942,6.2942,6.2942,6.2942,6.2942,6.2942,6.2942,6.2942,6.2942,6.2942,6.2942,6.2942,6.2942,6.2942,6.2942,6.2942,6.2942,6.2942,6.2942,6.2942,6.2942,6.2942,6.2942,6.2942,6.2942,6.2942,6.2942,6.2058,6.1193,6.062,5.8507,5.6674,5.6118,5.4522,5.337,5.3243,5.2764,5.2307,5.2024,5.1716,5.1562,5.1431,5.1431,5.1431,5.1431,5.1431,5.1431,5.1431,5.1431,5.1431,5.1431,5.1431,5.1431,5.1431,5.1431,5.1431,5.1431,5.1431,5.1431,5.1431,5.1431,5.1431,5.1431,5.1431,5.1431,5.1431,5.1431,5.1431,5.1431,5.1431,5.1431,5.1431,5.1431,5.1431,5.1431,6.6617,6.6617,6.6617,6.6617,6.6617,6.6617,6.6617,6.6617,6.7082,6.838,6.8476,6.8973,7.0235,7.0403,7.0695,7.1375,7.144,7.1731,7.2443,7.1938,7.1029,6.9901,6.924,6.8386,6.7427,6.6417,6.5416,6.4396,6.3413,6.2942,6.2942,6.2942,6.2942,6.2942,6.2942,6.2942,6.2942,6.2942,6.2942,6.2942,6.2942,6.2942,6.2942,6.2942,6.2942,6.2942,6.2942,6.2942,6.2942,6.2942,6.2942,6.2942,6.2942,6.2942,6.2942,6.2942,6.2942,6.2942,6.2942,6.2942,6.2942,6.2942,6.2942,6.2942,6.2942,6.2942,6.2942,6.2942,6.2942,6.2487,6.092,5.9349,5.794,5.641,5.4819,5.3672,5.3243,5.3243,5.2916,5.2154,5.2,5.187,5.1408,5.1408,5.1408,5.1408,5.1408,5.1408,5.1408,5.1431,5.1431,5.1431,5.1431,5.1431,5.1431,5.1431,5.1431,5.1431,5.1431,5.1431,5.1431,5.1431,5.1431,5.1431,5.1431,5.1431,5.1431,5.1431,5.1431,5.1431,5.1431,5.1431,5.1431,5.1431,5.1431,5.1431,6.7213,6.6901,6.6691,6.7109,6.7628,6.8052,6.8467,6.8885,6.9407,6.9736,6.9873,7.0131,7.1051,7.1116,7.1407,7.212,7.2184,7.2282,7.2476,7.1938,7.147,7.1029,7.013,6.8858,6.7427,6.7153,6.6168,6.4396,6.4167,6.3545,6.2942,6.2942,6.2942,6.2942,6.2942,6.2942,6.2942,6.2942,6.2942,6.2942,6.2942,6.2942,6.2942,6.2942,6.2942,6.2942,6.2942,6.2942,6.2942,6.2942,6.2942,6.2942,6.2942,6.2942,6.2942,6.2942,6.2942,6.2942,6.2942,6.2942,6.2942,6.2942,6.2942,6.2942,6.2942,6.2942,6.2942,6.2942,6.2942,6.2781,6.2354,6.007,5.8224,5.7798,5.5532,5.3822,5.3672,5.337,5.3068,5.2459,5.1851,5.1337,5.0857,5.0559,5.0375,5.0375,5.0673,5.0857,5.0857,5.1224,5.1431,5.1431,5.1431,5.1431,5.1431,5.1431,5.1431,5.1431,5.1431,5.1431,5.1431,5.1431,5.1431,5.1431,5.1431,5.1431,5.1431,5.1431,5.1431,5.1431,5.1431,5.1431,5.1431,5.1431,5.1431,5.1431,6.7695,6.7747,6.7732,6.8113,6.8724,6.931,6.9723,7.0112,7.05,7.0759,7.0824,7.1083,7.1763,7.1861,7.2022,7.2476,7.2508,7.2508,7.2508,7.2154,7.183,7.158,7.0694,6.9557,6.8386,6.7789,6.6663,6.5036,6.4653,6.3908,6.2942,6.2942,6.2942,6.2942,6.2942,6.2942,6.2942,6.2942,6.2942,6.2942,6.2942,6.2942,6.2942,6.2942,6.2942,6.2942,6.2942,6.2942,6.2942,6.2942,6.2942,6.2942,6.2942,6.2942,6.2942,6.2942,6.2942,6.2942,6.2942,6.2942,6.2942,6.2942,6.2942,6.2942,6.2942,6.2942,6.2942,6.2942,6.2942,6.2515,6.1356,5.9654,5.794,5.6794,5.4967,5.3822,5.3822,5.3504,5.2934,5.2608,5.1733,5.1105,5.0631,5.0227,4.9916,4.9916,5.0168,5.0329,5.0329,5.065,5.0903,5.111,5.111,5.1201,5.1431,5.1431,5.1431,5.1431,5.1431,5.1431,5.1431,5.1431,5.1431,5.1431,5.1431,5.1431,5.1431,5.1431,5.1431,5.1431,5.1431,5.1431,5.1431,5.1431,5.1431,5.1431,6.8363,6.8946,6.9367,6.9367,6.9982,7.05,7.05,7.0565,7.0824,7.144,7.1504,7.1763,7.2443,7.2508,7.2508,7.2508,7.2508,7.2508,7.2508,7.2508,7.2262,7.1689,7.114,7.0469,7.0016,6.8356,6.7153,6.6044,6.5007,6.4009,6.3046,6.2914,6.2942,6.2942,6.2942,6.2942,6.2942,6.2942,6.2942,6.2942,6.2942,6.2942,6.2942,6.2942,6.2942,6.2942,6.2942,6.2942,6.2942,6.2942,6.2942,6.2942,6.2942,6.2942,6.2942,6.2942,6.2942,6.2942,6.2942,6.2942,6.2942,6.2942,6.2942,6.2942,6.2942,6.2942,6.2942,6.2942,6.2942,6.2058,5.9069,5.8507,5.7369,5.4522,5.3972,5.3798,5.375,5.3365,5.2904,5.2387,5.1639,5.0865,5.042,5.0076,4.9778,4.9778,4.9801,4.9847,4.9847,4.987,5.0122,5.0536,5.0559,5.0811,5.1339,5.1362,5.1385,5.1431,5.1431,5.1431,5.1431,5.1431,5.1431,5.1431,5.1431,5.1431,5.1431,5.1431,5.1431,5.1431,5.1431,5.1431,5.1431,5.1431,5.1431,5.1431,6.982,7.0047,7.0177,7.0177,7.0727,7.1213,7.1213,7.1666,7.2087,7.2249,7.2249,7.2314,7.2476,7.2508,7.2508,7.2508,7.2508,7.2508,7.2508,7.2508,7.2401,7.2262,7.1721,7.136,7.125,6.9901,6.8592,6.7031,6.6481,6.5484,6.4037,6.331,6.2942,6.2942,6.2942,6.2942,6.2942,6.2942,6.2942,6.2942,6.2942,6.2942,6.2942,6.2942,6.2942,6.2942,6.2942,6.2942,6.2942,6.2942,6.2942,6.2942,6.2942,6.2942,6.2942,6.2942,6.2942,6.2942,6.2942,6.2942,6.2942,6.2942,6.2942,6.2942,6.2942,6.2942,6.2942,6.2942,6.2942,6.2354,6.0483,5.9209,5.7798,5.5972,5.4546,5.3678,5.3293,5.3125,5.276,5.1864,5.1048,5.0303,4.9886,4.9245,4.8722,4.8722,4.9066,4.9273,4.9273,4.9686,4.9962,5.0053,5.0076,5.0306,5.0788,5.0788,5.1018,5.1431,5.1431,5.1431,5.1431,5.1431,5.1431,5.1431,5.1431,5.1431,5.1431,5.1431,5.1431,5.1431,5.1431,5.1431,5.1431,5.1431,5.1431,5.1431,7.0338,7.0662,7.0889,7.0889,7.1472,7.1925,7.1925,7.2249,7.2508,7.2508,7.2508,7.2508,7.2508,7.2508,7.2508,7.2508,7.2508,7.2508,7.2508,7.2508,7.2508,7.2508,7.1938,7.158,7.158,7.1029,6.987,6.8325,6.7306,6.608,6.4851,6.3545,6.2942,6.2942,6.2942,6.2942,6.2942,6.2942,6.2942,6.2942,6.2942,6.2942,6.2942,6.2942,6.2942,6.2942,6.2942,6.2942,6.2942,6.2942,6.2942,6.2942,6.2942,6.2942,6.2942,6.2942,6.2942,6.2942,6.2942,6.2942,6.2942,6.2942,6.2942,6.2942,6.2942,6.2942,6.2942,6.2942,6.2354,6.1356,5.9793,5.8366,5.6819,5.5263,5.4202,5.3365,5.3101,5.2644,5.2211,5.1608,5.0528,4.9764,4.906,4.8684,4.84,4.84,4.863,4.8768,4.8768,4.9043,4.9296,4.9525,4.9525,4.9778,5.0283,5.0513,5.0765,5.1041,5.1293,5.1431,5.1431,5.1431,5.1431,5.1431,5.1431,5.1431,5.1431,5.1431,5.1431,5.1431,5.1431,5.1431,5.1431,5.1431,5.1431,5.1431,7.0727,7.1213,7.1601,7.1601,7.2087,7.2508,7.2508,7.2508,7.2508,7.2508,7.2508,7.2508,7.2508,7.2508,7.2508,7.2508,7.2508,7.2508,7.2508,7.2508,7.2508,7.2508,7.2046,7.1798,7.1798,7.1798,7.0997,6.9463,6.7757,6.6421,6.558,6.3777,6.2942,6.2942,6.2942,6.2942,6.2942,6.2942,6.2942,6.2942,6.2942,6.2942,6.2942,6.2942,6.2942,6.2942,6.2942,6.2998,6.3083,6.3083,6.3083,6.3054,6.297,6.2942,6.2942,6.2942,6.2942,6.2942,6.2942,6.2942,6.2942,6.2942,6.2942,6.2942,6.2942,6.2942,6.2942,6.2942,6.1626,6.0208,5.8648,5.7107,5.5557,5.4098,5.3389,5.3029,5.2956,5.2091,5.1465,5.1369,5.0222,4.9221,4.8523,4.84,4.84,4.84,4.84,4.84,4.84,4.84,4.8584,4.8974,4.8997,4.925,4.9755,5.0168,5.0421,5.0513,5.1041,5.1339,5.1431,5.1431,5.1431,5.1431,5.1431,5.1431,5.1431,5.1431,5.1431,5.1431,5.1431,5.1431,5.1431,5.1431,5.1431,5.1431,7.2087,7.2282,7.2346,7.2346,7.2443,7.2508,7.2508,7.2508,7.2508,7.2508,7.2508,7.2508,7.2508,7.2508,7.2508,7.2508,7.2508,7.2508,7.2508,7.2508,7.2508,7.2508,7.2369,7.2369,7.2369,7.2369,7.1721,7.0469,6.8587,6.7246,6.6574,6.4009,6.2942,6.2942,6.2942,6.2942,6.2942,6.2942,6.2942,6.2942,6.2942,6.2942,6.2942,6.2942,6.2942,6.2942,6.2942,6.3251,6.3673,6.3673,6.3673,6.3588,6.3083,6.2942,6.2942,6.2942,6.2942,6.2942,6.2942,6.2942,6.2942,6.2942,6.2942,6.2942,6.2942,6.2942,6.2942,6.2942,6.1626,6.0208,5.8648,5.7107,5.5557,5.4098,5.3389,5.2908,5.2451,5.1874,5.1321,5.0864,5.0009,4.9221,4.8523,4.84,4.84,4.84,4.84,4.84,4.84,4.84,4.8423,4.8492,4.8492,4.8722,4.9204,4.9273,4.9548,5.0008,5.049,5.0972,5.1431,5.1431,5.1431,5.1431,5.1431,5.1431,5.1431,5.1431,5.1431,5.1431,5.1431,5.1431,5.1431,5.1431,5.1431,5.1431,7.2443,7.2508,7.2508,7.2508,7.2508,7.2508,7.2508,7.2508,7.2508,7.2508,7.2508,7.2508,7.2508,7.2508,7.2508,7.2508,7.2508,7.2508,7.2508,7.2508,7.2508,7.2508,7.2508,7.2508,7.2508,7.2508,7.2262,7.1721,6.9547,6.8084,6.7246,6.4851,6.3413,6.2942,6.2942,6.2942,6.2942,6.2942,6.2942,6.2942,6.2942,6.2942,6.2942,6.2942,6.2942,6.2942,6.2942,6.3307,6.3757,6.342,6.3532,6.3701,6.3111,6.2942,6.2942,6.2942,6.2942,6.2942,6.2942,6.2942,6.2942,6.2942,6.2942,6.2942,6.2942,6.2942,6.2648,6.1761,6.0345,5.8929,5.7395,5.5826,5.4448,5.3586,5.2956,5.2451,5.1922,5.1393,5.0818,5.0128,4.9652,4.9221,4.8523,4.84,4.84,4.84,4.84,4.84,4.84,4.84,4.84,4.84,4.84,4.8492,4.8699,4.8974,4.9227,4.9479,5.026,5.0742,5.0995,5.1293,5.1431,5.1431,5.1431,5.1431,5.1431,5.1431,5.1431,5.1431,5.1431,5.1431,5.1431,5.1431,5.1431,5.1431]},{"header":{"parameterUnit":"m.s-1","parameterCategory":1,"la1":30.6,"la2":28.766,"lo1":-90.7593,"lo2":-88.6598,"dy":0.0162,"dx":0.0183,"nx":116,"ny":114,"refTime":"2024-04-06T12:00:00:Z","depth":0,"parameterNumber":3,"parameterNumberName":"V-component_of_WINDS"},"data":[0.0,0.0,0.0,0.0,0.0,0.0,0.0,0.0,0.0,0.0,0.0,0.0,0.0,0.0,0.0,0.0,0.0,0.0,0.0,0.0,0.0,0.0,0.0,0.0,0.0,0.0,0.0,0.0,0.0,0.0,0.0,0.0,0.0,0.0,0.0,0.0,0.0,0.0,0.0,0.0,0.0,0.0,0.0,0.0,0.0,0.0,0.0,0.0,0.0,0.0,0.0,0.0,0.0,0.0,0.0,0.0,0.0,0.0,0.0,0.0,0.0,0.0,0.0,0.0,0.0,0.0,0.0,0.0,0.0,0.0,0.0,0.0,0.0,0.0,0.0,0.0,0.0,0.0,0.0,0.0,0.0,0.0,0.0,0.0,0.0,0.0,0.0,0.0,0.0,0.0,0.0,0.0,0.0,0.0,0.0,0.0,0.0,0.0,0.0,0.0,0.0,0.0,0.0,0.0,0.0,0.0,0.0,0.0,0.0,0.0,0.0,0.0,0.0,0.0,0.0,0.0,0.0,0.0,0.0,0.0,0.0,0.0,0.0,0.0,0.0,0.0,0.0,0.0,0.0,0.0,0.0,0.0,0.0,0.0,0.0,0.0,0.0,0.0,0.0,0.0,0.0,0.0,0.0,0.0,0.0,0.0,0.0,0.0,0.0,0.0,0.0,0.0,0.0,0.0,0.0,0.0,0.0,0.0,0.0,0.0,0.0,0.0,0.0,0.0,0.0,0.0,0.0,0.0,0.0,0.0,0.0,0.0,0.0,0.0,0.0,0.0,0.0,0.0,0.0,0.0,0.0,0.0,0.0,0.0,0.0,0.0,0.0,0.0,0.0,0.0,0.0,0.0,0.0,0.0,0.0,0.0,0.0,0.0,0.0,0.0,0.0,0.0,0.0,0.0,0.0,0.0,0.0,0.0,0.0,0.0,0.0,0.0,0.0,0.0,0.0,0.0,0.0,0.0,0.0,0.0,0.0,0.0,0.0,0.0,0.0,0.0,0.0,0.0,0.0,0.0,0.0,0.0,0.0,0.0,0.0,0.0,0.0,0.0,0.0,0.0,0.0,0.0,0.0,0.0,0.0,0.0,0.0,0.0,0.0,0.0,0.0,0.0,0.0,0.0,0.0,0.0,0.0,0.0,0.0,0.0,0.0,0.0,0.0,0.0,0.0,0.0,0.0,0.0,0.0,0.0,0.0,0.0,0.0,0.0,0.0,0.0,0.0,0.0,0.0,0.0,0.0,0.0,0.0,0.0,0.0,0.0,0.0,0.0,0.0,0.0,0.0,0.0,0.0,0.0,0.0,0.0,0.0,0.0,0.0,0.0,0.0,0.0,0.0,0.0,0.0,0.0,0.0,0.0,0.0,0.0,0.0,0.0,0.0,0.0,0.0,0.0,0.0,0.0,0.0,0.0,0.0,0.0,0.0,0.0,0.0,0.0,0.0,0.0,0.0,0.0,0.0,0.0,0.0,0.0,0.0,0.0,0.0,0.0,0.0,0.0,0.0,0.0,0.0,0.0,0.0,0.0,0.0,0.0,0.0,0.0,0.0,0.0,0.0,0.0,0.0,0.0,0.0,0.0,0.0,0.0,0.0,0.0,0.0,0.0,0.0,0.0,0.0,0.0,0.0,0.0,0.0,0.0,0.0,0.0,0.0,0.0,0.0,0.0,0.0,0.0,0.0,0.0,0.0,0.0,0.0,0.0,0.0,0.0,0.0,0.0,0.0,0.0,0.0,0.0,0.0,0.0,0.0,0.0,0.0,0.0,0.0,0.0,0.0,0.0,0.0,0.0,0.0,0.0,0.0,0.0,0.0,0.0,0.0,0.0,0.0,0.0,0.0,0.0,0.0,0.0,0.0,0.0,0.0,0.0,0.0,0.0,0.0,0.0,0.0,0.0,0.0,0.0,0.0,0.0,0.0,0.0,0.0,0.0,0.0,0.0,0.0,0.0,0.0,0.0,0.0,0.0,0.0,0.0,0.0,0.0,0.0,0.0,0.0,0.0,0.0,0.0,0.0,0.0,0.0,0.0,0.0,0.0,0.0,0.0,0.0,0.0,0.0,0.0,0.0,0.0,0.0,0.0,0.0,0.0,0.0,0.0,0.0,0.0,0.0,0.0,0.0,0.0,0.0,0.0,0.0,0.0,0.0,0.0,0.0,0.0,0.0,0.0,0.0,0.0,0.0,0.0,0.0,0.0,0.0,0.0,0.0,0.0,0.0,0.0,0.0,0.0,0.0,0.0,0.0,0.0,0.0,0.0,0.0,0.0,0.0,0.0,0.0,0.0,0.0,0.0,0.0,0.0,0.0,0.0,0.0,0.0,0.0,0.0,0.0,0.0,0.0,0.0,0.0,0.0,0.0,0.0,0.0,0.0,0.0,0.0,0.0,0.0,0.0,0.0,0.0,0.0,0.0,0.0,0.0,0.0,0.0,0.0,0.0,0.0,0.0,0.0,0.0,0.0,0.0,0.0,0.0,0.0,0.0,0.0,0.0,0.0,0.0,0.0,0.0,0.0,0.0,0.0,0.0,0.0,0.0,0.0,0.0,0.0,0.0,0.0,0.0,0.0,0.0,0.0,0.0,0.0,0.0,0.0,0.0,0.0,0.0,0.0,0.0,0.0,0.0,0.0,0.0,0.0,0.0,0.0,0.0,0.0,0.0,0.0,0.0,0.0,0.0,0.0,0.0,0.0,0.0,0.0,0.0,0.0,0.0,0.0,0.0,0.0,0.0,0.0,0.0,0.0,0.0,0.0,0.0,0.0,0.0,0.0,0.0,0.0,0.0,0.0,0.0,0.0,0.0,0.0,0.0,0.0,0.0,0.0,0.0,0.0,0.0,0.0,0.0,0.0,0.0,0.0,0.0,0.0,0.0,0.0,0.0,0.0,0.0,0.0,0.0,0.0,0.0,0.0,0.0,0.0,0.0,0.0,0.0,0.0,0.0,0.0,0.0,0.0,0.0,0.0,0.0,0.0,0.0,0.0,0.0,0.0,0.0,0.0,0.0,0.0,0.0,0.0,0.0,0.0,0.0,0.0,0.0,0.0,0.0,0.0,0.0,0.0,0.0,0.0,0.0,0.0,0.0,0.0,0.0,0.0,0.0,0.0,0.0,0.0,0.0,0.0,0.0,0.0,0.0,0.0,0.0,0.0,0.0,0.0,0.0,0.0,0.0,0.0,0.0,0.0,0.0,0.0,0.0,0.0,0.0,0.0,0.0,0.0,0.0,0.0,0.0,0.0,0.0,0.0,0.0,0.0,0.0,0.0,0.0,0.0,0.0,0.0,0.0,0.0,0.0,0.0,0.0,0.0,0.0,0.0,0.0,0.0,0.0,0.0,0.0,0.0,0.0,0.0,0.0,0.0,0.0,0.0,0.0,0.0,0.0,0.0,0.0,0.0,0.0,0.0,0.0,0.0,0.0,0.0,0.0,0.0,0.0,0.0,0.0,0.0,0.0,0.0,0.0,0.0,0.0,0.0,0.0,0.0,0.0,0.0,0.0,0.0,0.0,0.0,0.0,0.0,0.0,0.0,0.0,0.0,0.0,0.0,0.0,0.0,0.0,0.0,0.0,0.0,0.0,0.0,0.0,0.0,0.0,0.0,0.0,0.0,0.0,0.0,0.0,0.0,0.0,0.0,0.0,0.0,0.0,0.0,0.0,0.0,0.0,0.0,0.0,0.0,0.0,0.0,0.0,0.0,0.0,0.0,0.0,0.0,0.0,0.0,0.0,0.0,0.0,0.0,0.0,0.0,0.0,0.0,0.0,0.0,0.0,0.0,0.0,0.0,0.0,0.0,0.0,0.0,0.0,0.0,0.0,0.0,0.0,0.0,0.0,0.0,0.0,0.0,0.0,0.0,0.0,0.0,0.0,0.0,0.0,0.0,0.0,0.0,0.0,0.0,0.0,0.0,0.0,0.0,0.0,0.0,0.0,0.0,0.0,0.0,0.0,0.0,0.0,0.0,0.0,0.0,0.0,0.0,0.0,0.0,0.0,0.0,0.0,0.0,0.0,0.0,0.0,0.0,0.0,0.0,0.0,0.0,0.0,0.0,0.0,0.0,0.0,0.0,0.0,0.0,0.0,0.0,0.0,0.0,0.0,0.0,0.0,0.0,0.0,0.0,0.0,0.0,0.0,0.0,0.0,0.0,0.0,0.0,0.0,0.0,0.0,0.0,0.0,0.0,0.0,0.0,0.0,0.0,0.0,0.0,0.0,0.0,0.0,0.0,0.0,0.0,0.0,0.0,0.0,0.0,0.0,0.0,0.0,0.0,0.0,0.0,0.0,0.0,0.0,0.0,0.0,0.0,0.0,0.0,0.0,0.0,0.0,0.0,0.0,0.0,0.0,0.0,0.0,0.0,0.0,0.0,0.0,0.0,0.0,0.0,0.0,0.0,0.0,0.0,0.0,0.0,0.0,0.0,0.0,0.0,0.0,0.0,0.0,0.0,0.0,0.0,0.0,0.0,0.0,0.0,0.0,0.0,0.0,0.0,0.0,0.0,0.0,0.0,0.0,0.0,0.0,0.0,0.0,0.0,0.0,0.0,0.0,0.0,0.0,0.0,0.0,0.0,0.0,0.0,0.0,0.0,0.0,0.0,0.0,0.0,0.0,0.0,0.0,0.0,0.0,0.0,0.0,0.0,0.0,0.0,0.0,0.0,0.0,0.0,0.0,0.0,0.0,0.0,0.0,0.0,0.0,0.0,0.0,0.0,0.0,0.0,0.0,0.0,0.0,0.0,0.0,0.0,0.0,0.0,0.0,0.0,0.0,0.0,0.0,0.0,0.0,0.0,0.0,0.0,0.0,0.0,0.0,0.0,0.0,0.0,0.0,0.0,0.0,0.0,0.0,0.0,0.0,0.0,0.0,0.0,0.0,0.0,0.0,0.0,0.0,0.0,0.0,0.0,0.0,0.0,0.0,0.0,0.0,0.0,0.0,0.0,0.0,0.0,0.0,0.0,0.0,0.0,0.0,0.0,0.0,0.0,0.0,0.0,0.0,0.0,0.0,0.0,0.0,0.0,0.0,0.0,0.0,0.0,0.0,0.0,0.0,0.0,0.0,0.0,0.0,0.0,0.0,0.0,0.0,0.0,0.0,0.0,0.0,0.0,0.0,0.0,0.0,0.0,0.0,0.0,0.0,0.0,0.0,0.0,0.0,0.0,0.0,0.0,0.0,0.0,0.0,0.0,0.0,0.0,0.0,0.0,0.0,0.0,0.0,0.0,0.0,0.0,0.0,0.0,0.0,0.0,0.0,0.0,0.0,0.0,0.0,0.0,0.0,0.0,0.0,0.0,0.0,0.0,0.0,0.0,0.0,0.0,0.0,0.0,0.0,0.0,0.0,0.0,0.0,0.0,0.0,0.0,0.0,0.0,0.0,0.0,0.0,0.0,0.0,0.0,0.0,0.0,0.0,0.0,0.0,0.0,0.0,0.0,0.0,0.0,0.0,0.0,0.0,0.0,0.0,0.0,0.0,0.0,0.0,0.0,0.0,0.0,0.0,0.0,0.0,0.0,0.0,0.0,0.0,0.0,0.0,0.0,0.0,0.0,0.0,0.0,0.0,0.0,0.0,0.0,0.0,0.0,0.0,0.0,0.0,0.0,0.0,0.0,0.0,0.0,0.0,0.0,0.0,0.0,0.0,0.0,0.0,0.0,0.0,0.0,0.0,0.0,0.0,0.0,0.0,0.0,0.0,0.0,0.0,0.0,0.0,0.0,0.0,0.0,0.0,0.0,0.0,0.0,0.0,0.0,0.0,0.0,0.0,0.0,0.0,0.0,0.0,0.0,0.0,0.0,0.0,0.0,0.0,0.0,0.0,0.0,0.0,0.0,0.0,0.0,0.0,0.0,0.0,0.0,0.0,0.0,0.0,0.0,0.0,0.0,0.0,0.0,0.0,0.0,0.0,0.0,0.0,0.0,0.0,0.0,0.0,0.0,0.0,0.0,0.0,0.0,0.0,0.0,0.0,0.0,0.0,0.0,0.0,0.0,0.0,0.0,0.0,0.0,0.0,0.0,0.0,0.0,0.0,0.0,0.0,0.0,0.0,0.0,0.0,0.0,0.0,0.0,0.0,0.0,0.0,0.0,-5.7417,0.0,0.0,0.0,0.0,0.0,0.0,0.0,0.0,0.0,0.0,0.0,0.0,0.0,0.0,0.0,0.0,0.0,0.0,0.0,0.0,0.0,0.0,0.0,0.0,-3.8797,-3.9384,-3.9974,-4.076,-4.1697,-4.266,0.0,0.0,0.0,0.0,0.0,-4.5254,-4.5602,-4.5823,-4.5823,-4.5823,-4.5823,-4.5823,-4.5823,-4.5823,-4.5792,0.0,0.0,0.0,0.0,0.0,0.0,0.0,0.0,0.0,0.0,0.0,0.0,0.0,0.0,0.0,0.0,0.0,0.0,0.0,0.0,0.0,0.0,0.0,0.0,0.0,0.0,0.0,0.0,0.0,0.0,0.0,0.0,0.0,0.0,0.0,0.0,0.0,0.0,0.0,0.0,0.0,0.0,0.0,0.0,0.0,0.0,0.0,0.0,0.0,0.0,0.0,0.0,0.0,0.0,0.0,0.0,0.0,0.0,0.0,0.0,0.0,0.0,0.0,0.0,0.0,0.0,0.0,0.0,0.0,0.0,0.0,-5.8333,0.0,0.0,0.0,0.0,0.0,0.0,0.0,0.0,0.0,0.0,0.0,0.0,0.0,0.0,0.0,0.0,0.0,0.0,0.0,0.0,0.0,-3.8427,-3.8501,-3.9032,-3.9841,-4.0891,-4.1617,-4.2451,-4.3661,-4.4331,0.0,0.0,0.0,0.0,-4.5823,-4.5823,-4.5823,-4.5823,-4.5918,-4.5981,-4.5981,-4.6108,-4.6171,-4.6171,-4.5918,0.0,0.0,0.0,0.0,0.0,0.0,0.0,0.0,0.0,0.0,0.0,0.0,0.0,0.0,0.0,0.0,0.0,0.0,0.0,0.0,0.0,0.0,0.0,0.0,0.0,0.0,0.0,0.0,0.0,0.0,0.0,0.0,0.0,0.0,0.0,0.0,0.0,0.0,0.0,0.0,0.0,0.0,0.0,0.0,0.0,0.0,0.0,0.0,0.0,0.0,0.0,0.0,0.0,0.0,0.0,0.0,0.0,0.0,0.0,0.0,0.0,0.0,0.0,0.0,-5.7005,-5.7413,-5.6896,-5.7156,-5.7887,-5.8178,-5.8772,-5.952,0.0,0.0,0.0,0.0,0.0,0.0,0.0,0.0,0.0,0.0,0.0,0.0,0.0,0.0,0.0,0.0,0.0,0.0,0.0,0.0,-3.9162,-3.9606,-4.0293,-4.0716,-4.0921,-4.1976,-4.2984,-4.3738,-4.4369,0.0,0.0,0.0,-4.5823,-4.5823,-4.5823,-4.5823,-4.5823,-4.6392,-4.6676,-4.6676,-4.7308,-4.7624,-4.7561,-4.636,-4.6139,-4.6645,0.0,0.0,0.0,0.0,0.0,0.0,0.0,0.0,0.0,0.0,0.0,0.0,0.0,0.0,0.0,0.0,0.0,0.0,0.0,0.0,0.0,0.0,0.0,0.0,0.0,0.0,0.0,0.0,0.0,0.0,0.0,0.0,0.0,0.0,0.0,0.0,0.0,0.0,0.0,0.0,0.0,-5.1809,-5.2573,0.0,0.0,0.0,0.0,0.0,0.0,0.0,0.0,0.0,0.0,0.0,0.0,0.0,0.0,-5.608,-5.5749,-5.5781,-5.6211,-5.5781,-5.562,-5.5701,-5.5295,-5.5749,-5.6844,-5.7122,0.0,-5.9081,-5.9617,0.0,0.0,0.0,0.0,0.0,0.0,0.0,0.0,0.0,0.0,0.0,0.0,0.0,0.0,0.0,0.0,0.0,0.0,0.0,0.0,0.0,-4.001,-4.071,-4.146,-4.2615,-4.3696,-4.4347,-4.4956,0.0,0.0,-4.5823,-4.5823,-4.5823,-4.5823,-4.5981,-4.636,-4.7056,-4.7403,-4.7435,-4.7751,-4.8098,-4.8415,-4.7814,-4.7498,-4.7403,-4.7119,0.0,0.0,0.0,0.0,0.0,0.0,0.0,0.0,0.0,0.0,0.0,0.0,0.0,0.0,0.0,0.0,0.0,0.0,0.0,0.0,0.0,0.0,0.0,0.0,0.0,0.0,0.0,0.0,0.0,0.0,0.0,0.0,0.0,0.0,0.0,0.0,0.0,0.0,0.0,-5.1778,-5.2281,-5.3074,-5.3618,-5.4043,0.0,0.0,0.0,0.0,0.0,0.0,0.0,0.0,0.0,-5.5409,-5.5861,-5.602,-5.5733,-5.5491,-5.5491,-5.5685,-5.5912,-5.6189,-5.6385,-5.6362,-5.6939,-5.7906,-5.7997,-5.8732,-6.0009,-5.9966,-6.0288,-6.0774,0.0,0.0,0.0,0.0,0.0,-6.1371,0.0,0.0,0.0,0.0,0.0,0.0,0.0,0.0,0.0,0.0,0.0,0.0,-3.9589,-4.0111,-4.0931,-4.1911,-4.2924,-4.3837,-4.4555,-4.5173,-4.5646,-4.5823,-4.5823,-4.5886,-4.6076,-4.6234,-4.6582,-4.7087,-4.7782,-4.8162,-4.8162,-4.832,-4.8667,-4.9141,-4.9141,-4.8889,-4.8415,-4.8415,-4.8415,-4.8415,0.0,0.0,0.0,0.0,0.0,0.0,0.0,0.0,0.0,0.0,0.0,0.0,0.0,0.0,0.0,0.0,0.0,0.0,0.0,0.0,0.0,0.0,0.0,0.0,0.0,0.0,0.0,0.0,0.0,0.0,0.0,0.0,0.0,0.0,0.0,0.0,0.0,-5.2579,-5.2824,-5.3499,-5.3883,-5.4293,0.0,0.0,0.0,0.0,0.0,0.0,-5.5409,-5.5766,-5.5831,-5.5701,-5.6027,-5.6205,-5.6124,-5.6124,-5.6206,-5.6287,-5.6841,-5.7266,-5.7624,-5.7871,-5.838,-5.8899,-5.9197,-5.9895,-6.0647,-6.046,-6.0823,-6.1581,-6.1581,-6.1897,-6.2389,-6.2389,-6.2389,-6.2389,0.0,0.0,0.0,0.0,0.0,0.0,0.0,0.0,0.0,0.0,0.0,-4.0129,-4.0704,-4.1398,-4.1863,-4.1922,-4.2565,-4.3269,-4.3927,-4.451,-4.5142,-4.5792,-4.5823,-4.6108,-4.674,-4.7435,-4.7814,-4.7846,-4.8509,-4.8825,-4.8857,-4.9521,-4.9837,-4.9868,-4.9868,-4.9837,-4.9805,-4.9805,-4.9805,-4.9805,-4.9805,0.0,0.0,0.0,0.0,0.0,0.0,0.0,0.0,0.0,0.0,0.0,0.0,0.0,0.0,0.0,0.0,0.0,0.0,0.0,0.0,0.0,0.0,0.0,0.0,0.0,0.0,0.0,0.0,0.0,0.0,0.0,0.0,0.0,0.0,0.0,0.0,0.0,0.0,-5.4308,-5.4566,0.0,0.0,0.0,0.0,-5.5345,-5.5409,-5.5409,-5.5409,-5.5409,-5.5733,-5.6413,-5.6446,-5.7019,-5.8084,-5.8084,-5.8281,-5.8687,-5.8753,-5.8753,-5.8833,-5.9073,-5.9073,-5.898,-6.0204,-6.0754,-6.075,-6.1008,-6.164,-6.2319,-6.2319,-6.2354,-6.2389,-6.2389,-6.2389,-6.2389,0.0,0.0,0.0,0.0,0.0,0.0,0.0,-3.8352,-3.8573,-3.9312,-3.9396,-3.9865,-4.0919,-4.1263,-4.1573,-4.2012,-4.2942,-4.3693,-4.3927,-4.4843,-4.5573,-4.5823,-4.6202,-4.6771,-4.7498,-4.8193,-4.8541,-4.8541,-4.9205,-4.9552,-4.9552,-4.9805,-4.9931,-4.9931,-5.0405,-5.0595,-5.0563,-5.0121,-4.9931,-4.9931,-4.9931,-4.9773,0.0,0.0,0.0,0.0,0.0,0.0,0.0,0.0,0.0,0.0,0.0,0.0,0.0,0.0,0.0,0.0,0.0,0.0,0.0,0.0,0.0,0.0,0.0,0.0,0.0,0.0,0.0,0.0,0.0,0.0,0.0,0.0,0.0,0.0,0.0,0.0,0.0,-5.4581,-5.4787,0.0,-5.5328,-5.5409,-5.5604,-5.6089,-5.6122,-5.6316,-5.6737,-5.7019,-5.7314,-5.7575,-5.7937,-5.8231,-5.8624,-5.8624,-5.8738,-5.8899,-5.9396,-5.9595,-5.9628,-6.0174,-6.0617,-6.0906,-6.139,-6.2275,-6.3462,-6.3608,-6.3449,-6.3161,-6.3161,-6.3442,-6.3898,-6.3898,-6.3898,-6.3898,0.0,0.0,0.0,0.0,0.0,0.0,-3.8575,-3.8427,-3.8527,-3.9086,-3.9372,-3.9828,-4.067,-4.1163,-4.1599,-4.2063,-4.301,-4.3693,-4.3927,-4.4843,-4.5667,-4.6139,-4.7024,-4.7719,-4.8225,-4.8889,-4.9236,-4.9236,-4.971,-5.0058,-5.0279,-5.0279,-5.0405,-5.0658,-5.1101,-5.1322,-5.129,-5.0816,-5.0627,-5.0627,-5.0627,-5.0627,-5.0627,0.0,0.0,0.0,0.0,0.0,0.0,0.0,0.0,0.0,0.0,0.0,0.0,0.0,0.0,0.0,0.0,0.0,0.0,0.0,0.0,0.0,0.0,0.0,0.0,0.0,0.0,0.0,0.0,0.0,0.0,0.0,0.0,0.0,0.0,0.0,-5.4351,-5.4966,-5.4973,-5.5048,-5.5518,-5.5744,-5.6015,-5.6381,-5.6666,-5.7029,-5.7482,-5.7934,-5.8396,-5.8823,-5.9102,-5.9396,-5.9628,-5.9893,-5.9993,-5.9993,-6.0755,-6.1119,-6.1119,-6.2081,-6.2609,-6.2818,-6.3417,-6.4339,-6.5422,-6.5569,-6.5301,-6.4741,-6.4741,-6.5057,-6.5478,-6.5478,-6.5478,-6.5478,0.0,0.0,0.0,0.0,0.0,-3.8575,-3.8797,-3.8649,-3.853,-3.8559,-3.9488,-4.0118,-4.0147,-4.1308,-4.2092,-4.2092,-4.2688,-4.3299,-4.3927,-4.4541,-4.5485,-4.6834,-4.8162,-4.8889,-4.892,-4.9584,-4.9931,-4.9931,-4.9931,-5.0311,-5.0974,-5.1006,-5.1353,-5.2017,-5.2017,-5.2049,-5.2049,-5.208,-5.208,-5.208,-5.2017,-5.2017,-5.2017,0.0,0.0,0.0,0.0,0.0,0.0,0.0,0.0,0.0,0.0,0.0,0.0,0.0,0.0,0.0,0.0,0.0,0.0,0.0,0.0,0.0,0.0,0.0,0.0,0.0,0.0,0.0,0.0,0.0,0.0,0.0,0.0,0.0,-5.536,-5.5031,-5.498,-5.5392,-5.5251,-5.532,-5.5751,-5.6477,-5.6718,-5.6309,-5.7152,-5.7664,-5.7579,-5.8032,-5.8807,-6.0059,-6.0092,-6.0456,-6.1185,-6.1848,-6.2212,-6.2212,-6.2941,-6.3272,-6.3358,-6.4627,-6.4869,-6.4349,-6.615,-6.6628,-6.6185,-6.6735,-6.6987,-6.7058,-6.7023,-6.7023,-6.7023,-6.7023,-6.7023,-6.7023,0.0,0.0,0.0,0.0,0.0,-3.8649,-3.9162,-3.8723,-3.8777,-4.014,-4.0198,-4.0466,-4.1424,-4.2239,-4.2769,-4.2769,-4.3663,-4.4358,-4.451,-4.5609,-4.6874,-4.8256,-4.8667,-4.911,-4.9615,-4.9837,-4.9931,-4.9931,-5.0437,-5.0785,-5.0974,-5.148,-5.1828,-5.2017,-5.2586,-5.2807,-5.2839,-5.3313,-5.3534,-5.3439,-5.2428,-5.2017,-5.2017,0.0,0.0,0.0,0.0,0.0,0.0,0.0,0.0,0.0,0.0,0.0,0.0,0.0,0.0,0.0,0.0,0.0,0.0,0.0,0.0,0.0,0.0,0.0,0.0,0.0,0.0,0.0,0.0,0.0,0.0,0.0,0.0,-5.6093,-5.575,-5.5261,-5.528,-5.5875,-5.5954,-5.5993,-5.6081,-5.6819,-5.7399,-5.7388,-5.8292,-5.9063,-5.9585,-6.0194,-6.0929,-6.155,-6.208,-6.2477,-6.2676,-6.2875,-6.2974,-6.2974,-6.3173,-6.3272,-6.3358,-6.4135,-6.4593,-6.4948,-6.5465,-6.6159,-6.6872,-6.7058,-6.7481,-6.7974,-6.73,-6.7023,-6.7023,-6.7023,-6.7023,-6.7093,0.0,0.0,0.0,0.0,0.0,-3.909,-3.9778,-3.9349,-3.9416,-4.0756,-4.0689,-4.0812,-4.157,-4.2431,-4.2981,-4.2981,-4.4128,-4.4812,-4.4812,-4.6379,-4.7624,-4.8446,-4.9015,-4.9521,-4.99,-4.9931,-5.0058,-5.0374,-5.0785,-5.129,-5.1891,-5.227,-5.2618,-5.2902,-5.3344,-5.3534,-5.3534,-5.3913,-5.4103,-5.404,-5.3218,-5.287,-5.287,-5.287,-5.287,-5.287,-5.287,-5.3204,-5.3533,-5.3038,0.0,0.0,0.0,0.0,0.0,0.0,0.0,0.0,0.0,0.0,0.0,0.0,0.0,0.0,0.0,0.0,0.0,0.0,0.0,0.0,0.0,0.0,0.0,0.0,-5.7618,-5.6742,-5.6471,-5.5922,-5.5715,-5.6125,-5.6441,-5.6631,-5.6631,-5.774,-5.8452,-5.8446,-5.9577,-6.0423,-6.0968,-6.16,-6.2179,-6.2643,-6.304,-6.3272,-6.3272,-6.3603,-6.3736,-6.3736,-6.4034,-6.4167,-6.4167,-6.479,-6.5377,0.0,-6.6029,-6.6745,-6.7704,-6.7704,-6.8135,0.0,0.0,0.0,0.0,0.0,-6.8006,-6.8076,0.0,0.0,0.0,-3.9737,-3.9595,-3.9707,-4.0478,-4.017,-4.0203,-4.08,-4.098,-4.0978,-4.1098,-4.2275,-4.3061,-4.3061,-4.4205,-4.4918,-4.5011,-4.6818,-4.794,-4.8004,-4.9236,-4.9931,-4.9931,-4.9931,-5.0279,-5.0974,-5.1069,-5.1796,-5.3123,-5.3186,-5.3534,-5.4103,-5.4103,-5.4103,-5.4103,-5.4103,-5.4103,-5.4103,-5.4103,-5.4103,-5.4103,-5.4103,-5.4103,-5.4103,-5.4103,-5.4103,-5.4103,-5.4103,0.0,0.0,0.0,0.0,0.0,0.0,0.0,0.0,0.0,0.0,0.0,0.0,0.0,0.0,0.0,0.0,0.0,0.0,0.0,0.0,0.0,0.0,0.0,0.0,-5.7656,-5.7285,-5.7539,-5.7006,-5.6594,-5.6441,-5.7042,-5.7453,-5.7453,-5.8959,-5.9813,-5.9568,-6.0793,-6.1588,-6.1757,0.0,0.0,0.0,0.0,-6.3504,-6.3504,-6.4167,-6.4498,-6.4498,-6.5127,-6.5425,-6.5425,-6.6148,-6.6491,-6.6576,-6.7243,-6.7811,-6.8397,-6.8397,-6.8816,-6.9376,-6.9376,-6.9376,-6.9376,-6.9376,-6.9376,0.0,0.0,0.0,0.0,-3.9553,-3.9809,-4.027,-4.082,-4.0585,-4.0523,-4.1198,-4.1129,-4.0978,-4.1098,-4.2674,-4.3693,-4.3693,-4.4874,-4.5866,-4.6402,-4.7328,-4.813,-4.8667,-4.9489,-4.9931,-4.9931,-4.9931,-5.0279,-5.0974,-5.1543,-5.2238,-5.3123,-5.366,-5.3976,-5.4103,-5.4103,-5.4103,-5.4103,-5.4103,-5.4103,-5.4103,-5.4103,-5.4103,-5.4103,-5.4103,-5.4103,-5.4103,-5.4103,-5.4103,-5.4103,-5.4103,-5.4157,-5.4327,-5.4327,-5.4497,0.0,0.0,0.0,0.0,0.0,0.0,0.0,0.0,0.0,0.0,0.0,0.0,0.0,0.0,0.0,0.0,0.0,0.0,0.0,-6.0456,-5.9834,-5.9226,-5.9393,-5.9393,-5.8924,-5.8018,-5.8496,-5.8906,-5.8906,-6.0436,-6.1193,-6.0767,-6.1808,-6.2231,-6.1789,-6.2795,0.0,-6.3571,-6.452,-6.4995,-6.4995,-6.516,-6.5227,-6.5227,0.0,0.0,-6.5425,-6.666,-6.7243,-6.7243,-6.7925,-6.8319,-6.8397,-6.8397,-6.8816,-6.9376,-6.9376,-6.9376,-6.9376,-6.9376,-6.9376,-6.9481,0.0,0.0,0.0,-4.0447,-4.0615,-4.1091,-4.1722,-4.1327,-4.1174,-4.162,-4.1759,-4.1821,-4.1577,-4.3193,-4.4235,-4.3853,-4.4716,-4.5697,-4.674,-4.7498,-4.8193,-4.8857,-4.9552,-4.9931,-4.9931,-5.0279,-5.0785,-5.148,-5.2207,-5.2934,-5.3629,-5.3945,-5.4103,-5.4103,-5.4103,-5.4103,-5.4103,-5.4103,-5.4103,-5.4103,-5.4103,-5.4103,-5.4103,-5.4103,-5.4103,-5.4103,-5.4103,-5.4103,-5.4103,-5.4103,-5.4103,-5.4103,-5.4103,-5.4103,-5.4189,0.0,0.0,0.0,0.0,0.0,0.0,0.0,0.0,0.0,0.0,0.0,0.0,0.0,0.0,-5.9705,-6.0952,0.0,-6.0187,-6.0909,-6.0815,-6.055,-6.0537,-6.0816,-6.0596,-5.9784,-5.979,-5.9886,-6.0168,-6.1138,-6.1768,-6.1658,-6.2522,-6.3138,-6.3225,-6.3858,-6.4236,-6.4506,-6.5048,-6.5425,-6.5425,-6.5425,-6.5425,-6.5425,-6.5425,-6.5591,-6.5955,-6.6631,-6.718,-6.755,-6.7861,-6.82,-6.8534,-6.9187,-6.9931,-7.0534,-7.0534,-7.0288,-6.9937,-6.9937,-7.0218,-7.0604,0.0,0.0,0.0,-4.1428,-4.1525,-4.198,-4.2522,-4.2142,-4.1813,-4.1847,-4.2412,-4.2579,-4.2073,-4.364,-4.4595,-4.4246,-4.4495,-4.5317,-4.6708,-4.7498,-4.8193,-4.8857,-4.9552,-4.9931,-4.9931,-5.0627,-5.1322,-5.2017,-5.2744,-5.3439,-5.4103,-5.4103,-5.4103,-5.4103,-5.4103,-5.4103,-5.4103,-5.4103,-5.4103,-5.4103,-5.4103,-5.4103,-5.4103,-5.4103,-5.4103,-5.4103,-5.4103,-5.4103,-5.4103,-5.4103,-5.4103,-5.4103,-5.4103,-5.4198,-5.4292,-5.4292,-5.4387,0.0,0.0,0.0,0.0,0.0,0.0,0.0,0.0,-5.8918,-5.9183,-5.9942,-5.9712,-5.9585,-6.0463,-6.0554,-6.0652,-6.0972,-6.1336,-6.1475,-6.1367,-6.1648,-6.1805,-6.1562,-6.0963,-6.0773,-6.1276,-6.1777,-6.2192,-6.2268,-6.3269,-6.408,-6.4545,-6.4702,-6.4976,-6.5246,-6.5468,-6.5624,-6.5624,-6.579,-6.5856,-6.5856,-6.5856,-6.6154,-6.6751,-6.6808,-6.7231,-6.7796,-6.7978,-6.8305,-6.889,-6.9962,-7.0729,-7.1272,-7.1272,-7.0958,-7.0504,-7.0704,-7.1166,-7.1728,0.0,0.0,0.0,0.0,0.0,-4.2522,-4.2585,-4.2522,-4.2365,-4.1882,-4.241,-4.254,-4.1984,-4.3666,-4.5036,-4.5551,-4.5025,-4.5317,-4.6708,-4.7498,-4.8193,-4.8857,-4.9552,-4.9931,-4.9931,-5.0627,-5.1322,-5.2017,-5.2744,-5.3439,-5.4103,-5.4103,-5.4103,-5.4103,-5.4103,-5.4103,-5.4103,-5.4103,-5.4103,-5.4103,-5.4103,-5.4103,-5.4103,-5.4103,-5.4103,-5.4103,-5.4103,-5.4103,-5.4103,-5.4103,-5.4103,-5.4103,-5.4103,-5.4514,-5.5019,-5.5019,-5.5462,-5.6056,-5.6208,-5.6208,-5.6471,-5.7333,-5.7506,-5.7401,0.0,-5.791,-5.8568,-5.8992,-5.9234,-5.9621,-6.0502,-6.087,-6.117,-6.1633,-6.1724,-6.18,-6.1948,-6.2044,-6.2268,-6.2876,-6.2364,-6.1885,-6.198,-6.2652,-6.3068,-6.3036,-6.4017,-6.442,-6.3988,-6.4852,-6.5156,-6.4793,-6.5783,-6.6386,-6.6386,-6.7049,-6.738,-6.738,-6.738,-6.7413,-6.7512,-6.8082,-6.8383,-6.8539,-6.9151,-6.9408,-6.9493,-6.9662,-6.9746,-6.983,-6.983,-7.0172,-7.0751,-7.1334,-7.1622,-7.1798,0.0,0.0,0.0,0.0,0.0,-4.299,-4.3174,-4.2834,-4.2459,-4.211,-4.2611,-4.2994,-4.2807,-4.3613,-4.4432,-4.5128,-4.4527,-4.4749,-4.6139,-4.7277,-4.8193,-4.8857,-4.9552,-4.9931,-4.9931,-5.0627,-5.1322,-5.2017,-5.2744,-5.3439,-5.4103,-5.4103,-5.4103,-5.4103,-5.4103,-5.4103,-5.4103,-5.4103,-5.4103,-5.4103,-5.4103,-5.4103,-5.4103,-5.4103,-5.4103,-5.4134,-5.4545,-5.4703,0.0,-5.5177,-5.5304,-5.5304,-5.5304,-5.5525,-5.5746,-5.5746,-5.5967,-5.6283,-5.6694,-5.7073,-5.748,-5.7809,-5.7852,-5.7927,-5.8338,-5.8654,-5.9063,-5.9662,-5.9853,-6.0075,-6.0821,-6.0985,-6.1431,0.0,-6.2404,-6.2478,-6.2748,-6.3034,-6.3131,-6.3228,-6.2908,-6.2716,-6.2716,-6.3004,-6.3164,-6.3164,-6.3832,-6.4114,-6.3894,-6.497,-6.5509,-6.5324,-6.6509,-6.7181,-6.7181,-6.7479,-6.7612,-6.7612,-6.7612,-6.7844,-6.8241,-6.8486,-6.8902,-6.9303,-6.9578,-6.9906,-7.0317,-7.0317,-7.0754,-7.1553,-7.1553,-7.2009,-7.2545,-7.1976,-7.2056,-7.2474,0.0,0.0,0.0,0.0,0.0,-4.3295,-4.3568,-4.3113,-4.271,-4.2522,-4.2977,-4.3517,-4.4002,-4.3849,-4.3976,-4.4795,-4.4066,-4.4186,-4.5697,-4.6929,-4.7972,-4.8857,-4.9552,-4.9931,-4.9931,-5.0627,-5.1322,-5.2017,-5.2744,-5.3439,-5.4103,-5.4103,-5.4103,-5.4103,-5.4103,-5.4103,-5.4103,-5.4103,-5.4103,-5.4103,-5.4103,-5.4103,-5.4103,-5.4103,-5.4198,-5.4451,-5.4956,-5.5146,-5.5241,-5.5936,-5.6189,-5.6189,-5.6189,-5.6315,-5.6473,-5.6473,-5.6599,-5.6884,-5.739,-5.7895,-5.8306,-5.8496,-5.8559,-5.8748,-5.9412,-5.957,-5.9728,-6.0202,-6.0455,-6.0709,-6.1122,-6.1376,-6.1758,-6.2584,-6.2649,-6.2747,-6.2907,-6.326,-6.3357,-6.3002,-6.3002,-6.3066,-6.3258,-6.3098,-6.3066,-6.3258,-6.3742,-6.4093,-6.4509,-6.5502,-6.6171,-6.6265,-6.7361,-6.791,-6.791,-6.8109,-6.8241,-6.8241,-6.8241,-6.8506,-6.9003,-6.9003,-6.9268,-6.9798,-6.9798,-7.0049,-7.054,-7.054,-7.1176,-7.2056,-7.2228,-7.2483,-7.2783,-7.2312,-7.2567,-7.3264,0.0,0.0,0.0,0.0,0.0,-4.3568,-4.3628,-4.3295,-4.3113,-4.3113,-4.3423,-4.4237,-4.5562,-4.4495,-4.4105,-4.5181,-4.3997,-4.399,-4.5665,-4.6455,-4.7435,-4.8825,-4.9552,-4.9931,-4.9931,-5.0627,-5.1322,-5.2017,-5.2744,-5.3439,-5.4103,-5.4103,-5.4103,-5.4103,-5.4103,-5.4103,-5.4103,-5.4103,-5.4103,-5.4103,-5.4103,-5.4103,-5.4103,-5.4103,-5.4514,-5.5114,-5.5114,-5.5146,-5.5241,-5.5936,-5.6189,-5.6189,-5.6189,-5.6663,-5.72,-5.72,-5.7674,-5.8211,-5.8243,-5.8243,-5.8432,-5.9096,-5.9286,-5.9444,-6.0107,-6.0265,-6.0265,-6.0297,-6.0866,-6.1371,-6.1371,-6.1909,-6.2383,-6.2383,-6.2383,-6.2414,-6.2414,-6.2414,-6.2414,-6.2446,-6.2414,-6.2699,0.0,-6.2825,-6.2699,-6.3394,-6.3924,-6.4705,-6.5999,-6.6513,-6.6987,-6.7486,-6.8274,-6.8672,-6.8672,-6.9368,-6.9732,-6.9732,-6.9732,-6.9732,-6.9765,-6.9765,-6.9765,-6.9798,-6.9798,-6.9798,-6.9798,-6.9798,-6.9893,-6.9955,-7.0632,-7.0482,-7.0143,-7.2108,-7.3345,-7.401,0.0,0.0,0.0,0.0,0.0,0.0,-4.3628,-4.3509,-4.3449,-4.3449,-4.3768,0.0,0.0,0.0,0.0,0.0,-4.4359,-4.4189,-4.4687,-4.6031,-4.7214,-4.8193,-4.9299,-4.9931,-4.9931,-5.0153,-5.0848,-5.2017,-5.227,-5.2965,-5.4103,-5.4103,-5.4103,-5.4103,-5.4103,-5.4103,-5.4103,-5.4103,-5.4103,-5.4103,-5.4103,-5.4103,-5.4134,-5.4609,-5.4925,-5.5241,0.0,-5.6505,-5.6631,-5.7326,-5.7579,-5.7579,-5.7579,-5.7737,-5.8022,-5.8464,-5.8432,-5.8464,-5.938,-5.9286,-5.9128,-5.9791,-5.9949,-6.0139,-6.0866,-6.1024,-6.115,-6.1624,-6.1909,-6.2067,-6.2067,-6.2288,-6.2446,-6.2446,-6.2446,-6.2446,-6.2446,-6.2446,-6.2604,-6.3078,-6.3141,0.0,0.0,0.0,0.0,-6.4121,-6.4355,-6.4551,-6.5007,-6.6024,-6.6579,-6.6776,-6.8176,-6.8923,-6.8923,-6.9475,-6.9798,-6.9798,-6.9798,-6.9798,-6.9798,-6.9798,-6.9798,-6.9798,-6.9798,-6.9798,-6.9798,-6.9798,-7.0049,-7.0482,-7.0724,-7.0996,-7.13,-7.2004,-7.2432,-7.2686,0.0,0.0,0.0,0.0,0.0,0.0,0.0,0.0,0.0,0.0,0.0,0.0,0.0,0.0,0.0,0.0,0.0,-4.4202,-4.4037,-4.5387,-4.6634,-4.7616,-4.8903,-4.9679,-4.99,-4.9931,-5.0595,-5.2017,-5.2017,-5.2712,-5.4103,-5.4103,-5.4103,-5.4103,-5.4103,-5.4103,-5.4103,-5.4103,-5.4103,-5.4103,-5.4103,-5.4229,-5.4514,-5.4956,-5.543,0.0,-5.6915,-5.739,-5.7674,-5.8116,-5.8274,-5.8274,-5.8274,-5.8432,-5.8717,-5.9159,-5.9159,-5.9128,-5.976,-5.9791,-5.9823,-6.0518,-6.0676,-6.0866,-6.1593,-6.1782,-6.1877,-6.2351,-6.2446,-6.2446,-6.2446,-6.2446,-6.2446,-6.2446,-6.2635,-6.2793,-6.2793,-6.3015,-6.3362,-6.3805,-6.3868,-6.4121,0.0,0.0,0.0,-6.4848,-6.4879,-6.5109,-6.5536,-6.6288,-6.6919,-6.7322,-6.8471,-6.9091,-6.9285,-6.9607,-6.9798,-6.9798,-6.9798,-6.9798,-6.9798,-6.9798,-6.9798,-6.9798,-6.9798,-6.9798,-6.9798,-6.9798,-7.0049,-7.0448,-7.0724,-7.0906,-7.121,-7.2004,-7.1883,-7.1708,0.0,0.0,0.0,0.0,0.0,0.0,0.0,0.0,0.0,0.0,0.0,0.0,0.0,0.0,0.0,0.0,0.0,0.0,-4.3719,-4.4613,-4.5783,-4.718,-4.825,-4.9173,-4.99,-4.9931,-5.0595,-5.1954,-5.1986,-5.2712,-5.404,-5.4071,-5.4103,-5.4103,-5.4103,-5.4103,-5.4103,-5.4103,-5.4103,-5.4103,-5.4103,-5.4482,-5.5083,-5.5146,-5.5999,-5.7168,-5.7263,-5.7706,-5.8274,-5.8274,-5.8274,-5.8274,-5.8274,-5.8717,-5.9254,-5.9349,-5.9791,-6.0139,-5.9602,-5.9886,-6.0518,-6.1277,-6.1435,-6.1624,-6.2288,-6.2446,-6.2446,-6.2446,-6.2446,-6.2446,0.0,0.0,-6.2446,-6.2446,-6.3015,-6.3489,-6.3489,-6.4089,-6.4532,0.0,0.0,0.0,0.0,0.0,0.0,-6.5638,0.0,-6.6099,-6.7253,-6.742,-6.7797,-6.8896,-6.8896,-6.9188,-6.9703,-6.9798,-6.9798,-6.9798,-6.9798,-6.9798,-6.9798,-6.9798,-6.9798,-6.9798,-6.9798,-6.9798,-6.9798,-6.9798,-6.9798,-6.9893,-7.0448,-7.0389,-7.0049,-7.2056,-7.1883,-7.0963,0.0,0.0,0.0,0.0,0.0,0.0,0.0,0.0,0.0,0.0,0.0,0.0,0.0,0.0,0.0,0.0,0.0,0.0,-4.3719,-4.4198,-4.5202,-4.6856,-4.7731,-4.8699,-4.99,-4.9931,-5.0374,-5.1227,-5.1764,-5.246,-5.3376,-5.3882,-5.4103,-5.4103,-5.4103,-5.4103,-5.4103,-5.4103,-5.4103,-5.4103,-5.4103,-5.4198,-5.4482,-5.5525,-5.6125,-5.6568,-5.7642,-5.8116,-5.8274,-5.8274,-5.8274,-5.8274,-5.8274,-5.8401,-5.8748,-5.976,-5.9823,-5.9854,-6.1245,-6.1371,-6.1277,-6.1972,-6.2161,-6.2225,-6.2383,-6.2446,-6.2446,-6.2446,-6.2446,-6.2446,-6.2446,0.0,0.0,-6.2446,-6.3015,0.0,-6.3489,-6.4089,0.0,-6.5227,0.0,-6.5574,-6.627,-6.6333,0.0,0.0,-6.6333,-6.6533,-6.6796,-6.6796,-6.6901,-6.7213,-6.8,-6.8501,-6.86,-6.9382,-6.9798,-6.9798,-6.9798,-6.9798,-6.9798,-6.9798,-6.9798,-6.9798,-6.9798,-6.9798,-6.9798,-6.9798,-6.9798,-6.9798,-6.9955,-6.9955,-6.9893,-7.0389,-7.0389,-7.0203,0.0,0.0,0.0,0.0,0.0,0.0,0.0,0.0,0.0,0.0,0.0,0.0,0.0,0.0,0.0,0.0,0.0,0.0,0.0,-4.4075,-4.4709,-4.6294,-4.7014,-4.8067,-4.9426,-4.9773,-5.0279,-5.0974,-5.1353,-5.208,-5.3123,-5.3502,-5.3818,-5.4103,-5.4103,-5.4103,-5.4103,-5.4103,-5.4103,0.0,0.0,-5.4292,-5.464,-5.543,-5.6094,-5.6757,-5.7516,-5.8022,-5.8274,-5.8274,-5.8274,-5.8338,-5.8622,-5.8938,-5.9317,-6.0076,-6.0487,-6.0866,-6.1751,-6.1909,-6.194,-6.2319,-6.2446,-6.2446,-6.2446,-6.2446,-6.2446,-6.2446,-6.2446,-6.2446,-6.2446,-6.2446,-6.2541,0.0,0.0,0.0,-6.4374,-6.5006,-6.5574,0.0,-6.6017,0.0,-6.6554,-6.6617,-6.6617,0.0,-6.6617,-6.6617,-6.6617,-6.6617,-6.6723,-6.6901,-6.7491,-6.8101,-6.8501,-6.9382,-6.9798,-6.9798,-6.9798,-6.9798,-6.9798,-6.9798,-6.9798,-6.9798,0.0,-6.9798,-6.9798,-6.9798,-6.9798,-6.9798,-6.9798,-6.9798,-6.9893,-7.0143,-7.0049,-6.9955,0.0,0.0,0.0,0.0,0.0,0.0,0.0,0.0,0.0,0.0,-4.3628,-4.3628,0.0,0.0,0.0,0.0,0.0,0.0,0.0,0.0,-4.4172,-4.5462,-4.6184,-4.7288,-4.8731,-4.9426,-5.0121,-5.0848,-5.0943,-5.1606,-5.2839,-5.3028,-5.3408,-5.3976,-5.4071,-5.4103,-5.4103,-5.4103,-5.4103,-5.4103,-5.4103,-5.4451,-5.5019,0.0,-5.5873,-5.6979,-5.7137,-5.7674,-5.8274,-5.8274,-5.8274,-5.8369,-5.897,-5.9633,-6.017,-6.0265,-6.1245,-6.2193,-6.1687,-6.1972,-6.2446,-6.2446,-6.2446,-6.2446,-6.2446,-6.2446,-6.2446,-6.2446,-6.2446,-6.2446,-6.2446,-6.2509,-6.2762,-6.3394,0.0,-6.4879,-6.548,-6.6175,-6.6617,-6.6617,-6.6617,-6.6617,-6.6617,-6.6617,-6.6617,-6.6617,-6.6617,-6.6617,-6.6617,-6.6617,-6.6796,-6.7388,-6.7388,-6.7899,-6.8994,-6.9478,-6.9703,-6.9798,-6.9798,-6.9798,-6.9798,-6.9798,-6.9798,-6.9798,0.0,0.0,-6.9798,-6.9798,-6.9798,-6.9798,-6.9798,-6.9798,-6.9893,-7.0448,-7.0363,-7.0121,0.0,0.0,0.0,0.0,0.0,0.0,0.0,0.0,0.0,0.0,-4.3628,-4.3628,0.0,0.0,0.0,0.0,0.0,0.0,0.0,0.0,0.0,-4.4417,-4.5112,-4.6303,-4.8035,-4.8731,-4.9426,-5.0089,-5.069,-5.1101,-5.1385,-5.2554,-5.3155,-5.3313,-5.385,-5.4103,-5.4103,-5.4103,-5.4103,-5.4103,-5.4103,-5.4166,-5.4324,-5.4925,0.0,0.0,-5.6789,-5.7674,-5.8274,-5.8274,-5.8274,-5.8306,-5.8401,-5.8938,-5.957,-6.0139,-6.0897,-6.1687,-6.213,-6.2351,-6.2446,-6.2446,-6.2446,-6.2446,-6.2446,-6.2446,-6.2446,-6.2446,-6.2446,-6.2446,-6.2446,-6.292,-6.3331,-6.3457,-6.4563,-6.5416,-6.5543,-6.6175,-6.6617,0.0,-6.6617,-6.6617,-6.6617,-6.6617,0.0,0.0,0.0,0.0,-6.6617,-6.6617,-6.6796,-6.7388,-6.7388,-6.7899,-6.8994,-6.9091,-6.9382,-6.9798,-6.9798,-6.9798,-6.9798,-6.9798,-6.9798,-6.9798,0.0,0.0,-6.9798,-6.9798,-6.9798,-6.9798,-6.9798,-6.9798,-6.9798,-6.9955,-7.0258,-7.0789,0.0,0.0,0.0,0.0,0.0,0.0,0.0,-4.3628,-4.3628,-4.3628,-4.3628,-4.3628,-4.3628,-4.3628,-4.3761,0.0,0.0,0.0,0.0,0.0,0.0,-4.391,-4.4552,-4.5496,-4.6771,-4.804,-4.8929,-4.9394,0.0,-5.0627,-5.0974,-5.167,-5.2175,-5.2586,-5.3281,-5.3597,-5.3597,-5.3945,-5.4103,-5.4103,-5.4103,-5.4103,-5.4134,-5.4482,0.0,0.0,-5.6852,-5.7674,-5.8274,-5.8274,-5.8274,-5.8274,-5.8274,-5.9001,-5.9886,-6.0202,-6.1087,-6.2003,-6.2351,-6.2446,-6.2446,-6.2446,-6.2446,-6.2446,-6.2446,-6.2446,-6.2513,-6.3068,-6.2808,-6.264,-6.3515,-6.3603,-6.371,-6.4437,-6.5132,-6.5701,-6.6048,-6.6396,-6.6617,-6.6617,-6.6617,-6.6617,-6.6617,-6.6617,0.0,0.0,0.0,0.0,-6.6617,-6.6617,-6.6691,-6.7005,-6.7213,-6.7593,-6.8201,-6.8699,-6.9091,-6.9382,-6.9703,-6.9798,-6.9798,-6.9798,-6.9798,-6.9798,-6.9798,0.0,-6.9798,-6.9798,-6.9798,-6.9798,-6.9798,-7.003,-7.0361,-7.0361,-7.0825,-7.1552,0.0,0.0,0.0,0.0,0.0,0.0,-4.3628,-4.3628,-4.3628,-4.3628,-4.3628,-4.3628,-4.3628,-4.3628,-4.386,0.0,0.0,0.0,0.0,0.0,0.0,0.0,0.0,0.0,-4.5611,0.0,0.0,0.0,-4.9584,0.0,0.0,0.0,0.0,0.0,-5.2554,-5.2965,-5.3123,-5.366,-5.3976,0.0,0.0,-5.4103,0.0,0.0,0.0,0.0,0.0,-5.7453,-5.8085,-5.8211,-5.8274,-5.8274,-5.8274,-5.9191,-6.0297,-6.0297,-6.1308,-6.2446,-6.2446,-6.2446,-6.2446,-6.2446,-6.2446,-6.2446,-6.2446,-6.2446,-6.271,-6.3705,-6.326,-6.3194,-6.4609,-6.4414,-6.4393,-6.5457,-6.5701,-6.5985,-6.6523,-6.6617,-6.6617,-6.6617,-6.6617,0.0,-6.6617,-6.6617,0.0,0.0,0.0,0.0,-6.6617,-6.6617,-6.6617,-6.6617,-6.7005,-6.7285,-6.7388,-6.8201,-6.8699,-6.8797,-6.9382,-6.9607,-6.9607,-6.9798,-6.9798,-6.9798,-6.9798,0.0,0.0,-6.9798,-6.9798,-6.9798,-6.9964,-7.0394,-7.0924,-7.109,-7.162,-7.225,0.0,0.0,0.0,0.0,0.0,0.0,-4.3628,-4.3628,-4.3628,-4.3628,-4.3628,-4.3628,-4.3628,-4.3628,-4.3661,0.0,0.0,0.0,0.0,0.0,0.0,0.0,0.0,0.0,0.0,0.0,0.0,0.0,0.0,0.0,0.0,0.0,0.0,0.0,0.0,0.0,-5.3123,-5.3186,0.0,0.0,0.0,0.0,0.0,0.0,0.0,0.0,0.0,-5.6726,-5.7421,-5.8053,-5.8274,-5.8274,-5.8274,-5.9191,-6.0297,-6.0297,-6.1308,-6.2446,-6.2446,-6.2446,-6.2446,-6.2446,-6.2446,-6.2446,-6.2446,-6.2446,-6.271,-6.3705,-6.38,-6.4026,-6.4801,-6.5352,-6.567,-6.5623,-6.6112,-6.6523,-6.6586,-6.6617,-6.6617,-6.6617,0.0,0.0,-6.6617,-6.6617,0.0,0.0,0.0,0.0,0.0,-6.6617,-6.6617,-6.6617,-6.6617,-6.6901,-6.742,-6.7491,-6.7797,-6.8301,-6.8797,-6.9091,-6.9091,-6.9607,-6.9798,-6.9798,0.0,0.0,0.0,-6.9798,-6.9798,-6.9864,-7.0527,-7.0825,-7.0991,-7.1653,-7.2382,-7.3011,0.0,0.0,0.0,0.0,0.0,0.0,-4.3628,-4.3628,-4.3628,-4.3628,-4.3628,-4.3628,-4.3628,-4.3628,-4.3628,-4.3628,-4.3628,0.0,0.0,0.0,0.0,0.0,0.0,0.0,0.0,0.0,-4.6453,-4.7624,-4.8762,0.0,0.0,0.0,0.0,0.0,0.0,0.0,0.0,-5.2744,0.0,0.0,0.0,0.0,0.0,0.0,0.0,0.0,0.0,0.0,-5.7263,-5.7548,-5.7927,-5.8274,-5.8274,-5.9191,-6.0297,-6.0297,-6.1308,-6.2446,-6.2446,-6.2446,-6.2446,-6.2446,-6.2446,-6.2513,-6.3164,-6.2776,-6.2971,-6.5114,-6.4695,-6.4406,-6.6111,-6.6157,-6.5994,-6.6194,-6.6428,-6.6617,-6.6617,-6.6617,-6.6617,-6.6617,-6.6617,0.0,0.0,0.0,0.0,0.0,0.0,0.0,0.0,-6.6617,-6.6617,-6.6617,-6.6617,-6.6691,-6.6901,-6.7213,-6.7491,-6.7695,-6.8301,-6.8699,-6.8994,-6.9188,-6.9478,-6.9798,0.0,0.0,0.0,-6.9798,-7.0063,-7.0494,-7.0792,-7.1455,-7.2283,-7.2548,-7.3111,-7.374,0.0,0.0,0.0,0.0,0.0,-4.3628,-4.3628,-4.3628,-4.3628,-4.3628,-4.3628,-4.3628,-4.3628,-4.3628,-4.3628,-4.3628,-4.3628,0.0,0.0,0.0,0.0,0.0,0.0,0.0,0.0,0.0,-4.5642,-4.6518,-4.8098,-4.9141,0.0,0.0,0.0,0.0,0.0,0.0,0.0,0.0,0.0,0.0,0.0,0.0,0.0,0.0,0.0,0.0,0.0,0.0,0.0,0.0,0.0,-5.8367,-5.861,-5.9497,-6.0391,-6.0329,-6.1308,-6.2446,-6.2446,-6.2446,-6.2446,-6.2446,-6.2446,-6.271,-6.3705,-6.3164,-6.3228,-6.6081,-6.5382,-6.503,-6.7397,-6.7295,-6.6808,-6.7029,-6.7078,-6.6974,-6.6586,-6.6617,-6.6617,-6.6617,0.0,0.0,0.0,0.0,0.0,0.0,0.0,0.0,0.0,-6.6617,-6.6617,-6.6617,-6.6617,-6.6617,-6.6617,-6.7005,-6.7213,-6.7213,-6.7695,-6.8201,-6.8797,-6.8896,-6.9285,-6.9798,0.0,0.0,0.0,-7.003,-7.0428,-7.0924,-7.1388,-7.2183,-7.3144,-7.3343,-7.374,-7.4171,0.0,0.0,0.0,0.0,0.0,-4.3628,-4.3628,-4.3628,-4.3628,-4.3628,-4.3628,-4.3628,-4.3628,-4.3628,-4.3628,-4.3628,-4.3628,0.0,0.0,0.0,0.0,0.0,0.0,0.0,0.0,0.0,-4.5419,-4.5823,-4.7877,-4.8889,-4.892,-4.9615,-4.9931,-4.9931,0.0,0.0,0.0,0.0,-5.2428,0.0,0.0,0.0,0.0,0.0,0.0,0.0,0.0,0.0,0.0,0.0,0.0,0.0,0.0,-6.0105,-6.0548,-6.036,-6.1308,-6.2446,-6.2446,-6.2446,-6.2446,-6.2446,-6.2446,-6.271,-6.3705,-6.3164,-6.3228,-6.6081,-6.5908,-6.6024,-6.8412,-6.8857,-6.8707,-6.8143,-6.8072,-6.7733,-6.6691,-6.6617,-6.6617,0.0,0.0,0.0,0.0,0.0,0.0,0.0,0.0,0.0,0.0,-6.6617,-6.6617,-6.6617,-6.6617,-6.6617,-6.6617,-6.6617,-6.6617,-6.6617,-6.7109,-6.7695,-6.8201,-6.8797,-6.9285,0.0,0.0,0.0,0.0,-7.0593,-7.0891,-7.1057,-7.2515,-7.3111,-7.321,-7.3906,-7.4171,-7.4171,0.0,0.0,0.0,0.0,0.0,0.0,-4.3628,-4.3628,-4.3628,-4.3628,-4.3628,-4.3628,-4.3628,-4.3628,-4.3628,-4.3628,-4.3628,0.0,0.0,0.0,0.0,0.0,0.0,0.0,0.0,-4.319,-4.3965,-4.5065,-4.6676,-4.794,-4.8889,-4.9615,-4.9931,-4.9931,-4.9931,-5.0058,0.0,-5.1006,-5.2017,0.0,0.0,0.0,0.0,0.0,0.0,0.0,0.0,0.0,0.0,0.0,0.0,0.0,0.0,0.0,0.0,-6.1914,-6.2885,-6.3584,-6.3482,-6.3862,-6.4235,-6.3611,-6.3894,-6.4662,-6.5559,-6.5114,-6.5024,-6.7209,-6.6878,-6.681,-6.8586,-6.8328,-6.7943,-6.8044,-6.7529,-6.6974,-6.6586,-6.6617,0.0,-6.6617,-6.6617,0.0,0.0,0.0,0.0,0.0,0.0,0.0,0.0,0.0,-6.6617,-6.6617,-6.6617,-6.6617,-6.6617,-6.6617,-6.6617,-6.6617,-6.6796,-6.7317,-6.8201,-6.8401,0.0,0.0,0.0,0.0,0.0,-7.0792,-7.1488,-7.2448,-7.2912,-7.3409,-7.3873,-7.4072,-7.4171,-7.4171,0.0,0.0,0.0,0.0,0.0,0.0,-4.3628,-4.3628,-4.3628,-4.3628,-4.3628,-4.3628,-4.3628,-4.3628,-4.3628,-4.3628,-4.3628,0.0,0.0,0.0,0.0,0.0,0.0,0.0,-4.2302,-4.2714,-4.3368,-4.4338,-4.5981,-4.7372,-4.8541,-4.9489,-4.9931,-4.9931,-4.9931,-4.9931,0.0,-5.069,-5.1796,-5.3155,0.0,0.0,-5.4103,0.0,0.0,0.0,0.0,0.0,0.0,0.0,0.0,0.0,0.0,0.0,0.0,0.0,-6.4454,-6.4689,-6.449,-6.4844,-6.5114,-6.4604,-6.4877,-6.5559,-6.6508,-6.5995,-6.5821,-6.7731,-6.7325,-6.7235,-6.9101,-6.8682,-6.8128,-6.86,-6.7802,-6.7078,-6.6691,-6.6617,0.0,-6.6617,0.0,0.0,0.0,0.0,0.0,0.0,0.0,0.0,0.0,0.0,-6.6617,-6.6617,-6.6617,-6.6617,-6.6617,-6.6617,-6.6617,-6.6617,-6.6617,-6.7109,-6.7899,-6.8101,0.0,0.0,0.0,0.0,0.0,-7.1488,-7.2283,-7.3144,-7.3409,-7.3773,-7.4171,-7.4171,-7.4171,-7.4171,0.0,0.0,0.0,0.0,0.0,0.0,0.0,-4.3628,-4.3628,-4.3628,-4.3628,-4.3628,-4.3628,-4.3628,-4.3628,-4.3628,-4.3628,0.0,0.0,0.0,0.0,0.0,0.0,0.0,-4.2585,-4.2912,-4.3317,-4.3706,-4.5728,-4.7119,-4.794,-4.9299,-4.9931,-4.9931,-4.9931,-4.9931,-4.9963,-5.0721,-5.1828,-5.3028,-5.3123,-5.3534,0.0,0.0,0.0,0.0,0.0,0.0,0.0,0.0,0.0,0.0,0.0,0.0,0.0,0.0,0.0,0.0,0.0,-6.547,-6.547,-6.5382,-6.547,-6.5734,-6.6593,-6.6167,0.0,-6.7731,-6.7407,-6.752,-6.9921,-6.9493,-6.8976,-6.9462,-6.8667,-6.7631,-6.6691,-6.6617,0.0,0.0,0.0,0.0,0.0,0.0,0.0,0.0,0.0,0.0,0.0,0.0,-6.6617,-6.6617,-6.6617,-6.6617,-6.6617,-6.6617,-6.6617,-6.6617,-6.6617,-6.6901,-6.7388,-6.7899,0.0,0.0,0.0,0.0,0.0,-7.2416,-7.3144,-7.3243,-7.3906,-7.4171,-7.4171,-7.4171,-7.4171,-7.4171,0.0,0.0,0.0,0.0,0.0,0.0,0.0,0.0,0.0,0.0,-4.3628,-4.3628,-4.3628,-4.3628,-4.3628,0.0,0.0,0.0,0.0,0.0,0.0,0.0,0.0,0.0,-4.2238,-4.2075,-4.2509,-4.3674,-4.5254,-4.6676,-4.794,-4.9299,-4.9931,-4.9931,-4.9931,-4.9931,-4.9995,-5.1227,-5.1954,-5.2365,-5.3439,-5.3945,0.0,0.0,0.0,0.0,-5.4327,-5.5467,0.0,0.0,0.0,0.0,0.0,0.0,0.0,0.0,-6.5876,-6.6109,-6.7158,0.0,-6.7291,-6.6508,-6.6878,-6.7488,0.0,-6.7569,-6.7569,-6.8004,-6.7925,-6.8292,-7.0118,-6.8944,-6.8128,-6.9368,-6.8104,-6.6869,-6.6586,0.0,0.0,0.0,0.0,0.0,0.0,0.0,0.0,0.0,0.0,0.0,0.0,0.0,-6.6617,-6.6617,-6.6617,-6.6617,-6.6617,-6.6617,-6.6617,-6.6617,-6.6617,-6.6901,-6.7388,-6.7491,0.0,0.0,0.0,0.0,-7.1192,-7.208,-7.2973,-7.3939,-7.4105,-7.4171,-7.4171,-7.4171,-7.4171,-7.4171,0.0,0.0,0.0,0.0,0.0,0.0,0.0,0.0,0.0,0.0,-4.3628,-4.3628,-4.3628,-4.3628,-4.3628,0.0,0.0,0.0,0.0,0.0,0.0,0.0,0.0,-4.2522,-4.2333,-4.1851,-4.2351,-4.3949,-4.5199,-4.6518,-4.794,-4.9299,-4.9931,-4.9931,-4.9931,-4.9931,-4.9995,-5.1069,-5.1701,-5.2112,-5.3218,0.0,0.0,0.0,0.0,0.0,-5.4685,-5.5734,0.0,-5.7838,-5.9192,-6.0671,0.0,0.0,0.0,0.0,-6.5876,-6.6221,-6.7704,-6.8083,-6.8004,-6.7488,-6.7731,-6.8083,-6.8083,-6.8083,-6.8083,-6.8083,-6.8083,-6.8407,-6.9472,-6.8472,-6.7757,-6.8698,-6.7631,-6.6617,0.0,0.0,0.0,0.0,0.0,0.0,0.0,0.0,0.0,0.0,0.0,0.0,0.0,0.0,-6.6617,-6.6617,-6.6617,-6.6617,-6.6617,-6.6617,-6.6617,-6.6617,-6.6617,-6.6691,-6.7005,-6.7317,0.0,0.0,0.0,0.0,-7.1304,-7.202,-7.2958,-7.3731,-7.3731,-7.3968,-7.4171,-7.4171,-7.4171,-7.4171,0.0,0.0,0.0,0.0,0.0,0.0,0.0,0.0,0.0,0.0,0.0,0.0,0.0,0.0,0.0,0.0,0.0,0.0,0.0,0.0,0.0,0.0,-4.2772,-4.2585,-4.2522,-4.2011,-4.2512,-4.4086,-4.5366,-4.6613,-4.794,-4.9299,-4.9931,-4.9931,-4.9931,-4.9995,-5.0121,-5.0816,-5.1543,-5.2238,-5.2965,0.0,0.0,0.0,0.0,0.0,0.0,0.0,0.0,-5.8407,-5.9945,-6.1387,-6.2089,0.0,0.0,0.0,0.0,0.0,-6.7704,-6.8083,-6.8083,-6.8083,-6.8083,-6.8083,-6.8083,-6.8083,-6.8083,-6.8083,-6.8083,-6.8292,-6.8759,-6.8025,-6.757,-6.8044,-6.7253,0.0,0.0,0.0,0.0,0.0,0.0,0.0,0.0,0.0,0.0,0.0,0.0,0.0,0.0,0.0,0.0,-6.6617,-6.6617,-6.6617,-6.6617,-6.6617,-6.6617,-6.6617,-6.6617,-6.6617,-6.6617,-6.7205,0.0,0.0,0.0,0.0,-7.1367,-7.2207,-7.2786,-7.3214,-7.3285,-7.3628,-7.407,-7.4171,-7.4171,-7.4171,0.0,0.0,0.0,0.0,0.0,0.0,0.0,0.0,0.0,0.0,0.0,0.0,0.0,0.0,0.0,0.0,0.0,0.0,0.0,0.0,0.0,-4.2648,-4.2648,-4.2459,-4.2174,-4.2389,-4.2916,-4.3775,-4.5665,-4.7087,-4.794,-4.9299,-4.9931,-4.9931,-4.9931,-5.0247,-5.0848,-5.1543,-5.227,-5.2997,-5.366,0.0,0.0,0.0,0.0,0.0,0.0,0.0,0.0,-5.8869,-5.9984,-6.1461,-6.2213,0.0,0.0,0.0,0.0,0.0,-6.7704,-6.8083,-6.8083,-6.8083,-6.8083,-6.8083,-6.8083,-6.8083,-6.8083,-6.8083,-6.8083,-6.8292,-6.8759,-6.8025,-6.757,0.0,0.0,0.0,0.0,0.0,0.0,0.0,0.0,0.0,0.0,0.0,0.0,0.0,0.0,0.0,0.0,0.0,0.0,-6.6617,-6.6617,-6.6617,-6.6617,-6.6617,-6.6617,-6.6617,-6.6617,-6.6617,-6.6617,-6.7293,-6.7609,0.0,0.0,-7.0709,-7.0792,-7.2073,-7.2594,-7.2688,-7.311,-7.3422,-7.3525,-7.407,-7.4171,-7.4171,0.0,0.0,0.0,0.0,0.0,0.0,0.0,0.0,0.0,0.0,0.0,0.0,0.0,0.0,0.0,0.0,0.0,0.0,0.0,-4.2772,-4.2522,-4.2365,-4.2333,-4.2238,-4.2109,-4.2516,-4.3079,-4.3981,-4.5864,-4.7182,-4.794,-4.9299,-4.9931,-4.9931,-4.9931,-5.0311,-5.1006,-5.1701,-5.2428,-5.3155,0.0,0.0,0.0,0.0,0.0,0.0,0.0,0.0,0.0,0.0,-6.035,-6.1427,-6.2255,0.0,0.0,0.0,0.0,0.0,-6.7704,-6.8083,-6.8004,-6.7488,-6.7291,-6.7291,-6.7291,-6.7291,-6.7291,-6.7291,-6.7291,-6.7319,-6.7273,0.0,-6.6744,-6.7202,0.0,0.0,0.0,0.0,0.0,0.0,0.0,0.0,0.0,0.0,0.0,0.0,0.0,0.0,0.0,0.0,0.0,0.0,-6.6617,-6.6617,-6.6617,-6.6617,-6.6617,-6.6617,-6.6617,-6.6807,-6.7155,-6.785,-6.8608,-6.9398,0.0,-7.1281,-7.133,-7.1966,-7.2141,-7.2046,-7.223,-7.2762,-7.3389,-7.3968,-7.4171,-7.4171,0.0,0.0,0.0,0.0,0.0,0.0,0.0,0.0,0.0,0.0,0.0,0.0,0.0,0.0,0.0,0.0,0.0,0.0,0.0,-4.2459,-4.2269,-4.2109,-4.2045,-4.198,-4.198,-4.2608,-4.34,-4.4341,-4.6158,-4.7498,-4.8383,-4.9426,-4.9931,-4.9931,-5.0089,-5.0563,-5.1259,-5.1986,-5.2681,-5.3376,0.0,0.0,0.0,0.0,0.0,0.0,0.0,0.0,0.0,0.0,0.0,0.0,0.0,0.0,0.0,-6.5428,-6.5876,-6.6221,-6.7704,-6.8083,-6.7845,-6.6962,-6.6878,-6.6878,-6.6424,-6.6508,-6.6627,-6.6424,-6.6339,-6.6256,-6.5996,-6.5964,0.0,0.0,0.0,0.0,0.0,0.0,0.0,0.0,0.0,0.0,0.0,0.0,0.0,0.0,0.0,0.0,0.0,0.0,0.0,0.0,-6.6617,-6.6617,-6.6617,-6.6617,-6.6617,-6.6617,-6.6775,-6.7186,-6.7881,-6.8766,-6.9872,-7.1073,-7.1926,-7.2116,-7.1832,-7.199,-7.1742,-7.1392,-7.158,-7.2337,-7.3422,-7.3833,-7.407,-7.4171,0.0,0.0,0.0,0.0,0.0,0.0,0.0,0.0,0.0,0.0,0.0,0.0,0.0,0.0,0.0,0.0,0.0,0.0,0.0,-4.2013,-4.1785,-4.2109,-4.1785,-4.1654,-4.1654,-4.2916,-4.3959,-4.4622,-4.6771,-4.8478,-4.9773,-4.9868,-4.9931,-4.9963,-5.0627,-5.129,-5.1986,-5.2712,-5.3408,-5.404,-5.4071,0.0,0.0,0.0,0.0,0.0,0.0,0.0,0.0,0.0,0.0,0.0,0.0,0.0,-6.391,-6.5428,-6.5876,-6.6221,-6.7704,-6.8083,-6.7845,-6.6962,-6.7373,-6.7569,-6.5821,-6.6081,-6.6424,-6.5559,-6.5382,0.0,0.0,-6.623,0.0,0.0,0.0,0.0,0.0,0.0,0.0,0.0,0.0,0.0,0.0,0.0,0.0,0.0,0.0,0.0,0.0,0.0,0.0,0.0,0.0,-6.6617,-6.6617,-6.6617,-6.6617,-6.6617,-6.7218,-6.7913,-6.8671,-7.003,-7.1042,-7.1832,-7.3159,-7.3033,-7.1863,-7.2464,-7.1958,-7.0869,-7.1392,-7.2337,-7.3285,-7.3318,-7.3731,-7.4171,0.0,0.0,0.0,0.0,0.0,0.0,0.0,0.0,0.0,0.0,0.0,-4.3295,-4.3295,0.0,0.0,0.0,0.0,0.0,-4.2302,-4.1851,-4.1654,-4.1785,-4.1654,-4.181,-4.2252,-4.32,-4.4022,-4.4717,-4.7277,-4.8983,-4.9931,-4.9931,-5.0153,-5.0595,-5.0848,-5.1606,-5.2712,-5.2997,-5.3502,-5.4103,-5.4103,-5.4412,0.0,0.0,0.0,0.0,0.0,0.0,0.0,0.0,-6.0278,-6.1427,-6.2255,-6.3013,-6.391,-6.5428,-6.5876,-6.6221,-6.7704,-6.765,-6.7127,-6.6795,-6.6508,-6.6167,-6.547,-6.5559,-6.5559,-6.4604,-6.442,0.0,0.0,0.0,0.0,0.0,0.0,0.0,0.0,0.0,0.0,0.0,0.0,0.0,0.0,0.0,0.0,0.0,0.0,0.0,0.0,0.0,0.0,0.0,0.0,-6.6617,-6.6617,-6.6617,-6.6807,-6.7218,-6.7945,-6.864,-6.9367,-7.12,-7.2432,-7.3159,-7.4107,-7.3728,-7.2464,-7.2717,-7.2021,-7.0869,-7.1392,-7.2122,-7.2794,-7.3214,-7.3731,-7.4171,0.0,0.0,0.0,0.0,0.0,0.0,0.0,0.0,-4.3052,0.0,0.0,0.0,0.0,-4.2618,0.0,0.0,0.0,0.0,-4.1916,-4.172,-4.1588,-4.1588,-4.1588,-4.1936,-4.2663,-4.3579,-4.4464,-4.5381,-4.794,-4.9457,-4.9931,-5.0153,-5.05,-5.1006,-5.1448,-5.2207,-5.3123,-5.3344,-5.3692,-5.4103,-5.4103,-5.438,0.0,0.0,0.0,0.0,0.0,0.0,0.0,0.0,-6.0232,-6.1174,-6.2423,-6.3186,-6.391,-6.5428,-6.5688,-6.5764,-6.7239,-6.6962,-6.6253,-6.6253,-6.5734,-6.5204,-6.4967,-6.4877,-6.4604,-6.3611,-6.3806,-6.4124,-6.4444,0.0,0.0,0.0,0.0,0.0,0.0,0.0,0.0,0.0,0.0,0.0,0.0,0.0,0.0,0.0,0.0,0.0,0.0,0.0,0.0,0.0,0.0,0.0,-6.6617,-6.6617,-6.6933,-6.7597,-6.8798,-6.9714,-7.041,-7.2306,-7.3538,-7.4233,-7.4707,-7.4107,-7.2811,-7.2811,-7.2021,-7.0901,-7.1171,-7.1721,-7.2262,-7.29,-7.3422,-7.3935,0.0,0.0,0.0,0.0,0.0,0.0,0.0,0.0,-4.2958,-4.2648,-4.2896,0.0,0.0,0.0,0.0,0.0,0.0,0.0,-4.1588,-4.1588,-4.1588,-4.1588,-4.1588,-4.1936,-4.2695,-4.4053,-4.5444,-4.6803,-4.8889,-4.9931,-4.9931,-5.0627,-5.0974,-5.1037,-5.246,-5.3123,-5.3155,-5.3818,-5.4103,-5.4103,-5.4103,-5.4103,-5.4103,0.0,0.0,0.0,0.0,0.0,0.0,0.0,-6.075,-6.0502,-6.2861,-6.36,-6.391,-6.5428,-6.5152,-6.4701,-6.6271,-6.5995,-6.5293,-6.5293,-6.5293,-6.5024,-6.4081,-6.3894,-6.3611,-6.2612,-6.3552,-6.4532,-6.4532,0.0,0.0,0.0,0.0,0.0,0.0,0.0,0.0,0.0,0.0,0.0,0.0,0.0,0.0,0.0,0.0,0.0,0.0,0.0,0.0,0.0,0.0,0.0,-6.6617,-6.6617,-6.6933,-6.7629,-6.9778,-7.1136,-7.1863,-7.3285,-7.4265,-7.4897,-7.4897,-7.4107,-7.2811,-7.278,-7.199,-7.0789,-7.0789,-7.1092,-7.1689,-7.2262,-7.2794,-7.3422,0.0,0.0,0.0,0.0,0.0,0.0,0.0,0.0,-4.2365,-4.2302,-4.2365,0.0,0.0,0.0,0.0,0.0,0.0,0.0,-4.1916,-4.172,-4.1588,-4.1588,-4.1588,-4.2378,-4.4085,-4.6424,-4.7846,-4.8256,-4.9394,-4.9931,-4.9931,-5.0627,-5.1227,-5.1733,-5.2681,-5.3376,-5.3818,-5.4008,-5.4103,-5.4103,-5.4103,-5.4103,-5.4103,0.0,0.0,0.0,0.0,0.0,0.0,0.0,0.0,0.0,-6.213,-6.2702,-6.2974,-6.4472,-6.464,-6.4619,-6.5507,-6.5024,-6.4512,-6.5114,-6.4328,-6.3324,-6.38,-6.3894,-6.3611,0.0,-6.3552,-6.4532,-6.4532,0.0,0.0,0.0,0.0,0.0,0.0,0.0,0.0,0.0,0.0,0.0,0.0,0.0,0.0,0.0,0.0,0.0,0.0,0.0,0.0,0.0,0.0,0.0,-6.6617,-6.6617,-6.7186,-6.8387,-6.9999,-7.1136,-7.1895,-7.3759,-7.4707,-7.4897,-7.4897,-7.4107,-7.2748,-7.1768,-7.1136,-7.0789,-7.0789,-7.1092,-7.158,-7.1798,-7.2443,-7.3318,0.0,0.0,0.0,0.0,0.0,0.0,-4.1425,-4.1851,-4.2109,-4.2109,-4.2109,-4.2045,0.0,0.0,0.0,-4.1916,-4.172,0.0,-4.1916,-4.172,-4.1588,-4.1588,-4.1873,-4.3137,-4.5476,-4.7751,-4.9015,-4.9299,-4.971,-5.0058,-5.0342,-5.1069,-5.1764,-5.2491,-5.3186,-5.3724,-5.4103,-5.4103,-5.4103,-5.4103,-5.4103,-5.4103,-5.4103,0.0,0.0,0.0,0.0,0.0,0.0,0.0,0.0,0.0,-6.1213,-6.1971,-6.2441,-6.35,-6.3818,-6.3856,-6.4548,-6.4049,-6.342,-6.4049,-6.3228,-6.2513,-6.3164,0.0,0.0,0.0,-6.3552,-6.4532,-6.4532,0.0,0.0,0.0,0.0,0.0,0.0,0.0,0.0,0.0,0.0,0.0,0.0,0.0,0.0,0.0,0.0,0.0,0.0,0.0,0.0,0.0,0.0,0.0,-6.6617,-6.6617,-6.7313,-6.8703,-6.9809,-7.101,-7.2274,-7.4075,-7.4897,-7.4866,-7.4297,-7.357,-7.2685,-7.1326,-7.0789,-7.0789,-7.0789,-7.0981,-7.1282,-7.147,-7.2014,-7.2656,0.0,0.0,-3.9748,-3.9889,0.0,0.0,-4.1292,-4.1754,-4.2045,-4.2045,-4.2045,-4.1916,0.0,0.0,0.0,-4.1588,-4.1588,-4.1588,-4.1588,-4.1588,-4.1588,-4.1588,-4.2473,-4.4211,-4.6834,-4.8256,-4.9299,-4.9931,-4.9995,-5.0342,-5.1006,-5.1764,-5.246,-5.3123,-5.3787,-5.4103,-5.4103,-5.4103,-5.4103,-5.4103,-5.4103,-5.4103,-5.4103,-5.4166,0.0,0.0,0.0,0.0,0.0,0.0,0.0,0.0,-6.0304,-6.1249,-6.2009,-6.2789,-6.2844,-6.2862,-6.3606,-6.3068,-6.2446,-6.2446,-6.2446,0.0,-6.2446,-6.2446,-6.2446,-6.2509,0.0,-6.4532,0.0,0.0,0.0,0.0,0.0,0.0,0.0,0.0,0.0,0.0,0.0,0.0,0.0,0.0,0.0,0.0,0.0,0.0,0.0,0.0,0.0,0.0,0.0,0.0,-6.6617,-6.6617,-6.7313,0.0,-6.9367,-7.0789,-7.2843,-7.4202,-7.4834,-7.4802,-7.3412,-7.2811,-7.2685,-7.1326,-7.0789,-7.0789,-7.0789,-7.0789,-7.0869,-7.1392,-7.158,-7.1798,0.0,0.0,-3.8841,-3.9748,0.0,0.0,-4.1358,-4.1654,-4.172,-4.172,-4.172,-4.1654,-4.1588,-4.1588,0.0,-4.1588,-4.1588,-4.1588,-4.1588,-4.1588,-4.1588,-4.1588,-4.3864,-4.595,-4.7624,-4.8983,-4.9773,-4.9931,-5.0469,-5.0816,-5.1006,-5.227,-5.2965,-5.3123,-5.3787,-5.4103,-5.4103,-5.4103,-5.4103,-5.4103,-5.4103,-5.4103,-5.4166,-5.4703,-5.4893,0.0,0.0,0.0,0.0,0.0,0.0,0.0,-5.9555,-6.0337,-6.1052,-6.1768,-6.2334,-6.2676,-6.2682,-6.2513,-6.2446,-6.2446,-6.2446,-6.2446,-6.2446,-6.2446,-6.2572,-6.3141,-6.3931,0.0,0.0,0.0,0.0,0.0,0.0,0.0,0.0,0.0,0.0,0.0,0.0,0.0,0.0,0.0,0.0,0.0,0.0,0.0,0.0,0.0,0.0,0.0,0.0,-6.6617,-6.6617,-6.6617,-6.7313,0.0,-6.9367,-7.0789,-7.2843,-7.3728,-7.4391,-7.4802,-7.3412,-7.2811,-7.2685,-7.1326,-7.0789,-7.0789,-7.0789,-7.0789,-7.0789,-7.0869,-7.1282,-7.1689,0.0,0.0,0.0,0.0,0.0,0.0,0.0,0.0,-4.1999,-4.162,-4.1588,-4.1588,-4.1588,-4.1588,0.0,0.0,-4.1588,-4.1588,-4.1588,-4.1588,-4.2031,-4.3042,-4.5476,-4.7308,-4.8351,-4.9394,-5.0089,-5.0437,-5.1132,-5.148,-5.148,-5.2586,-5.3281,-5.3597,-5.3945,-5.4103,-5.4103,-5.4103,-5.4103,-5.4134,-5.4451,-5.4577,-5.4672,-5.5367,-5.5651,-5.5715,-5.6441,0.0,0.0,0.0,0.0,0.0,0.0,0.0,-6.1052,-6.1436,-6.2044,-6.2492,-6.2418,-6.2446,-6.2446,-6.2446,0.0,-6.2446,-6.2446,-6.2446,-6.273,-6.3773,0.0,0.0,0.0,0.0,0.0,0.0,0.0,0.0,0.0,0.0,0.0,0.0,0.0,0.0,0.0,0.0,0.0,0.0,0.0,0.0,0.0,0.0,0.0,0.0,-6.6617,-6.6617,-6.6617,-6.6617,-6.7313,-6.8703,-6.9051,-7.0473,-7.2843,-7.3886,-7.4581,-7.4802,-7.3412,-7.2811,-7.2685,-7.1326,-7.0789,-7.0789,-7.0789,-7.0789,-7.0789,-7.0789,-7.0981,-7.1282,0.0,0.0,0.0,0.0,0.0,0.0,0.0,0.0,0.0,-4.1551,-4.1522,-4.1588,-4.1588,-4.1588,-4.1588,0.0,0.0,0.0,-4.1588,-4.181,-4.2947,-4.5159,-4.6961,-4.8256,-4.9047,-4.9742,-5.0405,-5.0974,-5.1796,-5.2207,-5.2207,-5.2934,-5.3566,-5.4103,-5.4103,-5.4103,-5.4103,-5.4103,-5.4166,-5.4324,-5.4893,-5.5209,-5.5399,-5.6094,-5.6378,-5.6441,-5.7168,-5.739,-5.7516,-5.8211,0.0,0.0,0.0,0.0,-6.1403,-6.1403,-6.1877,-6.2446,-6.2446,-6.2446,-6.2446,-6.2446,-6.2446,0.0,-6.2446,-6.2509,-6.2983,0.0,0.0,0.0,0.0,0.0,0.0,0.0,0.0,0.0,0.0,0.0,0.0,0.0,0.0,0.0,0.0,0.0,0.0,0.0,0.0,0.0,0.0,0.0,-6.6617,-6.6617,-6.6617,-6.6617,-6.6617,-6.6617,-6.7313,-6.8703,-6.9051,-7.0473,-7.2843,-7.4139,-7.4771,-7.4834,-7.3538,-7.2938,-7.2717,-7.1484,-7.0884,-7.0789,-7.0789,-7.0789,-7.0789,-7.0789,-7.0789,-7.0901,0.0,0.0,0.0,0.0,0.0,0.0,0.0,0.0,0.0,0.0,-4.1323,-4.1588,-4.1588,-4.1588,-4.1588,-4.1588,-4.1588,-4.1588,-4.1588,0.0,0.0,-4.734,-4.7751,-4.8509,-4.9742,-5.0469,-5.0879,-5.0974,-5.2302,-5.2965,-5.2965,-5.366,-5.4008,-5.4103,-5.4103,-5.4103,-5.4103,-5.4103,-5.4451,-5.4988,-5.5083,-5.5493,-5.6125,-5.6821,-5.7073,-5.7168,-5.7864,-5.8116,-5.8243,-5.8938,-5.9222,0.0,0.0,0.0,-6.1403,-6.1403,-6.1877,-6.2446,-6.2446,-6.2446,-6.2446,0.0,-6.2446,-6.2446,0.0,0.0,-6.3552,0.0,0.0,0.0,0.0,0.0,0.0,0.0,0.0,0.0,0.0,0.0,0.0,0.0,0.0,0.0,0.0,0.0,0.0,0.0,0.0,0.0,0.0,-6.6617,-6.6617,-6.6617,-6.6617,-6.6617,-6.6617,-6.6617,-6.7313,-6.8703,-7.0536,-7.1895,-7.2843,-7.3665,-7.436,-7.4866,-7.4075,-7.338,-7.2748,-7.199,-7.1326,-7.0789,-7.0789,-7.0789,-7.0789,-7.0789,-7.0789,-7.0901,0.0,0.0,0.0,0.0,0.0,0.0,0.0,0.0,0.0,0.0,0.0,-4.1256,-4.1588,-4.1588,-4.1588,-4.1588,-4.2315,-4.3105,-4.3895,-4.5254,-4.6613,-4.7846,-4.8636,-4.9489,-5.05,-5.0816,-5.1353,-5.2175,-5.2807,-5.3281,-5.366,-5.3945,-5.4103,-5.4103,-5.4103,-5.4103,-5.4134,-5.4514,-5.4861,-5.5209,-5.5999,-5.6473,-5.6852,-5.7548,-5.78,-5.7895,-5.859,-5.8843,-5.8938,-5.9633,-6.0139,-6.0518,-6.0803,0.0,0.0,0.0,-6.2193,-6.2446,-6.2446,-6.2446,-6.2446,0.0,-6.2446,-6.2541,-6.292,0.0,0.0,0.0,0.0,0.0,0.0,0.0,0.0,0.0,0.0,0.0,0.0,0.0,0.0,0.0,0.0,0.0,0.0,0.0,0.0,0.0,0.0,0.0,-6.6617,-6.6617,-6.6617,-6.6617,-6.6617,-6.6617,-6.6617,-6.6617,-6.7313,-6.8735,-7.082,-7.1958,-7.2274,-7.3412,-7.4265,-7.4866,-7.4202,-7.3475,-7.2748,-7.2085,-7.1389,-7.0789,-7.0789,-7.0789,-7.0789,-7.0789,-7.0789,-7.0789,0.0,0.0,0.0,0.0,0.0,0.0,0.0,0.0,0.0,0.0,0.0,-4.0982,-4.161,0.0,0.0,0.0,-4.3516,-4.4843,-4.6266,-4.7308,-4.8035,-4.8383,-4.9552,-5.0437,-5.0974,-5.1322,-5.2049,-5.3123,-5.3281,-5.3629,-5.4103,-5.4103,-5.4103,-5.4103,-5.4103,-5.4198,-5.4387,-5.4925,-5.5335,-5.5746,-5.6789,-5.7326,-5.7548,-5.8085,-5.8369,-5.859,-5.9128,-5.9412,-5.9665,-6.036,-6.0929,-6.1435,-6.1593,-6.2003,0.0,0.0,0.0,-6.2446,-6.2446,-6.2446,-6.2446,-6.2446,-6.2572,-6.2825,0.0,0.0,0.0,0.0,0.0,0.0,0.0,0.0,0.0,0.0,0.0,0.0,0.0,0.0,0.0,0.0,0.0,0.0,0.0,0.0,0.0,0.0,0.0,0.0,-6.6617,-6.6617,-6.6617,-6.6617,-6.6617,-6.6617,-6.6617,-6.6775,-6.7471,-6.8703,-7.0441,-7.1452,-7.1863,-7.2906,-7.3823,-7.4613,-7.4297,-7.3759,-7.3033,-7.2337,-7.1674,-7.1042,-7.0852,-7.0789,-7.0789,-7.0789,-7.0789,-7.0789,0.0,0.0,0.0,0.0,0.0,0.0,0.0,0.0,0.0,0.0,0.0,-4.1031,-4.1721,-4.2893,-4.3864,-4.4496,-4.5254,-4.6297,-4.7688,-4.7846,-4.8478,-4.9773,-5.0532,0.0,-5.0974,-5.2302,-5.3028,-5.3123,-5.3755,-5.4071,-5.4103,-5.4103,-5.4103,-5.4103,-5.4103,-5.4451,-5.5083,-5.5114,-5.5904,-5.7137,-5.72,-5.7611,-5.8211,-5.8274,-5.8685,-5.9254,-5.9286,-5.9728,-6.036,-6.1087,-6.1371,-6.1498,-6.2161,-6.2414,-6.2446,0.0,0.0,0.0,-6.2446,-6.2446,-6.2446,-6.2446,-6.292,-6.3426,0.0,0.0,0.0,0.0,0.0,0.0,0.0,0.0,0.0,0.0,0.0,0.0,0.0,0.0,0.0,0.0,0.0,0.0,0.0,0.0,0.0,0.0,0.0,0.0,-6.6617,-6.6617,-6.6617,-6.6617,-6.6617,-6.6617,-6.6617,-6.7218,-6.7945,-6.8703,-6.943,-7.0504,-7.1832,-7.1895,-7.2653,-7.3981,-7.4581,-7.4455,-7.3791,-7.3064,-7.2369,-7.1705,-7.1042,-7.0789,-7.0789,-7.0789,-7.0789,-7.0789,0.0,0.0,0.0,0.0,0.0,0.0,0.0,0.0,0.0,0.0,0.0,0.0,0.0,-4.3873,-4.4695,-4.5309,-4.6487,-4.7751,-4.911,-4.9615,-5.0089,-5.0563,-5.1259,-5.1859,-5.2333,-5.2839,-5.3313,-5.3755,-5.3976,-5.4103,-5.4103,-5.4103,-5.4324,-5.4767,-5.4767,-5.4893,-5.5177,-5.6094,-5.6757,-5.7263,-5.7706,-5.8053,-5.8338,-5.878,-5.9096,-5.9412,-6.0329,0.0,-6.1119,-6.1814,-6.2067,-6.2098,-6.2351,-6.2446,-6.2446,-6.2446,-6.2446,-6.2446,-6.2446,-6.2446,-6.2541,-6.2983,-6.3299,-6.371,-6.4626,0.0,0.0,0.0,0.0,0.0,0.0,0.0,0.0,0.0,0.0,0.0,0.0,0.0,0.0,0.0,0.0,0.0,0.0,0.0,0.0,0.0,0.0,0.0,-6.6617,-6.6617,-6.6617,-6.6617,-6.6617,-6.6617,-6.6617,-6.7249,-6.7976,-6.8703,-6.9367,-7.0188,-7.1168,-7.161,-7.2085,-7.2622,-7.3759,-7.4139,-7.3886,-7.3601,-7.2843,-7.18,-7.1547,-7.1168,-7.0789,-7.0789,-7.0789,-7.0789,0.0,0.0,0.0,-3.8841,0.0,-3.8986,-3.9421,-3.9683,-4.013,-4.093,0.0,0.0,0.0,0.0,-4.5557,-4.6743,-4.8103,-4.9299,-5.0216,-5.0943,-5.1322,-5.1322,-5.1986,-5.2618,-5.3092,-5.3123,-5.3439,-5.4103,-5.3882,-5.3882,-5.4103,-5.4324,-5.4703,-5.5146,-5.562,-5.5841,-5.5904,-5.6821,-5.7358,-5.7611,-5.8085,-5.8401,-5.8654,-5.9128,-5.9602,-6.0139,0.0,0.0,-6.1814,-6.2288,-6.2446,-6.2446,-6.2446,-6.2446,-6.2446,-6.2446,-6.2604,-6.2793,-6.2793,-6.2951,-6.3236,-6.371,-6.3994,-6.4437,-6.5353,0.0,0.0,0.0,0.0,0.0,0.0,0.0,0.0,0.0,0.0,0.0,0.0,0.0,0.0,0.0,0.0,0.0,0.0,0.0,0.0,0.0,0.0,0.0,-6.6617,-6.6617,-6.6617,-6.6617,-6.6617,-6.6617,-6.6617,-6.7028,-6.7755,-6.8703,-6.9146,-6.9841,-7.0789,-7.1263,-7.161,-7.1863,-7.2811,-7.3475,-7.3917,-7.3917,-7.3222,-7.2116,-7.1895,-7.1389,-7.0789,-7.0789,-7.0789,-7.0789,-3.9973,-4.0089,-4.0118,-4.0118,-4.0118,-4.0147,-4.0176,-4.0728,-4.1163,-4.1163,0.0,0.0,0.0,0.0,0.0,-4.8759,-5.016,-5.1006,-5.1006,-5.1638,-5.2049,-5.2049,-5.2744,-5.3123,-5.3123,-5.3123,-5.3439,-5.4103,-5.3439,-5.3471,-5.4134,-5.483,-5.5146,-5.5241,-5.6599,-5.7231,-5.7263,-5.7263,-5.7674,-5.8306,-5.8306,-5.8717,-5.9349,-5.9349,-6.0202,-6.1403,-6.1403,-6.1845,0.0,-6.2446,-6.2446,-6.2446,-6.2446,-6.2446,-6.2446,-6.2446,-6.2951,-6.352,0.0,0.0,0.0,-6.4532,0.0,0.0,-6.5606,0.0,0.0,0.0,0.0,0.0,0.0,0.0,0.0,0.0,0.0,0.0,0.0,0.0,0.0,0.0,0.0,0.0,0.0,0.0,0.0,0.0,0.0,-6.6617,-6.6617,-6.6617,-6.6617,-6.6617,-6.6617,-6.6617,-6.6617,-6.6617,-6.7313,-6.8703,-6.8703,-6.943,-7.0789,-7.0789,-7.1136,-7.18,-7.18,-7.259,-7.3854,-7.3886,-7.3475,-7.278,-7.2116,-7.1421,-7.082,-7.0789,-7.0789,-7.0789,-4.006,-4.0089,-4.0263,-4.0728,-4.0815,-4.1134,-4.2063,-4.2353,-4.2644,0.0,0.0,0.0,-4.5243,-4.6966,-4.845,-4.9413,-4.9947,-5.0125,-5.0125,-5.132,-5.1981,-5.1981,-5.3184,-5.3818,-5.3818,-5.3818,-5.3913,-5.4103,-5.3913,-5.4166,-5.4861,-5.5051,-5.5683,-5.6663,-5.7042,-5.7516,-5.799,-5.799,-5.8369,-5.9033,-5.9033,-5.9412,-6.0076,-6.0613,-6.1055,-6.1466,0.0,-6.2256,-6.2446,0.0,-6.2446,-6.2446,-6.2446,-6.2793,-6.3204,-6.3204,-6.3678,-6.4216,-6.4216,0.0,0.0,0.0,0.0,0.0,-6.6207,-6.6459,0.0,0.0,0.0,0.0,0.0,0.0,0.0,0.0,0.0,0.0,0.0,0.0,0.0,0.0,0.0,0.0,0.0,0.0,0.0,0.0,-6.6617,-6.6617,-6.6617,-6.6617,-6.6617,-6.6617,-6.6617,-6.6617,-6.6617,-6.6617,-6.7313,-6.8703,-6.8703,-6.943,-7.0789,-7.0789,-7.0884,-7.1105,-7.161,-7.2021,-7.2464,-7.3475,-7.3791,-7.3538,-7.2811,-7.2116,-7.1452,-7.0978,-7.0789,-7.0789,-4.1628,-4.1715,-4.1831,-4.2237,-4.2295,-4.2557,-4.3282,-4.3631,-4.4037,0.0,0.0,0.0,-4.6579,-4.8,-4.8984,-4.9344,-4.9883,-5.0243,-5.0243,-5.1594,-5.2436,-5.2436,-5.3507,-5.4103,-5.4103,-5.3818,-5.3818,-5.4103,-5.4103,-5.4451,-5.5146,-5.5715,-5.6441,-5.7231,-5.7516,-5.8053,-5.8717,-5.8717,-5.8938,-5.9349,-5.9222,0.0,0.0,-6.0266,-6.0709,-6.1352,0.0,0.0,-6.2446,-6.2446,-6.2446,0.0,0.0,-6.3141,-6.352,-6.3836,-6.4405,-6.4942,-6.4942,-6.5164,-6.548,-6.589,0.0,0.0,-6.6523,-6.6617,-6.6617,0.0,0.0,0.0,0.0,0.0,0.0,0.0,0.0,0.0,0.0,0.0,0.0,0.0,0.0,0.0,0.0,0.0,0.0,0.0,-6.6617,-6.6617,-6.6617,-6.6617,-6.6617,-6.6617,-6.6617,-6.6617,-6.6617,-6.6617,-6.7155,-6.8229,-6.8545,-6.9272,-7.0315,-7.0631,-7.0789,-7.0789,-7.12,-7.1547,-7.1895,-7.2685,-7.3191,-7.338,-7.2653,-7.2148,-7.1737,-7.1042,-7.0789,-7.0789,0.0,-4.3979,-4.4008,-4.4066,-4.4153,-4.4211,-4.4298,-4.4821,-4.543,0.0,-4.6592,-4.7172,-4.7811,-4.8429,-4.8827,-4.8886,-5.0064,-5.0789,-5.0789,-5.206,-5.2757,-5.2757,-5.3465,-5.3899,-5.4017,-5.3512,-5.3544,-5.4198,-5.4292,-5.4672,-5.5399,-5.6631,-5.7295,-5.7484,-5.8116,-5.878,-5.9412,-5.9507,-5.9444,-5.9286,-5.9203,-5.9656,0.0,0.0,-5.9869,-6.1175,-6.1175,-6.1683,-6.2446,-6.2446,-6.2477,0.0,0.0,0.0,-6.3836,-6.4468,-6.5132,-6.5701,-6.5701,-6.6143,-6.6617,-6.6617,-6.6617,0.0,-6.6617,-6.6617,-6.6617,0.0,0.0,0.0,0.0,0.0,0.0,0.0,0.0,0.0,0.0,0.0,0.0,0.0,0.0,0.0,0.0,-6.6617,-6.6617,-6.6617,-6.6617,-6.6617,-6.6617,-6.6617,-6.6617,-6.6617,-6.6617,-6.6617,-6.6617,-6.6617,-6.6933,-6.7597,-6.8355,-6.9051,-6.9714,-7.0441,-7.0789,-7.0789,-7.0789,-7.1136,-7.1705,-7.1705,-7.2148,-7.2748,-7.2148,-7.1895,-7.1737,-7.1136,-7.0852,-7.0789,-4.395,-4.3979,-4.4153,-4.4618,-4.5169,-4.5692,-4.6185,-4.6824,-4.7259,-4.7404,-4.7521,-4.784,-4.8478,-4.8632,-4.8931,-4.9455,-4.9794,-4.9948,-4.9948,-5.0733,-5.1263,-5.1263,-5.1911,-5.2637,-5.3201,-5.3575,-5.421,-5.4925,-5.5493,-5.6125,-5.6821,-5.7105,-5.7832,-5.8906,-5.9033,-5.9475,-6.0139,-6.0739,0.0,-5.9255,-5.9773,0.0,-6.0856,-5.9997,-6.0298,-6.1175,-6.1175,-6.1683,-6.2446,-6.2446,-6.2793,-6.3299,0.0,0.0,0.0,-6.5322,-6.5859,-6.6396,-6.6396,-6.6491,0.0,0.0,0.0,0.0,-6.6617,-6.6617,-6.6617,0.0,0.0,0.0,0.0,0.0,0.0,0.0,0.0,0.0,0.0,0.0,0.0,0.0,0.0,0.0,0.0,-6.6617,-6.6617,-6.6617,-6.6617,-6.6617,-6.6617,-6.6617,-6.6617,-6.6617,-6.6617,-6.6617,-6.6617,-6.6617,-6.6933,-6.7597,-6.8355,-6.9051,-6.9714,-7.0441,-7.0789,-7.0789,-7.0789,-7.0852,-7.0978,-7.0978,-7.1705,-7.278,-7.2653,-7.2274,-7.18,-7.1674,-7.1263,-7.0789,-4.4879,-4.5198,-4.5488,-4.5808,-4.6388,-4.694,-4.7259,-4.7579,-4.7898,-4.8217,-4.8537,-4.8856,-4.9175,-4.9204,-4.932,-4.964,-4.9669,-4.9669,-4.9669,-5.0442,-5.0793,-5.0793,-5.2214,-5.2947,-5.2978,-5.3989,-5.4512,-5.4451,-5.5225,-5.5907,-5.662,-5.734,-5.7839,-5.827,-5.8933,-5.9367,-5.9793,-6.0496,-6.074,-6.0718,-6.0209,0.0,-5.8949,-5.8684,-5.8901,-5.9546,-5.9789,-6.042,-6.1206,-6.2089,-6.2535,0.0,0.0,-6.5006,-6.5638,0.0,-6.6333,-6.6617,0.0,0.0,0.0,-6.6617,0.0,0.0,0.0,-6.6617,-6.6617,0.0,0.0,0.0,0.0,0.0,0.0,0.0,0.0,0.0,0.0,0.0,0.0,0.0,0.0,0.0,0.0,-6.6617,-6.6617,-6.6617,-6.6617,-6.6617,-6.6617,-6.6617,-6.6617,-6.6617,-6.6617,-6.6617,-6.6617,-6.6617,-6.6775,-6.7123,-6.8197,-6.8861,-6.924,-7.0283,-7.0789,-7.0789,-7.0789,-7.0789,-7.0789,-7.0789,-7.12,-7.18,-7.18,-7.18,-7.1768,-7.1421,-7.1073,-7.0789,-4.6156,-4.665,-4.6998,-4.6998,-4.755,-4.7956,-4.7956,-4.8072,-4.8333,-4.8856,-4.9252,-4.9571,-4.9571,-4.9473,-4.9375,-4.9375,-4.9375,-4.9531,-4.9647,-5.0329,-5.0744,-5.0892,-5.2604,-5.3375,-5.2842,-5.414,-5.4477,-5.4001,-5.4916,-5.5669,-5.6433,-5.751,-5.7931,-5.7725,-5.8508,-5.9153,-5.9635,-6.0003,0.0,-6.145,0.0,-5.8763,-5.7299,-5.7274,-5.7499,-5.7915,-5.8753,-5.9465,-6.0305,-6.1612,0.0,-6.2891,-6.4748,-6.5533,0.0,0.0,0.0,0.0,0.0,0.0,0.0,0.0,0.0,-6.6617,0.0,0.0,0.0,0.0,0.0,0.0,0.0,0.0,0.0,0.0,0.0,0.0,0.0,0.0,0.0,0.0,0.0,0.0,0.0,-6.6617,-6.6617,-6.6617,-6.6617,-6.6617,-6.6617,-6.6617,-6.6617,-6.6617,-6.6617,-6.6617,-6.6617,-6.6617,-6.6617,-6.6617,-6.7881,-6.8545,-6.8735,-6.9999,-7.0662,-7.0789,-7.0789,-7.0789,-7.0789,-7.0789,-7.0789,-7.0789,-7.0915,-7.1231,-7.1579,-7.1136,-7.0884,-7.0789,-4.755,-4.7637,-4.7666,-4.7666,-4.8188,-4.8624,-4.8624,-4.9088,-4.9494,-4.9553,-4.9248,-4.9009,-4.9009,-4.8581,-4.828,-4.828,-4.828,-4.8708,-4.9681,-4.9882,-5.0342,-5.1482,-5.1741,-5.217,-5.2732,-5.3516,-5.4239,-5.4795,-5.607,-5.7075,-5.789,-5.7839,-5.8512,-5.9703,-5.8577,-5.9075,-6.0949,-6.0444,-5.9577,0.0,-5.8979,-5.9332,0.0,-5.7833,-5.7863,-5.8694,-6.0024,-6.0668,-6.0866,0.0,-6.2825,-6.4026,0.0,-6.5321,-6.6491,0.0,0.0,0.0,0.0,0.0,0.0,0.0,-6.6617,0.0,0.0,0.0,0.0,0.0,0.0,0.0,0.0,0.0,0.0,0.0,0.0,0.0,0.0,0.0,0.0,0.0,0.0,0.0,0.0,0.0,-6.6617,-6.6617,-6.6617,-6.6617,-6.6617,-6.6617,-6.6617,-6.6617,-6.6617,-6.6617,-6.6617,-6.6617,-6.6617,-6.6617,-6.7344,-6.8071,-6.8735,-6.9462,-7.0157,-7.0789,-7.0789,-7.0789,-7.0789,-7.0789,-7.0789,-7.0852,-7.1452,-7.1358,-7.0978,-7.1516,-7.1294,-7.0789,-4.7927,-4.8072,-4.8333,-4.8333,-4.8856,-4.9262,-4.9262,-4.9494,-4.9669,-4.9669,-4.9178,-4.9023,-4.9395,-4.8946,0.0,-4.9145,0.0,-4.9493,0.0,0.0,-5.0685,-5.1614,-5.2368,-5.2746,-5.2645,-5.4154,-5.4789,-5.4687,-5.5604,-5.6437,-5.7263,-5.7543,-5.7888,-5.8022,-5.7843,-5.8031,-5.8595,0.0,-5.8128,0.0,0.0,0.0,0.0,-5.7049,-5.7195,-5.7884,-5.8116,-5.8694,-5.9446,0.0,-6.1476,0.0,0.0,0.0,0.0,0.0,0.0,0.0,0.0,0.0,0.0,0.0,0.0,0.0,-6.6617,0.0,-6.6617,0.0,0.0,0.0,0.0,0.0,0.0,0.0,0.0,0.0,0.0,0.0,0.0,0.0,0.0,0.0,0.0,0.0,0.0,0.0,0.0,-6.6617,-6.6617,-6.6617,-6.6617,-6.6617,-6.6617,-6.6617,-6.6617,-6.6617,-6.6617,-6.6617,-6.7281,-6.7976,-6.8703,-6.9367,-7.0094,-7.0789,-7.0789,-7.0789,-7.0789,-7.0789,-7.0789,-7.082,-7.1105,-7.1042,-7.082,-7.1105,-7.1042,-7.0789,-4.8478,-4.8682,-4.8972,-4.8972,-4.9378,-4.9669,-4.9669,-4.9716,-4.9733,-4.9733,-4.9309,-4.9087,-4.9512,-4.9078,0.0,0.0,-4.9431,-4.9699,0.0,0.0,-5.09,-5.1592,-5.282,-5.3273,-5.2885,-5.4457,-5.5148,-5.4749,-5.5387,-5.6084,-5.6941,-5.7379,-5.7458,-5.713,-5.7266,-5.7216,-5.6962,0.0,-5.6933,-5.7353,-5.6908,-5.6651,-5.6562,-5.6477,-5.6818,-5.727,-5.6964,-5.745,-5.8412,-5.9222,-6.047,0.0,-6.3403,0.0,0.0,0.0,0.0,0.0,-6.6617,0.0,0.0,0.0,0.0,0.0,0.0,0.0,0.0,0.0,0.0,0.0,0.0,0.0,-6.6649,-6.6839,0.0,0.0,0.0,0.0,0.0,0.0,0.0,0.0,0.0,0.0,0.0,0.0,-6.6617,-6.6617,-6.6617,-6.6617,-6.6617,-6.6617,-6.6617,-6.6617,-6.6617,-6.6617,-6.6617,-6.6617,-6.7091,-6.7818,-6.8703,-6.9177,-6.9904,-7.0789,-7.0789,-7.0789,-7.0789,-7.0789,-7.0789,-7.0789,-7.0789,-7.0789,-7.0789,-7.0789,-7.0789,-7.0789,-4.9415,-4.964,-4.964,-4.964,-4.9669,-4.9669,-4.9669,-4.9795,-4.9795,-4.9795,0.0,0.0,0.0,0.0,0.0,0.0,0.0,-4.8818,-4.9939,0.0,-5.0571,-5.1702,-5.2431,-5.2989,0.0,-5.4166,-5.484,-5.5387,-5.6055,-5.6786,-5.7654,-5.74,-5.7722,-5.8466,-5.7049,-5.6936,-5.7664,-5.6962,-5.6394,-5.5876,-5.6471,-5.6528,-5.636,0.0,-5.676,-5.7378,-5.7969,0.0,0.0,-5.8924,-6.0173,0.0,0.0,0.0,0.0,0.0,0.0,0.0,0.0,0.0,0.0,-6.6617,0.0,0.0,0.0,0.0,-6.6617,0.0,0.0,0.0,0.0,-6.6617,-6.6807,-6.7439,-6.7028,0.0,0.0,0.0,0.0,0.0,0.0,0.0,0.0,0.0,0.0,-6.6617,-6.6617,-6.6617,-6.6617,-6.6617,-6.6617,-6.6617,-6.6617,-6.6617,-6.6617,-6.6617,-6.6617,-6.6617,-6.6617,-6.7344,-6.8703,-6.8703,-6.9462,-7.0789,-7.0789,-7.0789,-7.0789,-7.0789,-7.0789,-7.0789,-7.0789,-7.0789,-7.0789,-7.0789,-7.0789,-7.0789,-4.9149,-4.9234,-4.9193,-4.9165,-4.9523,-4.9753,-4.9876,-4.9823,0.0,0.0,0.0,0.0,0.0,0.0,-4.8979,0.0,0.0,-4.9881,-5.1155,-5.1182,0.0,0.0,0.0,-5.3332,0.0,-5.4149,-5.4799,-5.5501,-5.6133,-5.676,-5.743,-5.7299,-5.7416,-5.7751,-5.6851,-5.6394,0.0,0.0,0.0,0.0,0.0,-5.6032,-5.6303,0.0,0.0,-5.7231,-5.6954,-5.7535,0.0,-5.7988,-5.8774,-6.0108,-6.1019,-6.1939,-6.3129,-6.5125,-6.57,0.0,0.0,0.0,-6.6617,-6.6617,0.0,0.0,0.0,0.0,0.0,0.0,0.0,0.0,0.0,-6.6617,-6.6681,-6.6902,-6.6744,-6.6681,0.0,-6.6744,0.0,0.0,0.0,0.0,0.0,0.0,0.0,-6.6617,-6.6617,-6.6617,0.0,-6.6617,-6.6617,-6.6617,-6.6617,-6.6617,-6.6617,-6.6617,-6.6617,-6.6617,-6.6617,-6.7344,-6.8703,-6.8703,-6.9462,-7.0789,-7.0789,-7.0789,-7.0789,-7.0789,-7.0789,-7.0789,-7.0789,-7.0789,-7.0789,-7.0789,-7.0789,-7.0789,-4.939,-4.9266,-4.9126,-4.9246,-4.9603,-4.9898,-4.9904,0.0,0.0,0.0,-4.9608,0.0,-4.9913,0.0,-4.9901,0.0,-5.0525,-5.0939,-5.1779,-5.1807,0.0,-5.2959,-5.3181,0.0,0.0,-5.4195,-5.4965,-5.5794,-5.6194,-5.6852,-5.7652,-5.7652,-5.7768,-5.8,-5.7311,-5.673,-5.617,-5.5844,-5.5401,0.0,0.0,-5.6088,0.0,0.0,-5.6505,-5.7086,0.0,-5.7104,-5.7816,-5.7303,-5.7944,-5.9052,-6.0173,-6.0779,-6.1615,-6.3728,-6.4623,-6.4985,-6.553,-6.613,0.0,0.0,-6.6617,0.0,-6.6617,0.0,0.0,0.0,0.0,0.0,0.0,0.0,-6.6617,-6.6617,-6.6617,-6.6617,0.0,-6.6617,-6.6617,-6.6617,0.0,0.0,0.0,0.0,-6.6617,-6.6617,-6.6617,-6.6617,0.0,0.0,-6.6617,-6.6617,-6.6617,-6.6617,-6.6617,-6.6617,-6.6617,-6.6617,-6.6617,-6.7344,-6.8703,-6.8703,-6.9462,-7.0789,-7.0789,-7.0789,-7.0789,-7.0789,-7.0789,-7.0789,-7.0789,-7.0789,-7.0789,-7.0789,-7.0789,-7.0869,-5.0275,-4.9777,-4.9301,-4.9861,-4.9939,0.0,0.0,0.0,-4.9913,0.0,-5.002,-5.0064,-5.0091,-5.0607,-5.0932,-5.0932,-5.1475,0.0,-5.1882,-5.1882,0.0,0.0,-5.2452,-5.2988,-5.3523,-5.4221,-5.5116,-5.6336,-5.6336,-5.7025,-5.8348,-5.8234,-5.8581,-5.919,-5.8574,-5.7831,-5.7201,-5.6621,-5.606,-5.5545,-5.6115,-5.6685,-5.7174,-5.7174,0.0,-5.7174,-5.7174,-5.7174,-5.7174,-5.7174,-5.756,-5.8424,-5.9957,-6.0416,-6.0658,-6.232,-6.3327,-6.3975,-6.4117,-6.5282,-6.648,-6.648,0.0,0.0,0.0,0.0,-6.6617,0.0,0.0,0.0,0.0,0.0,-6.6617,-6.6617,-6.6617,-6.6617,-6.6617,-6.6617,-6.6617,-6.6617,0.0,0.0,0.0,-6.6617,-6.6617,-6.6617,-6.6617,-6.6617,0.0,0.0,-6.6617,-6.6617,-6.6617,-6.6617,-6.6617,-6.6617,-6.6617,-6.6617,-6.6617,-6.7344,-6.8703,-6.8703,-6.9462,-7.0789,-7.0789,-7.0789,-7.0789,-7.0789,-7.0789,-7.0789,-7.0789,-7.0789,-7.0789,-7.0789,-7.0901,-7.1092,-4.9228,-4.9693,-4.9908,0.0,-4.9912,-4.9474,0.0,0.0,0.0,0.0,-5.0694,-5.0851,-5.1312,-5.1502,-5.1584,-5.1584,-5.1747,0.0,0.0,0.0,0.0,-5.313,-5.3293,-5.3495,-5.3588,-5.3752,0.0,-5.5695,-5.5695,-5.6598,-5.8315,-5.7814,-5.79,-5.8574,-5.7831,-5.7201,-5.6621,-5.6817,-5.691,-5.6739,-5.6902,-5.7038,0.0,0.0,-5.7174,-5.7174,-5.7174,-5.7174,-5.7174,-5.7174,-5.7303,-5.756,-5.855,-5.8774,-5.9149,-6.0658,-6.1229,-6.1704,-6.2869,-6.4036,-6.4954,-6.5452,-6.6023,-6.6617,0.0,0.0,0.0,0.0,0.0,0.0,0.0,0.0,0.0,-6.6617,-6.6617,-6.6617,-6.6617,-6.6617,-6.6617,-6.6617,0.0,0.0,-6.6617,-6.6617,-6.6617,-6.6617,-6.6617,0.0,0.0,0.0,0.0,-6.6617,-6.6617,-6.6617,-6.6617,-6.6617,-6.6617,-6.6617,-6.6617,-6.7344,-6.8703,-6.8703,-6.9462,-7.0789,-7.0789,-7.0789,-7.0789,-7.0789,-7.0789,-7.0789,-7.0789,-7.0789,-7.0789,-7.0789,-7.1798,-7.3083,-4.9481,-5.0276,0.0,-5.1258,0.0,0.0,-5.0628,0.0,0.0,-5.1258,-5.1312,0.0,-5.1801,-5.2072,-5.2208,-5.2208,-5.2452,0.0,-5.3076,0.0,0.0,-5.3592,-5.3592,-5.3592,-5.3592,-5.3592,0.0,-5.5464,-5.5464,-5.6391,-5.8228,-5.7865,-5.8006,-5.8625,-5.8259,-5.7768,-5.7176,-5.713,-5.7232,-5.7174,-5.7174,0.0,0.0,-5.7174,-5.7174,-5.7174,-5.7174,-5.7174,-5.7174,-5.7174,-5.7174,-5.7303,-5.7944,-5.7944,-5.7944,-5.9121,-5.9806,-6.0266,-6.1229,-6.2724,-6.4117,-6.4623,-6.5561,-6.6406,-6.6617,-6.6617,-6.6617,0.0,0.0,0.0,0.0,0.0,0.0,-6.6617,-6.6617,-6.6617,0.0,0.0,0.0,0.0,-6.6617,0.0,-6.6617,-6.6617,-6.6617,-6.6617,0.0,0.0,0.0,0.0,0.0,-6.6617,-6.6617,-6.6617,-6.6617,-6.6617,-6.6617,-6.6617,-6.6617,-6.7344,-6.8703,-6.8703,-6.9462,-7.0789,-7.0789,-7.0789,-7.0789,-7.0789,-7.0789,-7.0789,-7.0789,-7.0789,-7.0789,-7.0789,-7.1874,-7.329,-5.0031,-5.0837,0.0,0.0,0.0,0.0,0.0,-5.1674,0.0,-5.1936,0.0,-5.1964,-5.2045,-5.2506,-5.2832,-5.2832,0.0,-5.3592,-5.3592,-5.3592,-5.3592,-5.3592,-5.3673,-5.3727,-5.3727,-5.3782,0.0,0.0,-5.5563,-5.6387,-5.8239,-5.8115,-5.8423,-5.9052,-5.8927,-5.855,-5.8071,-5.7431,-5.7174,-5.7174,-5.7174,-5.7174,-5.7174,-5.7174,-5.7174,-5.7174,-5.7174,-5.7174,-5.7174,-5.7174,-5.7174,-5.7303,-5.7944,-5.7688,-5.7303,-5.7944,-5.862,-5.9161,-5.9284,-6.12,-6.3327,-6.3893,-6.4985,-6.5947,-6.6374,-6.6512,-6.6512,-6.6512,-6.6617,0.0,0.0,0.0,0.0,-6.6617,0.0,0.0,0.0,0.0,0.0,0.0,0.0,0.0,0.0,-6.6617,0.0,0.0,0.0,0.0,0.0,0.0,0.0,-6.6617,-6.6617,0.0,-6.6617,0.0,-6.6617,-6.6617,-6.6617,-6.7281,-6.8545,-6.864,-6.9398,-7.0631,-7.0726,-7.0789,-7.0789,-7.0789,-7.0789,-7.0789,-7.0789,-7.0789,-7.0789,-7.0789,-7.158,-7.2769,-4.884,0.0,0.0,0.0,0.0,-5.0338,-5.1821,-5.1202,-5.1017,-5.236,-5.2561,-5.275,-5.3239,-5.3375,-5.3429,-5.3429,-5.3537,0.0,0.0,0.0,0.0,-5.3592,-5.408,-5.4324,-5.4324,-5.484,-5.5383,0.0,-5.6106,-5.6839,-5.8159,-5.7651,-5.7706,-5.8325,-5.7816,-5.7431,-5.7303,-5.7303,0.0,-5.7174,-5.7174,-5.7174,-5.7174,-5.7174,-5.7174,-5.7174,-5.7174,-5.7174,-5.7174,-5.7174,-5.7174,-5.7174,-5.7303,-5.7303,-5.7174,-5.7303,-5.7404,-5.7661,-5.8297,-5.9313,-6.0721,-6.2407,-6.3471,-6.4512,-6.5592,-6.6054,-6.6299,-6.6299,-6.6406,-6.6617,-6.6617,0.0,0.0,0.0,0.0,0.0,0.0,0.0,0.0,0.0,0.0,0.0,0.0,0.0,0.0,0.0,0.0,0.0,0.0,0.0,0.0,0.0,0.0,0.0,0.0,0.0,-6.6617,-6.6617,-6.6617,-6.7028,-6.7818,-6.8419,-6.9114,-6.9904,-7.0536,-7.0789,-7.0789,-7.0789,-7.0789,-7.0789,-7.0789,-7.0789,-7.0789,-7.0789,-7.209,-7.377,0.0,0.0,0.0,0.0,0.0,0.0,0.0,-5.0352,0.0,-5.1399,-5.2554,-5.3025,-5.2807,-5.3349,-5.3592,-5.3592,-5.389,-5.4053,-5.4053,-5.4351,-5.4541,-5.4541,-5.4813,0.0,-5.4976,-5.5247,-5.5708,-5.6305,-5.6305,-5.6731,-5.7688,-5.7303,-5.7303,-5.7688,-5.7303,-5.7431,0.0,0.0,0.0,-5.7174,-5.7174,-5.7174,-5.7174,-5.7174,-5.7174,-5.7174,-5.7174,-5.7174,-5.7174,-5.7174,-5.7174,-5.7174,-5.7174,-5.7174,-5.7174,-5.7174,-5.7174,-5.7303,-5.756,-5.8522,-5.956,-6.0629,-6.229,-6.3841,-6.4512,-6.5344,-6.5947,-6.6192,-6.6299,-6.6406,-6.6617,-6.6617,0.0,0.0,0.0,0.0,0.0,0.0,0.0,0.0,0.0,0.0,0.0,0.0,0.0,0.0,0.0,0.0,0.0,0.0,0.0,0.0,0.0,0.0,0.0,0.0,0.0,-6.6617,-6.6617,-6.6965,-6.7597,-6.7976,-6.8703,-6.9714,-7.0062,-7.0441,-7.0789,-7.0789,-7.0789,-7.0789,-7.0789,-7.0789,-7.0789,-7.0789,-7.2197,-7.3972,0.0,-4.995,0.0,0.0,-4.9436,0.0,0.0,-4.9715,-4.9561,-5.0487,-5.2075,-5.2898,-5.2377,-5.3128,-5.3727,-5.3972,-5.4406,-5.4677,-5.4677,-5.5138,-5.541,-5.541,-5.5545,-5.56,-5.56,-5.5735,-5.6034,0.0,-5.6495,-5.6658,-5.6984,-5.7119,-5.7174,-5.7174,0.0,0.0,0.0,0.0,-5.7174,-5.7174,-5.7174,-5.7174,-5.7174,-5.7174,-5.7174,-5.7174,-5.7174,-5.7174,-5.7174,-5.7174,-5.7174,-5.7174,-5.7174,-5.7174,-5.7174,-5.7174,-5.7174,-5.7174,-5.7174,-5.7916,-5.8871,-5.9313,-6.0961,-6.2668,-6.3471,-6.4512,-6.5452,-6.5947,-6.6192,-6.6299,-6.6617,-6.6617,0.0,0.0,0.0,0.0,0.0,0.0,0.0,0.0,0.0,0.0,0.0,0.0,0.0,0.0,0.0,0.0,0.0,0.0,0.0,0.0,0.0,-6.6617,-6.6617,0.0,-6.6617,0.0,-6.6617,-6.687,-6.7376,-6.7534,-6.8197,-6.924,-6.9556,-7.0094,-7.0789,-7.0789,-7.0789,-7.0789,-7.0789,-7.0789,-7.0789,-7.0789,-7.1982,-7.3668,0.0,0.0,0.0,0.0,0.0,0.0,0.0,-4.9768,-4.9987,-5.0538,-5.1152,-5.1845,-5.276,-5.3488,-5.4187,-5.5122,-5.5301,-5.5328,-5.5328,-5.5383,-5.541,-5.541,-5.5925,-5.6224,-5.6224,-5.6739,-5.7038,0.0,0.0,-5.6848,-5.6387,-5.6929,-5.7174,0.0,0.0,0.0,0.0,-5.7174,-5.7174,-5.7174,-5.7174,-5.7174,-5.7174,-5.7174,-5.7174,-5.7174,-5.7174,-5.7174,-5.7174,-5.7174,-5.7174,-5.7174,-5.7174,-5.7174,-5.7174,-5.7174,-5.7174,-5.7174,-5.7174,-5.7303,-5.7661,-5.8871,-5.9341,-6.0051,-6.2436,-6.3471,-6.429,-6.5452,-6.6161,-6.6617,-6.6617,-6.6617,-6.6617,0.0,0.0,0.0,0.0,0.0,0.0,0.0,0.0,0.0,0.0,0.0,0.0,0.0,0.0,0.0,0.0,0.0,0.0,-6.6617,0.0,-6.6617,-6.6617,-6.6617,0.0,-6.6617,-6.6617,-6.6649,-6.6712,-6.7313,-6.766,-6.785,-6.9146,-7.0094,-7.0789,-7.0789,-7.0789,-7.0789,-7.0789,-7.0789,-7.0789,-7.0789,-7.158,-7.2697,0.0,0.0,0.0,0.0,0.0,0.0,0.0,-4.9425,-4.9487,-4.9668,-5.0852,-5.2025,-5.244,-5.3293,-5.4246,-5.5284,-5.5735,-5.5952,-5.5952,-5.6278,-5.6468,-5.6468,-5.6712,-5.6821,-5.6821,-5.7065,-5.7174,0.0,0.0,-5.7065,-5.6848,-5.7065,0.0,0.0,0.0,-5.7174,-5.7174,-5.7174,-5.7174,-5.7174,-5.7174,-5.7174,-5.7174,-5.7174,-5.7174,-5.7174,-5.7174,-5.7174,-5.7174,-5.7174,-5.7174,-5.7174,-5.7174,-5.7174,-5.7174,-5.7174,-5.7174,-5.7174,-5.7174,-5.7174,-5.7303,-5.7788,-5.8522,-5.9588,-6.1348,-6.2553,-6.3728,-6.5344,-6.6161,-6.6617,-6.6617,-6.6617,-6.6617,0.0,0.0,0.0,0.0,0.0,0.0,0.0,0.0,0.0,0.0,0.0,-6.6617,0.0,0.0,0.0,0.0,0.0,0.0,-6.6617,0.0,-6.6617,-6.6617,-6.6617,-6.6617,-6.6617,-6.6617,-6.6617,-6.6617,-6.687,-6.7218,-6.766,-6.9082,-6.9841,-7.0157,-7.0599,-7.0789,-7.0789,-7.0789,-7.0789,-7.0789,-7.0789,-7.1502,-7.2591,-4.8531,0.0,-4.9084,0.0,-4.9084,-4.9133,-4.9277,-4.9301,-4.9373,-4.9541,-5.0752,-5.1758,-5.1956,-5.277,-5.3948,-5.529,-5.5794,-5.6293,-5.6549,-5.6956,-5.7174,-5.7174,-5.7174,0.0,-5.7174,-5.7174,-5.7174,-5.7174,-5.7174,0.0,-5.6929,-5.6929,0.0,0.0,-5.7174,-5.7174,-5.7174,-5.7174,-5.7174,-5.7174,-5.7174,-5.7174,-5.7174,-5.7174,-5.7174,-5.7174,-5.7174,-5.7174,-5.7174,-5.7174,-5.7174,-5.7174,-5.7174,-5.7174,-5.7174,-5.7174,-5.7174,-5.7174,-5.7174,-5.7174,-5.7174,-5.7174,-5.7916,-5.8996,-6.0629,-6.1821,-6.3129,-6.5344,-6.6161,-6.6512,-6.6617,-6.6617,-6.6617,0.0,0.0,0.0,0.0,0.0,0.0,0.0,-6.6617,-6.6617,-6.6617,0.0,0.0,0.0,0.0,0.0,0.0,0.0,0.0,0.0,0.0,0.0,0.0,-6.6617,-6.6617,-6.6617,-6.6617,-6.6617,-6.6617,-6.6617,-6.6965,-6.766,-6.8861,-6.9493,-6.9746,-7.0473,-7.0789,-7.0789,-7.0789,-7.0789,-7.0789,-7.0789,-7.1502,-7.2591,-4.906,-4.9084,-4.9084,-4.9084,-4.9084,-4.9253,-4.9782,-4.9854,-5.0046,-5.06,-5.0696,-5.0877,-5.1507,-5.193,-5.3215,-5.5393,-5.5551,-5.6078,-5.7174,-5.7174,-5.7174,0.0,0.0,-5.7174,-5.7174,-5.7174,-5.7174,-5.7174,0.0,0.0,-5.6305,-5.6305,-5.6631,-5.7174,-5.7174,-5.7174,-5.7174,-5.7174,-5.7174,-5.7174,-5.7174,-5.7174,-5.7174,-5.7174,-5.7174,-5.7174,-5.7174,-5.7174,-5.7174,-5.7174,-5.7174,-5.7174,-5.7174,-5.7174,-5.7174,-5.7174,-5.7174,-5.7174,-5.7174,-5.7174,-5.7174,-5.7174,-5.7174,-5.7889,-6.0387,-6.1229,-6.2436,-6.5515,-6.6192,-6.6299,-6.6512,-6.6617,-6.6617,-6.6617,0.0,0.0,0.0,0.0,0.0,0.0,-6.6617,-6.6617,-6.6617,0.0,0.0,0.0,0.0,0.0,0.0,0.0,0.0,-6.6617,-6.6617,0.0,-6.6617,-6.6617,-6.6617,-6.6617,-6.6617,-6.6617,-6.6617,-6.6617,-6.6965,-6.7629,-6.8387,-6.9082,-6.9746,-7.0473,-7.0789,-7.0789,-7.0789,-7.0789,-7.0789,-7.0789,-7.1502,-7.2591,-4.9614,-4.9926,-5.0191,-5.0191,-5.0191,-5.0239,-5.0407,-5.0431,-5.0503,-5.0672,-5.0696,-5.0765,-5.0993,-5.1787,-5.2829,0.0,-5.5153,-5.5683,0.0,-5.6785,-5.7174,-5.7174,-5.7174,-5.7174,-5.7174,-5.7174,-5.7174,-5.7174,0.0,0.0,0.0,-5.6902,-5.7011,-5.7174,-5.7174,-5.7174,-5.7174,-5.7174,-5.7174,-5.7174,-5.7174,-5.7174,-5.7174,-5.7174,-5.7174,-5.7228,-5.7635,-5.777,-5.7852,-5.8286,-5.8422,-5.8422,-5.8422,-5.7852,-5.7174,-5.7174,-5.7174,-5.7174,-5.7174,-5.7174,-5.7174,-5.7174,-5.7174,-5.7661,-5.9341,-6.1348,-6.3129,-6.4066,-6.5266,-6.6192,-6.6299,-6.6512,-6.6617,-6.6617,0.0,0.0,0.0,0.0,0.0,0.0,0.0,-6.6617,0.0,-6.6617,0.0,0.0,0.0,0.0,0.0,0.0,0.0,0.0,-6.6617,0.0,-6.6617,-6.6617,-6.6617,-6.6617,-6.6617,-6.6617,-6.6617,-6.6617,-6.6712,-6.6965,-6.766,-6.8355,-6.9051,-6.9746,-7.0315,-7.0789,-7.0789,-7.0789,-7.0789,-7.0789,-7.0981,-7.158,-5.0191,-5.0455,-5.0696,-5.0696,-5.0696,-5.0696,-5.0696,-5.0696,-5.0696,-5.0696,-5.0696,-5.0696,-5.0696,-5.1376,0.0,-5.3215,-5.392,-5.4727,-5.5551,-5.6236,-5.6785,-5.7174,-5.7174,-5.7174,-5.7174,0.0,0.0,-5.7174,-5.7174,-5.7174,-5.7174,-5.7174,-5.7174,-5.7174,-5.7174,-5.7174,-5.7174,-5.7174,-5.7174,-5.7174,-5.7174,-5.7309,-5.7526,-5.7526,-5.7662,-5.7906,-5.8286,-5.8422,-5.8476,-5.8856,-5.8992,-5.8992,-5.8992,-5.8476,-5.7879,-5.7879,-5.7879,-5.7879,-5.7879,-5.7879,-5.7879,-5.7879,-5.7689,-5.7934,-5.9521,-6.1585,-6.3357,-6.3984,-6.5156,-6.6085,-6.6192,-6.6406,-6.6617,-6.6617,0.0,-6.6617,0.0,0.0,0.0,0.0,0.0,0.0,0.0,-6.6617,0.0,0.0,0.0,0.0,0.0,0.0,0.0,-6.6617,-6.6617,0.0,-6.6617,-6.6617,-6.6617,-6.6617,-6.6617,-6.6617,-6.6617,-6.6617,-6.6617,-6.6649,-6.7313,-6.8008,-6.8735,-6.9398,-7.0125,-7.0789,-7.0789,-7.0789,-7.0789,-7.0789,-7.1092,-7.1689,-5.0696,-5.0696,0.0,0.0,-5.0696,0.0,-5.0696,-5.0696,-5.0696,-5.0696,-5.0696,-5.0696,-5.0696,-5.0696,-5.1095,-5.2164,0.0,0.0,0.0,-5.5551,-5.6105,-5.7044,-5.7174,0.0,-5.7174,-5.7174,-5.7174,-5.7174,-5.7174,-5.7174,-5.7174,-5.7174,-5.7174,-5.7174,-5.7174,-5.7201,-5.7255,-5.7255,-5.7282,-5.7309,-5.7309,-5.7635,-5.8123,-5.8123,-5.8503,-5.9019,-5.9046,-5.9073,-5.9073,-5.91,-5.9127,-5.9127,-5.9127,-5.9127,-5.91,-5.9019,-5.8992,-5.8992,-5.8992,-5.8992,-5.8992,-5.8992,-5.869,-5.8714,-6.0373,-6.191,-6.3334,-6.4715,-6.5375,-6.5808,-6.6085,-6.6406,-6.6617,-6.6617,-6.6617,-6.6617,-6.6617,0.0,0.0,0.0,0.0,0.0,0.0,-6.6617,-6.6617,0.0,0.0,0.0,0.0,0.0,-6.6681,-6.6681,-6.6681,-6.6712,-6.6744,-6.6712,-6.6649,-6.6617,-6.6617,-6.6617,-6.6617,-6.6617,-6.6617,-6.6649,-6.7249,-6.7976,-6.8735,-6.9367,-7.0062,-7.0789,-7.0789,-7.0789,-7.0789,-7.0789,-7.1392,-7.2485,0.0,0.0,-5.0696,-5.0696,-5.0696,-5.0696,-5.0696,-5.0696,-5.0696,-5.0696,-5.0696,-5.0696,-5.0696,-5.0696,-5.0837,-5.1095,-5.1886,-5.2554,-5.3103,-5.4593,-5.5683,-5.5973,-5.6785,-5.7174,-5.7174,-5.7174,-5.7174,-5.7174,-5.7174,-5.7174,-5.7174,-5.7174,-5.7174,-5.7174,-5.7174,-5.7445,-5.7852,-5.7852,-5.8123,-5.8557,-5.8557,-5.8666,-5.8774,-5.8774,-5.8883,-5.9073,-5.9507,-5.967,-5.9751,-6.0213,-6.0348,-6.0348,-6.0348,-6.0348,-6.0158,-5.9263,-5.8992,-5.8992,-5.8992,-5.8992,-5.8992,-5.8992,-5.9621,-6.0069,-5.8971,-6.138,-6.3441,-6.2292,-6.3841,-6.5515,-6.5731,-6.6054,-6.6406,-6.6617,-6.6617,-6.6617,-6.6617,-6.6617,0.0,0.0,-6.6617,-6.6617,-6.6617,-6.6617,-6.6617,0.0,0.0,0.0,0.0,0.0,-6.7344,-6.7344,-6.7344,-6.7629,-6.8197,-6.7629,-6.7091,-6.6617,-6.6617,-6.6617,-6.6617,-6.6617,-6.6617,-6.6617,-6.6775,-6.7534,-6.8703,-6.8861,-6.9651,-7.0789,-7.0789,-7.0789,-7.0789,-7.0789,-7.0981,-7.1502,-5.0696,-5.0696,-5.0696,-5.0696,-5.0696,-5.0696,-5.0696,-5.0696,-5.0696,-5.0696,-5.0696,-5.0696,-5.0696,-5.0696,-5.0696,-5.0696,-5.1236,-5.1747,-5.2278,-5.3376,-5.4593,-5.5551,-5.6105,-5.6655,-5.7174,-5.7174,-5.7174,-5.7174,-5.7472,-5.7581,-5.7608,-5.7879,-5.8015,-5.8015,-5.8015,-5.8178,-5.8503,-5.8503,-5.8693,-5.8992,-5.8992,-5.9182,-5.9399,-5.9399,-5.9561,-5.986,-6.0158,-6.0294,-6.0348,-6.0674,-6.0782,-6.0782,-6.0782,-6.0782,-6.0647,-5.9996,-5.9806,-5.9806,-5.9806,-5.9806,-5.9751,-5.948,-6.0039,-6.0346,-5.9607,-6.1547,-6.3207,-6.241,-6.4069,-6.5668,-6.5546,-6.5839,-6.6192,-6.6406,-6.6512,-6.6617,-6.6617,-6.6617,0.0,-6.6617,-6.6617,-6.6617,-6.6617,-6.6617,-6.6617,-6.6617,0.0,0.0,-6.706,-6.7723,-6.7945,-6.7597,-6.7913,-6.8292,-6.8703,-6.8292,-6.7913,-6.7565,-6.7218,-6.706,-6.706,-6.6744,-6.6617,-6.6617,-6.6933,-6.7692,-6.8703,-6.9019,-6.9809,-7.0789,-7.0789,-7.0789,-7.0789,-7.0789,-7.0789,-7.1092,-5.0696,-5.0696,-5.0696,-5.0696,-5.0696,-5.0696,-5.0696,-5.0696,-5.0696,-5.0696,-5.0696,-5.0696,-5.0696,-5.0696,-5.0696,-5.0696,-5.0696,-5.1095,-5.2025,-5.2139,-5.324,-5.5286,-5.5551,-5.6105,-5.7174,-5.7282,-5.7363,-5.7472,-5.796,-5.8205,-5.8232,-5.8747,-5.8992,-5.8992,-5.8992,-5.9046,-5.9127,-5.9127,-5.9182,-5.9263,-5.9263,-5.9561,-6.0023,-6.0023,-6.0321,-6.0782,-6.0782,-6.0782,-6.0782,-6.0782,-6.0782,-6.0782,-6.0782,-6.0782,-6.0782,-6.0782,-6.0782,-6.0782,-6.0782,-6.0782,-6.0647,-6.0131,-6.0131,-6.0344,-6.0738,-6.1953,-6.3152,-6.3565,-6.4995,-6.5923,-6.5699,-6.5981,-6.6242,-6.6349,-6.6469,-6.6512,-6.6617,0.0,-6.6617,-6.6617,-6.6617,-6.6617,-6.6617,-6.6681,-6.6744,-6.6744,-6.7376,0.0,0.0,-6.845,-6.8545,-6.7945,-6.8513,-6.8829,-6.8829,-6.8829,-6.8798,-6.8671,-6.8071,-6.7755,-6.7755,-6.7186,-6.6933,-6.6965,-6.7502,-6.8166,-6.8893,-6.9462,-7.0125,-7.0789,-7.0789,-7.0789,-7.0789,-7.0789,-7.0789,-7.0981,-5.0696,-5.0696,-5.0696,-5.0696,-5.0696,-5.0696,-5.0696,-5.0696,-5.0696,-5.0696,-5.0696,-5.0696,-5.0696,-5.0696,-5.0696,-5.0696,-5.0696,-5.0837,-5.0978,-5.1747,-5.2829,-5.4164,-5.5153,-5.6105,-5.7174,-5.7662,-5.8178,-5.872,-5.8802,-5.8856,-5.8856,-5.8964,-5.8992,-5.8992,-5.8992,-5.929,-5.9751,-5.9751,-6.0023,-6.0484,-6.0484,-6.0565,-6.062,-6.062,-6.0701,-6.0782,-6.0782,-6.0782,-6.0782,-6.0782,-6.0782,-6.0782,-6.0782,-6.0782,-6.0782,-6.0782,-6.0782,-6.0782,-6.0782,-6.0782,-6.0755,-6.0647,-6.1516,-6.1991,-6.0371,-6.1993,-6.3545,-6.3152,-6.4099,-6.543,-6.6776,-6.6536,-6.6495,-6.6932,-6.6569,-6.6299,-6.6617,0.0,-6.6617,-6.6617,-6.6617,-6.6617,-6.6617,-6.7123,-6.7439,-6.7439,-6.8103,-6.8513,-6.8513,-6.9146,-6.9462,-6.9367,-6.9462,-6.9525,-6.9525,-6.9525,-6.924,-6.8703,-6.8577,-6.8513,-6.8513,-6.8419,-6.8355,-6.8387,-6.8482,-6.8924,-6.9525,-6.9651,-7.0125,-7.0789,-7.0789,-7.0789,-7.0789,-7.0789,-7.0789,-7.1092,-5.0696,-5.0696,-5.0696,-5.0696,-5.0696,-5.0696,-5.0696,-5.0696,-5.0554,-5.0104,-5.0412,-5.0554,-5.0104,-5.0104,-5.0104,-5.0104,-4.9675,-4.9793,-5.0508,-5.1099,-5.2034,-5.3419,-5.397,-5.5216,-5.7171,-5.813,-5.872,-5.8992,-5.9317,-5.948,-5.948,-5.9806,-5.9941,-5.9941,-5.9941,-6.0104,-6.0348,-6.0348,-6.0511,-6.0782,-6.0782,-6.0782,-6.0782,-6.0782,-6.0782,-6.0782,-6.0782,-6.0782,-6.0782,-6.0782,-6.0782,-6.0782,-6.0782,-6.0782,-6.0782,-6.0782,-6.0782,-6.0782,-6.0782,-6.0782,-6.0782,-6.0782,-6.1275,-6.1464,-6.0539,-6.188,-6.3065,-6.2466,-6.3954,-6.5562,-6.5905,-6.6467,-6.6958,-6.718,-6.7261,0.0,0.0,-6.7616,-6.7723,-6.7723,-6.7723,-6.7723,-6.7723,-6.8008,-6.8197,-6.8197,-6.8829,-6.924,-6.924,-6.9904,-7.0283,-7.0283,-7.0283,-7.0283,-7.0283,-7.0283,-7.0125,-6.9809,-6.943,-6.924,-6.9209,-6.8861,-6.8703,-6.8703,-6.9082,-6.9398,-6.9714,-7.0125,-7.0473,-7.0789,-7.0789,-7.0789,-7.0789,-7.0789,-7.0789,-7.0981,-5.0696,-5.0696,-5.0696,-5.0696,-5.0696,-5.0696,-5.0696,-5.0696,-5.0412,-4.9652,-5.0104,-5.0104,-4.9365,-4.9221,-4.9268,-4.9385,-4.8829,-4.906,-5.0133,-5.0554,-5.151,-5.318,-5.3462,-5.4835,-5.7341,-5.8347,-5.8995,-5.9426,-5.986,-6.0104,-6.0104,-6.0565,-6.0782,-6.0782,-6.0782,-6.0782,-6.0782,-6.0782,-6.0782,-6.0782,-6.0782,-6.0782,-6.0782,-6.0782,-6.0782,-6.0782,-6.0782,-6.0782,-6.0782,-6.0782,-6.0782,-6.0782,-6.0782,-6.0782,-6.0782,-6.0782,-6.0782,-6.0782,-6.0782,-6.0782,-6.0782,-6.0782,-6.0782,-6.0782,-6.0782,-6.1654,-6.2264,-6.208,-6.3746,-6.5069,-6.481,-6.5944,-6.6959,-6.7073,0.0,0.0,0.0,-6.8453,-6.8562,-6.8703,-6.8703,-6.8703,-6.8703,-6.8829,-6.8924,-6.8924,-6.9556,-6.9936,-6.9936,-7.0473,-7.0789,-7.0789,-7.0789,-7.0789,-7.0789,-7.0789,-7.0789,-7.0789,-7.022,-6.9936,-6.9904,-6.9398,-6.9177,-6.9209,-6.9714,-6.9936,-6.9967,-7.0536,-7.0789,-7.0789,-7.0789,-7.0789,-7.0789,-7.0789,-7.0789,-7.0901,-5.0696,-5.0696,-5.0696,-5.0696,-5.0696,-5.0696,-5.0696,-5.0696,-5.0412,-4.9652,-4.9509,-4.9365,-4.8523,-4.8523,-4.8707,-4.9167,-4.9066,-4.9273,-4.9778,-5.0522,-5.1823,-5.375,-5.4719,-5.6096,-5.792,-5.8085,-5.8929,-6.0647,-6.0674,-6.0701,-6.0701,-6.0755,-6.0782,-6.0782,-6.0782,-6.0782,-6.0782,-6.0782,-6.0782,-6.0782,-6.0782,-6.0782,-6.0782,-6.0782,-6.0782,-6.0782,-6.0782,-6.0782,-6.0782,-6.0782,-6.0782,-6.0782,-6.0782,-6.0782,-6.0782,-6.0782,-6.0782,-6.0782,-6.0782,-6.0782,-6.0782,-6.0782,-6.0782,-6.0782,-6.0782,-6.0892,-6.1275,-6.248,-6.2849,-6.3346,-6.4549,-6.5458,-6.6042,-6.637,0.0,0.0,-6.8092,-6.8202,-6.8343,-6.8671,-6.8703,-6.8703,-6.8703,-6.924,-6.962,-6.962,-7.0283,-7.0694,-7.0694,-7.0757,-7.0789,-7.0789,-7.0789,-7.0789,-7.0789,-7.0789,-7.0789,-7.0789,-7.0726,-7.0694,-7.0694,-7.0662,-7.0631,-7.0631,-7.0694,-7.0694,-7.0694,-7.0757,-7.0789,-7.0789,-7.0789,-7.0789,-7.0789,-7.0789,-7.0789,-7.0981,-4.9961,-5.0412,-5.0554,-5.0104,-4.9961,-4.9818,-4.9389,-4.9245,-4.8957,-4.8209,-4.8499,-4.8638,-4.8078,-4.8123,-4.8304,-4.8779,-4.8395,-4.8446,-4.9525,-4.9852,-5.1058,-5.3327,-5.4787,-5.6192,-5.7539,-5.8245,-5.9382,-6.0782,-6.0782,-6.0782,-6.0782,-6.0782,-6.0782,-6.0782,-6.0782,-6.0782,-6.0782,-6.0782,-6.0782,-6.0782,-6.0782,-6.0782,-6.0782,-6.0782,-6.0782,-6.0782,-6.0782,-6.0782,-6.0782,-6.0782,-6.0782,-6.0782,-6.0782,-6.0782,-6.0782,-6.0782,-6.0782,-6.0782,-6.0782,-6.0782,-6.0782,-6.0782,-6.0782,-6.0782,-6.0782,-6.0782,-6.0892,-6.1383,-6.227,-6.2906,-6.3431,-6.5153,-6.649,-6.6612,0.0,-6.8696,-6.8924,-6.9264,-6.9489,-6.9633,-6.9856,-6.9999,-6.9999,-7.022,-7.0378,-7.0378,-7.0631,-7.0789,-7.0789,-7.0789,-7.0789,-7.0789,-7.0789,-7.0789,-7.0789,-7.0789,-7.0789,-7.0789,-7.0789,-7.0789,-7.0789,-7.0789,-7.0789,-7.0789,-7.0789,-7.0789,-7.0789,-7.0789,-7.0789,-7.0789,-7.0789,-7.0789,-7.0789,-7.0789,-7.0789,-7.0901,-4.9078,-4.9532,-4.9818,-4.9245,-4.9078,-4.8957,-4.8546,-4.84,-4.8155,-4.7557,-4.7874,-4.8078,-4.7826,-4.7742,-4.792,-4.8386,-4.7992,-4.8212,-4.9118,-4.9451,-5.0681,-5.2845,-5.4351,-5.5557,-5.6725,-5.7876,-5.9008,-6.0177,-6.0618,-6.0782,-6.0782,-6.0782,-6.0782,-6.0782,-6.0782,-6.0782,-6.0782,-6.0782,-6.0782,-6.0782,-6.0782,-6.0782,-6.0782,-6.0782,-6.0782,-6.0782,-6.0782,-6.0782,-6.0782,-6.0782,-6.0782,-6.0782,-6.0782,-6.0782,-6.0782,-6.0782,-6.0782,-6.0782,-6.0782,-6.0782,-6.0782,-6.0782,-6.0782,-6.0782,-6.0782,-6.0782,-6.0782,-6.0782,-6.1519,-6.227,-6.2773,-6.4694,-6.6357,-6.6879,-6.8237,-6.924,-6.9387,-6.9703,-7.0047,-7.0306,-7.0532,-7.0645,-7.0789,-7.0789,-7.0789,-7.0789,-7.0789,-7.0789,-7.0789,-7.0789,-7.0789,-7.0789,-7.0789,-7.0789,-7.0789,-7.0789,-7.0789,-7.0789,-7.0789,-7.0789,-7.0789,-7.0789,-7.0789,-7.0789,-7.0789,-7.0789,-7.0789,-7.0789,-7.0789,-7.0789,-7.0789,-7.0789,-7.0789,-7.0789,-7.0789,-7.0789,-4.84,-4.84,-4.84,-4.84,-4.84,-4.84,-4.84,-4.84,-4.8292,-4.788,-4.7947,-4.7848,-4.7597,-4.7488,-4.7684,-4.8143,-4.8187,-4.8383,-4.8864,-4.9673,-5.0898,-5.2436,-5.337,-5.4397,-5.5582,-5.6725,-5.7876,-5.9008,-6.0177,-6.0782,-6.0782,-6.0782,-6.0782,-6.0782,-6.0782,-6.0782,-6.0782,-6.0782,-6.0782,-6.0782,-6.0782,-6.0782,-6.0782,-6.0782,-6.0782,-6.0782,-6.0782,-6.0782,-6.0782,-6.0782,-6.0782,-6.0782,-6.0782,-6.0782,-6.0782,-6.0782,-6.0782,-6.0782,-6.0782,-6.0782,-6.0782,-6.0782,-6.0782,-6.0782,-6.0782,-6.0782,-6.0782,-6.0782,-6.0782,-6.1138,-6.2536,-6.3923,-6.5202,-6.6634,-6.7998,-6.9006,-6.9387,-6.9387,-6.9588,-7.0161,-7.0275,-7.0419,-7.0757,-7.0757,-7.0757,-7.0757,-7.0757,-7.0757,-7.0757,-7.0789,-7.0789,-7.0789,-7.0789,-7.0789,-7.0789,-7.0789,-7.0789,-7.0789,-7.0789,-7.0789,-7.0789,-7.0789,-7.0789,-7.0789,-7.0789,-7.0789,-7.0789,-7.0789,-7.0789,-7.0789,-7.0789,-7.0789,-7.0789,-7.0789,-7.0789,-7.0789,-4.7502,-4.7941,-4.8232,-4.7648,-4.7795,-4.7872,-4.7276,-4.7565,-4.7702,-4.7705,-4.7574,-4.775,-4.7924,-4.7968,-4.8165,-4.8645,-4.8689,-4.8755,-4.8886,-4.9673,-5.0277,-5.0898,-5.213,-5.3798,-5.5582,-5.5851,-5.7014,-5.9008,-5.9315,-6.0039,-6.0782,-6.0782,-6.0782,-6.0782,-6.0782,-6.0782,-6.0782,-6.0782,-6.0782,-6.0782,-6.0782,-6.0782,-6.0782,-6.0782,-6.0782,-6.0782,-6.0782,-6.0782,-6.0782,-6.0782,-6.0782,-6.0782,-6.0782,-6.0782,-6.0782,-6.0782,-6.0782,-6.0782,-6.0782,-6.0782,-6.0782,-6.0782,-6.0782,-6.0782,-6.0782,-6.0782,-6.0782,-6.0782,-6.0782,-6.0892,-6.1275,-6.33,-6.4949,-6.5329,-6.7366,-6.8889,-6.9006,-6.924,-6.9472,-6.9933,-6.9753,-6.9696,-6.9999,-6.9588,-6.9335,-6.9335,-6.9746,-6.9999,-6.9999,-7.0504,-7.0789,-7.0789,-7.0789,-7.0789,-7.0789,-7.0789,-7.0789,-7.0789,-7.0789,-7.0789,-7.0789,-7.0789,-7.0789,-7.0789,-7.0789,-7.0789,-7.0789,-7.0789,-7.0789,-7.0789,-7.0789,-7.0789,-7.0789,-7.0789,-7.0789,-7.0789,-4.6743,-4.7217,-4.7647,-4.7032,-4.7454,-4.7636,-4.7029,-4.7291,-4.7553,-4.7728,-4.7772,-4.7946,-4.8405,-4.8471,-4.858,-4.8886,-4.8907,-4.8907,-4.8907,-4.9359,-4.983,-5.0121,-5.1362,-5.2892,-5.4397,-5.514,-5.6435,-5.8302,-5.8727,-5.9595,-6.0782,-6.0782,-6.0782,-6.0782,-6.0782,-6.0782,-6.0782,-6.0782,-6.0782,-6.0782,-6.0782,-6.0782,-6.0782,-6.0782,-6.0782,-6.0782,-6.0782,-6.0782,-6.0782,-6.0782,-6.0782,-6.0782,-6.0782,-6.0782,-6.0782,-6.0782,-6.0782,-6.0782,-6.0782,-6.0782,-6.0782,-6.0782,-6.0782,-6.0782,-6.0782,-6.0782,-6.0782,-6.0782,-6.0782,-6.1166,-6.2164,-6.3692,-6.5202,-6.6204,-6.7879,-6.8889,-6.8889,-6.8791,-6.8984,-6.9184,-6.8964,-6.875,-6.9052,-6.8815,-6.8703,-6.8703,-6.9051,-6.9272,-6.9272,-6.9714,-7.0062,-7.0346,-7.0346,-7.0473,-7.0789,-7.0789,-7.0789,-7.0789,-7.0789,-7.0789,-7.0789,-7.0789,-7.0789,-7.0789,-7.0789,-7.0789,-7.0789,-7.0789,-7.0789,-7.0789,-7.0789,-7.0789,-7.0789,-7.0789,-7.0789,-7.0789,-4.6111,-4.6505,-4.6789,-4.6789,-4.7204,-4.7553,-4.7553,-4.7597,-4.7772,-4.8187,-4.823,-4.8405,-4.8864,-4.8907,-4.8907,-4.8907,-4.8907,-4.8907,-4.8907,-4.8907,-4.9201,-4.9964,-5.0743,-5.167,-5.2283,-5.4373,-5.5851,-5.7159,-5.8276,-5.9429,-6.0618,-6.0755,-6.0782,-6.0782,-6.0782,-6.0782,-6.0782,-6.0782,-6.0782,-6.0782,-6.0782,-6.0782,-6.0782,-6.0782,-6.0782,-6.0782,-6.0782,-6.0782,-6.0782,-6.0782,-6.0782,-6.0782,-6.0782,-6.0782,-6.0782,-6.0782,-6.0782,-6.0782,-6.0782,-6.0782,-6.0782,-6.0782,-6.0782,-6.0782,-6.0782,-6.0782,-6.0782,-6.0782,-6.0782,-6.1519,-6.4181,-6.4694,-6.5706,-6.8237,-6.8772,-6.8858,-6.8797,-6.8304,-6.802,-6.8272,-6.7909,-6.7808,-6.8139,-6.8296,-6.8513,-6.8513,-6.8545,-6.8608,-6.8608,-6.864,-6.8988,-6.9556,-6.9588,-6.9936,-7.0662,-7.0694,-7.0726,-7.0789,-7.0789,-7.0789,-7.0789,-7.0789,-7.0789,-7.0789,-7.0789,-7.0789,-7.0789,-7.0789,-7.0789,-7.0789,-7.0789,-7.0789,-7.0789,-7.0789,-7.0789,-7.0789,-4.7094,-4.7247,-4.7335,-4.7335,-4.7706,-4.8034,-4.8034,-4.8339,-4.8623,-4.8733,-4.8733,-4.8776,-4.8886,-4.8907,-4.8907,-4.8907,-4.8907,-4.8907,-4.8907,-4.8907,-4.9065,-4.9201,-4.9987,-5.0432,-5.0588,-5.2436,-5.4074,-5.5997,-5.6529,-5.7681,-5.9455,-6.0342,-6.0782,-6.0782,-6.0782,-6.0782,-6.0782,-6.0782,-6.0782,-6.0782,-6.0782,-6.0782,-6.0782,-6.0782,-6.0782,-6.0782,-6.0782,-6.0782,-6.0782,-6.0782,-6.0782,-6.0782,-6.0782,-6.0782,-6.0782,-6.0782,-6.0782,-6.0782,-6.0782,-6.0782,-6.0782,-6.0782,-6.0782,-6.0782,-6.0782,-6.0782,-6.0782,-6.0782,-6.0782,-6.1275,-6.2906,-6.4052,-6.5329,-6.7001,-6.8268,-6.8705,-6.8212,-6.7997,-6.7835,-6.759,-6.7131,-6.7058,-6.7417,-6.7162,-6.706,-6.706,-6.7534,-6.7818,-6.7818,-6.8387,-6.8766,-6.8893,-6.8924,-6.924,-6.9904,-6.9904,-7.022,-7.0789,-7.0789,-7.0789,-7.0789,-7.0789,-7.0789,-7.0789,-7.0789,-7.0789,-7.0789,-7.0789,-7.0789,-7.0789,-7.0789,-7.0789,-7.0789,-7.0789,-7.0789,-7.0789,-4.7444,-4.7662,-4.7815,-4.7815,-4.8208,-4.8514,-4.8514,-4.8733,-4.8907,-4.8907,-4.8907,-4.8907,-4.8907,-4.8907,-4.8907,-4.8907,-4.8907,-4.8907,-4.8907,-4.8907,-4.8907,-4.8907,-4.9673,-5.0121,-5.0121,-5.0898,-5.2412,-5.4348,-5.5483,-5.6938,-5.8392,-6.0039,-6.0782,-6.0782,-6.0782,-6.0782,-6.0782,-6.0782,-6.0782,-6.0782,-6.0782,-6.0782,-6.0782,-6.0782,-6.0782,-6.0782,-6.0782,-6.0782,-6.0782,-6.0782,-6.0782,-6.0782,-6.0782,-6.0782,-6.0782,-6.0782,-6.0782,-6.0782,-6.0782,-6.0782,-6.0782,-6.0782,-6.0782,-6.0782,-6.0782,-6.0782,-6.0782,-6.0782,-6.1275,-6.2164,-6.3562,-6.4822,-6.6233,-6.7638,-6.8142,-6.8304,-6.7966,-6.7381,-6.6827,-6.6653,-6.6447,-6.6339,-6.691,-6.6701,-6.6617,-6.6617,-6.6933,-6.7123,-6.7123,-6.7502,-6.785,-6.8166,-6.8166,-6.8513,-6.9209,-6.9525,-6.9872,-7.0252,-7.0599,-7.0789,-7.0789,-7.0789,-7.0789,-7.0789,-7.0789,-7.0789,-7.0789,-7.0789,-7.0789,-7.0789,-7.0789,-7.0789,-7.0789,-7.0789,-7.0789,-7.0789,-4.7706,-4.8034,-4.8296,-4.8296,-4.8623,-4.8907,-4.8907,-4.8907,-4.8907,-4.8907,-4.8907,-4.8907,-4.8907,-4.8907,-4.8907,-4.8907,-4.8907,-4.8907,-4.8907,-4.8907,-4.8907,-4.8907,-4.9516,-4.9808,-4.9808,-4.9808,-5.0876,-5.2821,-5.4869,-5.6479,-5.7512,-5.9734,-6.0782,-6.0782,-6.0782,-6.0782,-6.0782,-6.0782,-6.0782,-6.0782,-6.0782,-6.0782,-6.0782,-6.0782,-6.0782,-6.0782,-6.0782,-6.0837,-6.0918,-6.0918,-6.0918,-6.0891,-6.081,-6.0782,-6.0782,-6.0782,-6.0782,-6.0782,-6.0782,-6.0782,-6.0782,-6.0782,-6.0782,-6.0782,-6.0782,-6.0782,-6.0782,-6.0782,-6.1896,-6.3169,-6.4567,-6.5985,-6.7396,-6.8623,-6.8335,-6.7873,-6.7781,-6.6673,-6.5873,-6.575,-6.5747,-6.5915,-6.648,-6.6617,-6.6617,-6.6617,-6.6617,-6.6617,-6.6617,-6.6617,-6.687,-6.7407,-6.7439,-6.7787,-6.8482,-6.9051,-6.9398,-6.9525,-7.0252,-7.0662,-7.0789,-7.0789,-7.0789,-7.0789,-7.0789,-7.0789,-7.0789,-7.0789,-7.0789,-7.0789,-7.0789,-7.0789,-7.0789,-7.0789,-7.0789,-7.0789,-4.8623,-4.8755,-4.8798,-4.8798,-4.8864,-4.8907,-4.8907,-4.8907,-4.8907,-4.8907,-4.8907,-4.8907,-4.8907,-4.8907,-4.8907,-4.8907,-4.8907,-4.8907,-4.8907,-4.8907,-4.8907,-4.8907,-4.9044,-4.9044,-4.9044,-4.9044,-4.9987,-5.167,-5.3828,-5.5433,-5.6359,-5.9429,-6.0782,-6.0782,-6.0782,-6.0782,-6.0782,-6.0782,-6.0782,-6.0782,-6.0782,-6.0782,-6.0782,-6.0782,-6.0782,-6.0782,-6.0782,-6.1081,-6.1488,-6.1488,-6.1488,-6.1407,-6.0918,-6.0782,-6.0782,-6.0782,-6.0782,-6.0782,-6.0782,-6.0782,-6.0782,-6.0782,-6.0782,-6.0782,-6.0782,-6.0782,-6.0782,-6.0782,-6.1896,-6.3169,-6.4567,-6.5985,-6.7396,-6.8623,-6.8335,-6.772,-6.7135,-6.6396,-6.5688,-6.5103,-6.5468,-6.5915,-6.648,-6.6617,-6.6617,-6.6617,-6.6617,-6.6617,-6.6617,-6.6617,-6.6649,-6.6744,-6.6744,-6.706,-6.7723,-6.7818,-6.8197,-6.8829,-6.9493,-7.0157,-7.0789,-7.0789,-7.0789,-7.0789,-7.0789,-7.0789,-7.0789,-7.0789,-7.0789,-7.0789,-7.0789,-7.0789,-7.0789,-7.0789,-7.0789,-7.0789,-4.8864,-4.8907,-4.8907,-4.8907,-4.8907,-4.8907,-4.8907,-4.8907,-4.8907,-4.8907,-4.8907,-4.8907,-4.8907,-4.8907,-4.8907,-4.8907,-4.8907,-4.8907,-4.8907,-4.8907,-4.8907,-4.8907,-4.8907,-4.8907,-4.8907,-4.8907,-4.9201,-4.9987,-5.2646,-5.44,-5.5433,-5.8392,-6.0177,-6.0782,-6.0782,-6.0782,-6.0782,-6.0782,-6.0782,-6.0782,-6.0782,-6.0782,-6.0782,-6.0782,-6.0782,-6.0782,-6.0782,-6.1135,-6.1569,-6.1244,-6.1352,-6.1515,-6.0945,-6.0782,-6.0782,-6.0782,-6.0782,-6.0782,-6.0782,-6.0782,-6.0782,-6.0782,-6.0782,-6.0782,-6.0782,-6.0782,-6.1029,-6.1761,-6.3037,-6.431,-6.5735,-6.7123,-6.8145,-6.828,-6.7781,-6.7135,-6.6457,-6.578,-6.5337,-6.5328,-6.5592,-6.5915,-6.648,-6.6617,-6.6617,-6.6617,-6.6617,-6.6617,-6.6617,-6.6617,-6.6617,-6.6617,-6.6617,-6.6744,-6.7028,-6.7407,-6.7755,-6.8103,-6.9177,-6.9841,-7.0188,-7.0599,-7.0789,-7.0789,-7.0789,-7.0789,-7.0789,-7.0789,-7.0789,-7.0789,-7.0789,-7.0789,-7.0789,-7.0789,-7.0789,-7.0789]}]]